GFSSW_sfc_temp_000.txt.gz
Temp
61 61 60 60 60 60 60 60 61 61 61 62 62 61 61 61 62 72 77 87 87 71 76 89 90 91 92 90 91 91 78 74 77 78 81 88 84 88 88 86 84 86 85 86 86
60 60 60 60 60 60 60 60 60 61 61 61 61 61 61 61 77 81 84 77 74 73 90 87 86 89 86 88 88 83 77 77 85 86 84 88 86 88 82 82 81 81 83 83 84
60 60 60 60 60 59 59 59 60 60 61 61 61 61 61 66 78 87 76 75 73 77 96 94 93 88 83 87 85 84 76 84 86 88 89 87 86 88 83 81 85 84 87 83 84
59 59 59 59 59 59 59 59 59 60 60 60 60 60 61 77 72 87 76 74 74 91 94 91 89 83 82 79 86 78 84 85 87 88 87 83 87 83 84 87 88 88 88 85 83
58 58 59 58 58 58 58 58 59 59 59 59 60 60 73 75 77 93 76 76 83 87 88 87 84 83 79 83 85 81 83 87 88 88 87 85 83 83 85 89 88 88 86 84 83
58 58 58 58 58 58 58 58 58 58 58 59 60 60 72 67 93 94 92 90 90 88 87 90 88 91 86 84 83 85 85 85 86 86 85 82 83 80 87 87 85 83 84 84 83
58 58 58 58 58 58 58 58 57 57 58 60 61 67 69 74 92 93 91 90 94 92 87 92 95 89 88 82 88 85 78 82 83 84 82 83 77 78 88 84 82 81 83 83 82
58 58 58 58 58 58 58 58 57 58 59 60 61 70 68 89 94 91 93 90 90 93 92 94 95 90 87 89 83 79 80 73 83 82 81 80 68 80 88 81 81 82 82 80 79
58 58 58 59 58 58 57 56 57 59 60 62 67 69 70 79 80 88 91 85 89 90 90 92 90 85 85 78 75 77 69 73 76 84 81 78 74 82 87 83 81 82 81 80 79
58 57 57 58 58 57 56 56 60 59 65 70 72 64 76 77 85 87 91 89 85 85 83 83 84 78 80 76 65 69 70 74 72 79 79 77 76 81 85 84 80 81 81 79 78
58 57 57 58 57 56 59 71 68 64 66 71 71 74 77 84 86 85 86 83 85 82 74 80 75 70 76 78 78 76 73 71 76 80 75 75 76 79 83 84 82 81 79 78 77
58 57 57 57 57 56 62 64 61 60 60 73 72 74 81 80 74 81 88 78 76 72 79 75 70 79 82 81 76 74 71 71 76 78 75 75 74 79 82 83 84 81 79 78 77
56 56 57 57 56 59 62 63 68 67 60 69 74 73 75 79 74 79 83 81 76 74 76 72 76 82 79 76 72 72 70 70 70 75 77 74 70 76 81 83 84 82 83 80 78
55 56 56 56 53 66 61 67 69 66 57 66 66 73 78 79 70 85 86 82 79 75 78 76 83 78 74 73 75 68 76 74 71 68 63 73 59 71 77 79 82 82 80 80 78
55 56 56 54 60 61 64 69 69 64 45 74 71 85 81 73 79 78 87 82 74 76 78 73 77 74 72 74 78 71 79 74 72 68 67 68 63 70 77 74 79 84 84 80 79
55 55 55 54 56 66 69 67 64 52 45 65 71 69 70 72 77 81 78 84 83 78 79 78 84 80 78 80 79 79 73 72 71 69 57 67 66 67 75 75 79 84 83 81 79
55 55 55 57 48 69 68 62 49 47 69 63 64 69 70 66 71 71 70 69 69 63 65 72 74 80 81 75 77 75 68 58 55 56 55 67 63 69 77 81 82 82 84 80 79
54 54 57 60 57 63 61 51 42 58 62 72 71 69 66 70 70 70 69 66 74 74 70 65 62 73 78 76 71 71 69 61 49 52 60 66 59 72 80 83 83 82 82 80 78
52 59 56 60 60 56 47 40 49 59 69 67 69 64 65 69 71 70 69 69 73 76 68 66 66 79 79 80 79 71 65 75 63 66 59 65 69 77 81 81 81 79 77 76 76
53 55 57 63 61 47 37 41 54 67 68 70 61 67 62 65 65 68 67 74 73 77 80 72 63 74 77 80 80 76 78 62 65 51 49 61 62 67 73 76 77 76 76 75 77
51 44 59 64 54 40 34 43 53 66 66 61 63 65 68 67 68 67 69 74 78 76 79 76 70 68 74 70 70 71 69 69 70 67 56 53 63 77 76 78 78 80 78 76 77
51 37 58 54 36 36 34 48 53 58 61 62 63 65 68 70 67 68 68 73 80 79 70 76 70 62 66 77 80 76 71 69 62 58 64 63 64 81 80 81 81 81 79 80 81
43 43 58 49 33 33 45 47 53 54 53 55 58 65 70 67 63 69 70 77 80 77 71 74 66 58 62 67 73 70 73 73 70 69 62 60 64 81 81 80 80 81 80 79 80
45 34 42 39 42 45 43 42 40 54 53 54 54 58 59 63 70 67 69 75 79 79 67 72 68 63 59 63 69 64 69 73 70 62 63 65 69 76 78 79 80 81 81 81 80
46 38 41 34 34 40 43 43 42 42 53 56 53 57 60 58 63 64 70 71 75 72 73 72 62 67 70 73 72 69 69 70 67 69 63 68 70 76 80 81 83 83 81 80 80
36 36 38 38 40 40 41 42 43 46 46 50 50 54 58 56 63 63 69 68 68 75 72 72 63 68 66 72 72 68 71 71 70 71 71 72 71 83 85 86 83 82 80 80 80
41 42 38 37 35 35 34 41 45 49 52 55 55 54 54 58 61 66 67 68 71 69 68 67 65 63 58 68 68 61 69 71 71 74 73 67 75 83 81 81 83 82 82 81 82

GFSSW_sfc_temp_003.txt.gz
Temp
61 61 61 61 60 60 60 60 60 61 61 62 62 62 62 62 62 78 83 91 90 71 74 95 96 96 97 93 96 96 80 77 80 81 84 92 88 93 95 90 91 92 90 92 93
60 60 60 60 60 60 60 60 60 60 61 61 61 61 61 61 74 85 91 81 74 75 91 91 89 93 89 90 92 87 79 80 89 89 86 89 90 92 89 88 88 88 91 89 91
60 60 60 60 60 59 59 59 60 60 61 61 61 61 61 65 81 92 75 78 74 79 98 98 97 93 86 92 90 88 79 86 88 90 91 88 89 94 88 84 90 86 90 89 90
60 60 59 59 59 59 59 59 59 60 60 60 60 60 61 75 73 91 76 74 74 91 94 95 92 88 84 83 92 83 87 88 87 90 90 87 92 88 88 88 93 93 93 92 89
59 59 59 59 59 59 59 59 59 59 59 59 60 60 70 76 79 95 76 77 87 88 88 91 88 88 83 86 89 83 84 87 91 92 91 91 87 87 88 93 94 93 92 91 90
59 59 59 59 59 59 58 58 58 58 58 59 60 60 68 66 94 101 95 91 94 90 90 92 91 93 88 86 85 88 88 88 90 90 91 86 87 86 89 92 89 90 90 90 87
59 59 59 59 59 59 58 58 58 58 58 59 61 68 71 73 97 100 97 95 97 94 88 93 95 90 88 83 92 90 82 86 87 88 86 89 81 82 90 91 89 88 86 88 90
59 58 59 59 59 59 59 58 58 58 59 60 61 71 68 90 96 92 97 94 96 97 95 97 95 91 90 92 88 83 83 75 86 88 88 85 73 86 92 90 86 87 89 88 89
58 58 58 59 59 59 58 57 58 59 60 61 67 72 71 87 85 93 97 90 93 94 96 97 94 86 88 80 77 79 71 75 79 89 85 82 76 86 91 89 86 87 88 88 87
58 57 57 58 58 58 57 56 61 60 63 72 78 68 77 79 89 91 97 93 88 88 85 85 85 79 81 77 66 71 74 77 76 84 84 80 79 86 89 88 86 88 87 87 85
58 57 57 58 58 57 58 71 69 65 70 71 74 74 83 88 91 88 93 89 87 84 74 81 76 70 76 79 81 80 77 76 81 86 82 79 78 83 87 88 87 87 87 86 85
56 57 57 57 57 57 62 63 73 69 64 74 76 80 85 88 78 85 93 80 78 74 79 77 71 80 83 82 80 79 76 75 80 84 81 78 76 82 85 86 88 87 88 86 84
56 56 56 57 56 58 63 69 77 76 64 72 79 77 80 85 78 81 88 82 77 75 77 73 78 84 82 80 77 78 74 74 74 80 82 77 73 78 85 88 88 89 89 88 84
55 55 55 56 53 67 67 76 77 74 59 68 74 79 83 83 75 88 92 84 80 75 78 78 85 82 79 78 80 72 81 78 75 72 66 79 63 74 81 82 85 87 87 87 85
55 55 55 54 58 64 70 76 77 70 46 79 80 90 86 77 81 81 91 84 76 78 79 75 79 79 76 79 83 76 83 79 76 71 70 71 66 73 81 78 81 85 88 87 86
55 55 55 59 63 67 73 73 69 53 46 70 79 74 76 77 78 87 81 87 86 81 82 81 89 86 83 85 83 85 79 77 76 72 60 69 68 70 76 78 81 86 88 86 86
55 55 56 63 58 69 69 65 49 47 71 69 71 75 75 72 73 79 74 72 71 66 68 77 80 86 87 79 83 80 72 61 57 59 57 73 68 71 80 83 84 85 87 86 85
54 54 58 64 69 65 61 52 41 58 64 78 76 75 70 76 73 75 72 69 76 76 73 68 65 80 85 80 76 75 72 63 51 56 63 72 63 73 83 86 86 87 87 86 83
53 52 59 64 67 62 47 40 46 60 70 70 75 69 69 75 74 73 72 71 76 78 70 69 70 84 84 84 83 75 68 77 67 69 64 69 73 80 83 83 85 85 84 82 81
49 49 52 65 63 56 38 39 53 64 68 72 64 71 65 71 71 71 70 77 76 81 84 78 67 81 82 84 84 80 82 66 69 53 51 64 67 70 75 79 82 81 81 80 81
46 41 61 66 56 42 32 42 53 64 68 61 62 65 71 70 73 72 72 79 81 80 83 80 75 74 81 74 73 75 73 73 72 69 58 56 65 80 79 81 80 83 83 81 81
44 38 66 57 38 37 34 48 52 58 65 62 62 61 63 72 72 71 71 77 86 84 74 80 74 68 72 82 83 80 75 74 65 60 68 67 69 84 83 84 84 84 84 84 84
47 49 59 55 34 38 49 50 51 54 56 58 58 60 64 62 60 73 74 85 86 82 77 79 70 63 67 74 79 74 77 76 74 71 64 62 66 85 84 83 85 85 85 84 84
41 37 45 45 40 39 41 47 46 55 56 55 58 61 57 58 66 67 74 81 86 84 73 76 72 67 63 67 74 68 73 76 72 64 65 68 72 77 80 81 84 85 85 86 84
47 42 48 36 39 43 42 44 44 48 53 58 54 56 57 56 63 66 74 78 81 76 78 76 66 71 74 78 76 74 73 74 71 71 66 70 72 79 82 83 86 86 86 85 85
38 44 49 43 45 44 43 43 43 47 50 50 51 56 57 55 62 61 69 71 72 78 77 76 66 71 69 76 77 71 74 75 75 75 73 74 74 86 88 89 87 86 86 85 85
49 50 43 38 42 40 39 44 46 50 54 53 54 55 54 57 56 62 66 67 72 73 72 70 69 65 61 72 73 66 73 74 75 77 76 70 77 85 84 85 86 86 87 86 86

GFSSW_sfc_temp_006.txt.gz
Temp
61 61 60 60 60 60 60 60 60 61 61 61 61 61 61 61 62 78 76 88 89 72 73 92 92 93 95 89 93 93 76 72 76 79 82 91 88 94 97 90 91 93 90 92 93
61 60 60 60 60 60 60 60 60 60 61 61 61 61 61 61 72 79 86 81 75 74 87 89 86 91 87 87 88 83 75 75 85 87 85 89 88 89 88 88 88 89 93 92 91
61 61 60 60 60 59 59 59 60 60 60 60 60 60 60 63 75 86 76 76 74 77 94 95 94 90 83 87 86 84 77 83 85 89 90 87 87 91 87 83 88 86 90 89 88
61 61 61 60 60 59 59 59 59 60 60 60 60 60 61 73 68 87 76 74 75 92 91 90 89 83 81 79 86 79 86 87 88 90 88 85 89 86 88 88 94 93 93 91 87
60 61 60 60 60 59 59 59 59 59 59 59 59 60 70 74 76 94 76 77 85 88 86 85 84 84 79 83 85 81 85 88 90 88 88 90 86 87 87 93 95 95 93 90 89
59 59 60 60 59 59 59 58 58 58 59 59 60 59 68 62 90 94 95 88 90 86 85 87 85 89 84 83 83 86 86 87 88 87 89 85 86 87 89 93 92 91 90 90 89
58 58 59 59 59 59 59 58 58 58 59 60 60 66 66 69 90 95 96 94 92 89 84 89 90 85 87 81 89 86 79 83 85 86 85 89 80 81 90 92 89 89 90 90 90
58 58 58 58 59 59 59 59 58 59 59 60 61 66 61 84 88 85 89 90 96 96 93 94 94 87 84 87 84 79 79 72 83 86 87 85 71 84 90 89 86 89 89 89 87
58 57 58 58 58 59 58 58 58 59 61 62 62 65 65 83 77 86 92 87 93 94 94 96 91 83 82 74 72 75 67 71 76 87 85 84 75 85 90 88 86 87 88 89 88
57 57 57 57 58 58 57 57 60 61 66 71 73 66 74 73 83 88 92 92 86 87 85 84 82 76 76 72 60 66 69 73 72 81 85 80 78 84 87 87 85 86 87 87 86
57 57 56 57 57 57 58 66 66 61 66 66 69 70 81 87 90 87 92 87 86 82 72 77 70 66 71 74 75 75 73 73 79 85 79 77 78 82 86 86 85 86 86 85 84
56 56 56 56 57 56 59 57 66 70 60 71 73 76 81 87 78 84 93 79 77 70 76 72 66 74 78 78 75 74 72 72 79 85 82 79 78 82 85 84 85 85 85 86 83
56 56 56 56 56 57 59 61 72 75 60 66 74 72 74 81 75 79 85 81 75 70 71 67 72 79 77 75 73 73 71 72 73 80 82 78 73 77 83 87 88 89 88 88 82
56 56 55 55 53 65 64 74 77 77 52 61 69 75 79 79 72 86 90 82 77 70 72 73 79 77 75 74 76 68 79 78 76 72 64 78 61 73 79 81 85 86 86 85 83
56 56 55 54 58 58 66 74 78 71 38 74 74 90 83 74 78 78 89 83 72 73 74 70 74 74 74 75 80 74 82 79 77 72 70 69 64 70 79 76 81 85 87 85 83
55 56 55 58 59 64 69 72 69 48 39 67 83 76 74 74 75 85 79 85 83 76 77 75 85 82 79 84 83 84 79 78 76 71 59 67 65 66 73 77 81 85 87 85 84
55 56 55 62 57 68 69 61 44 39 65 65 73 75 72 70 71 74 72 70 69 63 64 73 75 83 85 78 83 80 72 59 55 56 55 70 66 68 79 83 84 84 84 84 83
54 54 56 61 66 65 58 45 34 51 54 76 77 75 68 74 71 71 71 67 74 72 67 64 62 76 84 79 76 76 71 61 49 52 58 72 62 71 83 86 87 87 86 84 82
52 57 54 61 65 61 44 32 41 50 63 62 67 64 68 72 74 70 70 70 74 75 64 66 66 82 83 85 83 74 68 76 65 67 61 67 72 79 83 82 84 85 84 80 80
52 50 54 65 63 51 38 35 47 58 61 61 53 62 56 67 69 69 68 75 73 78 80 73 65 79 82 86 84 78 81 65 66 51 50 61 65 68 73 78 81 81 81 79 79
50 40 56 66 59 42 33 40 49 57 59 54 54 55 57 56 64 70 69 76 79 78 79 77 71 73 80 75 73 74 72 72 70 67 56 53 62 78 77 78 75 77 81 79 79
44 36 61 64 39 36 34 46 50 53 58 55 56 56 54 58 57 58 69 75 84 81 72 77 72 65 72 82 84 79 74 73 63 59 65 64 64 81 82 82 82 80 81 81 81
43 47 59 49 34 35 45 47 50 51 52 53 52 55 57 54 51 61 67 82 85 80 75 76 67 61 66 75 79 73 76 76 73 70 63 59 64 82 83 83 84 81 81 81 81
45 36 47 47 47 42 42 44 43 53 53 55 50 53 51 50 58 56 63 75 85 84 74 74 68 64 61 68 74 68 73 76 71 63 64 66 70 75 78 80 82 82 82 82 81
46 42 48 38 41 41 39 43 42 40 53 56 51 50 49 46 51 57 58 55 65 77 76 73 62 70 72 76 76 74 72 73 71 71 65 69 71 77 79 81 83 84 83 82 82
39 43 48 44 47 43 43 42 45 48 51 48 46 53 52 47 51 49 52 54 54 58 74 74 63 69 68 74 76 72 74 74 74 74 72 73 72 83 85 85 85 83 83 83 82
52 53 47 42 43 40 42 44 45 48 53 56 53 50 47 49 58 59 61 60 60 56 57 69 67 63 60 71 72 65 73 74 74 77 76 69 75 83 83 84 85 83 83 84 84

GFSSW_sfc_temp_009.txt.gz
Temp
61 61 61 60 60 60 60 60 60 60 61 61 61 61 61 61 61 65 66 77 79 75 73 83 81 83 83 78 82 82 62 61 65 68 73 81 78 86 89 83 84 85 83 82 82
61 61 61 60 60 60 60 60 60 60 60 61 61 61 61 61 60 67 78 77 77 74 81 80 78 81 75 76 79 73 64 66 76 77 76 78 78 81 82 81 81 82 83 84 83
61 61 61 61 61 60 59 59 60 60 60 60 60 60 60 60 61 74 76 76 77 76 86 85 84 80 72 78 77 76 67 75 78 82 83 79 78 83 80 76 80 78 78 80 78
60 60 60 60 60 60 59 59 60 60 60 60 60 60 60 60 56 77 76 74 76 82 85 83 80 73 71 70 79 71 77 79 80 84 82 78 80 80 82 80 87 85 82 79 77
59 59 60 60 60 60 59 59 60 60 59 59 60 60 57 59 64 85 77 76 79 80 81 78 74 73 68 74 76 73 77 81 83 84 79 81 78 80 82 85 87 87 84 77 75
58 58 59 59 59 59 59 58 58 58 59 59 60 60 55 51 78 86 87 83 84 80 80 79 75 79 74 74 73 78 78 79 82 81 79 78 80 81 82 86 86 84 81 80 78
57 57 58 58 58 58 58 58 57 58 59 60 61 61 55 57 80 84 80 78 82 82 78 82 83 77 75 71 78 77 72 76 78 80 77 82 74 76 81 84 81 80 80 80 78
57 57 57 58 58 58 58 58 58 58 60 61 61 57 49 74 76 74 79 78 83 86 83 85 85 77 73 74 74 69 70 63 73 77 81 78 66 77 82 80 77 80 80 79 76
57 56 57 57 57 58 57 57 58 60 61 61 56 52 51 76 70 78 81 76 82 83 85 88 82 73 71 65 61 65 56 61 67 78 78 74 69 78 81 80 76 76 77 79 75
57 56 56 56 57 57 56 56 58 59 61 65 64 53 62 64 76 79 80 80 78 79 79 77 73 66 66 61 51 56 58 64 64 73 76 73 72 75 78 78 75 74 75 76 73
57 56 56 56 56 56 54 54 53 50 56 55 57 60 71 77 83 79 83 77 76 72 63 71 60 57 63 67 67 65 63 63 70 77 74 70 71 73 75 76 74 72 72 73 71
57 57 56 56 56 55 51 46 54 56 47 62 63 66 72 77 68 76 84 71 67 60 68 63 57 67 72 71 67 66 63 62 69 76 72 71 69 73 76 74 73 74 73 70 67
55 56 56 56 55 51 49 52 62 60 47 57 65 64 66 71 65 69 78 74 67 62 63 58 64 73 70 67 65 65 62 62 63 71 74 67 61 66 74 75 77 76 74 70 69
55 55 55 55 49 53 54 64 65 63 40 50 60 64 69 69 62 77 79 76 69 62 65 62 70 69 66 65 67 60 71 70 68 64 53 66 47 60 67 69 73 77 69 69 69
55 55 55 55 47 48 58 62 67 63 25 61 63 77 70 63 70 69 80 75 66 67 66 61 65 65 64 66 71 65 73 70 69 64 59 59 50 56 65 65 70 71 70 70 70
55 55 55 52 49 53 59 62 58 38 27 55 71 66 62 63 67 76 71 76 76 68 69 66 74 71 69 74 74 76 70 69 67 62 46 56 54 56 60 66 69 73 74 70 69
55 55 53 57 48 60 62 52 33 31 55 57 61 66 64 60 61 65 63 61 58 54 55 64 66 73 76 68 73 71 61 49 42 43 41 60 55 58 66 71 73 68 69 69 70
54 53 53 56 56 58 54 38 27 43 43 56 56 60 56 65 60 62 61 57 64 63 55 53 51 67 75 70 65 66 62 50 38 39 47 62 53 62 73 76 74 74 72 71 68
52 50 50 54 58 55 41 30 32 41 51 53 52 49 54 59 63 61 59 59 63 65 54 54 55 72 75 76 73 65 59 65 53 52 47 53 61 66 74 71 71 71 71 66 65
48 47 49 58 56 47 35 32 39 49 53 53 41 49 42 48 50 53 59 65 64 69 69 59 51 69 73 76 75 70 69 55 49 41 36 50 53 54 63 67 69 67 65 64 65
47 41 52 58 51 41 31 35 43 51 51 46 44 43 45 44 49 49 53 64 71 68 69 66 56 60 70 65 64 66 62 58 56 51 41 40 47 63 64 67 66 67 67 66 66
43 35 52 56 37 36 33 40 47 47 52 49 49 48 44 47 44 45 49 59 71 73 63 67 54 52 59 73 76 71 62 58 54 46 52 49 49 68 67 68 68 69 69 66 67
40 40 51 48 32 32 39 42 46 46 47 46 45 49 51 44 37 46 53 63 65 59 66 67 58 45 53 60 70 65 68 65 57 55 50 47 48 69 70 69 72 68 70 70 68
40 33 40 43 40 36 36 38 39 50 48 48 46 48 47 44 48 43 47 59 60 62 60 70 57 55 48 55 65 63 66 68 59 48 53 56 57 63 67 68 68 69 69 69 68
40 37 42 31 35 38 39 39 37 38 48 50 40 46 46 39 40 42 47 50 56 59 55 58 56 57 63 66 66 68 67 67 63 60 56 58 60 64 67 68 70 71 71 71 69
37 38 41 37 41 40 38 37 39 42 46 43 42 43 46 42 43 37 42 42 44 51 48 51 54 61 58 67 67 66 69 69 68 66 63 63 62 69 72 72 70 72 73 72 72
45 46 41 38 37 36 35 39 40 44 48 51 50 46 45 46 46 48 48 48 48 46 46 46 48 55 51 63 62 56 67 68 68 67 66 60 63 69 68 72 70 73 75 74 74

GFSSW_sfc_temp_012.txt.gz
Temp
61 61 61 61 60 60 60 60 60 60 60 61 61 61 61 61 60 62 63 74 74 72 73 79 78 80 77 72 75 73 55 54 57 61 67 76 69 81 84 78 80 81 76 80 80
61 61 61 61 61 60 60 60 60 60 60 61 60 60 60 60 57 59 74 75 75 73 78 77 74 76 67 70 72 65 55 61 70 70 70 75 72 77 77 77 77 75 77 80 79
59 60 60 61 61 60 60 60 60 60 60 60 60 60 60 59 59 67 77 75 75 74 81 81 77 74 65 68 70 67 63 71 72 76 77 75 76 81 77 72 76 74 75 76 74
59 59 59 60 60 60 59 60 60 60 60 60 60 60 60 57 53 75 77 74 73 78 79 77 73 65 63 64 73 62 71 73 74 78 77 75 80 78 78 78 81 80 79 75 73
58 58 59 59 59 59 59 59 59 59 59 59 59 60 55 53 60 80 78 77 77 77 74 73 68 67 61 66 69 66 71 75 77 77 78 80 77 78 78 82 82 81 78 75 74
57 57 57 58 58 58 58 58 58 58 58 59 60 60 51 44 71 78 80 80 80 74 75 74 71 74 65 68 66 71 71 73 76 75 77 75 76 76 79 82 81 77 75 76 74
57 57 57 57 57 58 58 57 57 58 59 60 60 60 49 50 72 75 71 70 76 78 75 78 79 72 68 65 72 70 65 71 73 74 74 76 71 72 78 79 77 76 76 75 75
57 57 57 57 57 57 58 57 57 58 59 60 61 57 45 64 66 66 71 74 76 77 76 81 81 71 64 67 68 62 59 54 68 72 76 70 62 73 77 76 74 76 76 76 72
57 57 57 57 57 57 57 56 57 58 59 60 55 50 43 67 63 70 72 68 78 79 77 84 73 67 64 60 56 56 52 55 61 71 72 68 65 74 80 79 76 74 73 74 73
57 57 56 56 57 56 55 55 56 57 58 61 59 47 55 60 71 75 74 73 71 72 70 70 66 60 57 53 47 50 51 57 59 68 69 66 66 73 77 75 75 73 72 71 70
57 56 56 56 56 55 52 47 48 46 48 48 50 53 68 70 77 75 76 70 71 65 59 66 57 53 58 63 63 60 57 56 64 71 66 64 67 72 77 69 70 71 70 69 66
56 56 56 56 56 55 48 42 49 50 42 55 56 57 65 69 62 70 77 64 61 54 63 59 54 64 68 65 62 60 57 57 65 70 64 65 65 72 73 69 71 72 70 65 61
55 55 55 55 55 48 45 50 57 54 41 50 57 57 59 64 59 62 72 67 61 57 60 56 61 70 66 62 60 59 57 59 59 66 67 63 60 65 71 70 73 73 69 64 64
55 55 55 55 48 46 47 57 56 60 33 44 53 58 62 63 57 69 73 69 64 57 61 60 67 66 62 60 63 55 66 65 63 58 49 62 45 55 64 67 68 71 66 62 65
54 55 55 54 45 42 52 55 57 51 23 55 57 69 65 57 64 64 74 68 58 62 61 56 62 61 59 61 66 60 68 64 63 58 52 58 48 55 60 63 66 68 63 62 66
54 55 55 51 48 50 53 53 49 34 24 47 61 56 54 57 62 68 65 71 69 63 64 62 69 67 64 68 68 69 63 61 59 55 44 56 52 57 56 64 66 66 64 63 62
55 55 53 54 46 49 51 45 31 27 50 47 48 53 53 53 55 60 57 56 53 49 51 60 61 67 70 62 67 64 53 42 37 41 43 57 51 55 61 65 70 68 62 62 63
53 53 51 52 48 51 45 38 27 39 41 51 50 51 49 52 52 56 55 53 59 58 53 50 47 62 69 64 59 60 57 44 36 37 43 57 49 59 68 70 69 66 65 65 61
51 46 43 46 52 47 41 29 31 39 47 45 45 42 42 47 48 51 53 54 59 59 49 50 51 66 69 70 67 58 53 62 49 47 44 49 56 63 65 63 64 63 64 61 61
46 43 42 50 50 45 36 32 36 46 46 45 36 43 36 41 42 43 47 59 58 64 60 54 47 63 67 70 69 64 64 51 44 40 36 45 49 51 59 59 62 61 60 59 60
41 36 46 52 51 40 31 30 39 48 49 43 39 39 41 39 41 39 43 53 56 60 64 59 50 53 64 60 59 57 58 54 54 48 41 38 45 58 61 62 61 63 62 61 61
38 32 46 51 37 36 33 38 44 44 48 45 46 44 42 42 37 40 41 48 55 54 48 61 49 48 53 62 70 65 57 58 52 44 47 46 47 62 61 65 67 64 65 63 64
34 35 46 48 30 32 37 39 43 41 43 44 42 45 46 42 37 41 45 55 55 51 48 51 53 41 45 53 61 61 63 61 52 48 46 45 47 64 63 66 67 64 63 64 62
34 30 36 42 40 36 33 35 37 47 43 46 44 46 43 41 46 41 42 51 52 53 55 51 48 51 45 52 57 54 62 63 57 45 47 55 53 59 61 63 62 63 64 64 65
35 30 38 27 30 34 33 36 35 35 45 45 40 42 41 36 42 41 46 47 50 53 49 44 42 55 58 60 59 60 63 63 58 57 55 55 56 59 63 65 66 66 65 65 65
36 34 36 31 35 33 36 34 35 38 40 40 39 43 44 37 40 39 43 42 40 47 44 43 37 53 54 62 61 58 61 66 65 59 58 60 56 64 70 71 67 66 67 67 67
44 45 39 35 31 31 32 37 35 38 43 46 44 44 39 45 48 49 48 48 46 42 40 38 38 40 47 58 58 52 60 61 64 65 61 57 60 64 63 68 68 66 69 69 70

GFSSW_sfc_temp_015.txt.gz
Temp
60 60 60 60 60 60 60 60 60 60 60 60 61 60 60 60 60 61 63 73 73 71 74 75 76 77 74 69 70 68 53 51 55 59 62 69 66 75 80 76 77 79 74 77 77
60 60 60 60 60 60 60 60 60 60 60 60 60 60 60 60 55 56 71 74 74 72 75 73 71 73 65 67 68 62 52 58 69 67 65 68 68 73 73 74 73 77 77 75 76
59 59 59 59 59 59 59 59 60 60 60 60 60 60 60 59 56 65 75 74 74 74 78 78 77 71 61 65 65 62 60 68 69 72 69 69 71 77 72 70 74 74 75 72 72
58 58 59 59 59 59 59 59 59 60 60 60 59 59 60 54 51 71 76 73 73 75 75 74 71 64 61 61 70 59 66 71 72 75 68 69 74 73 75 75 82 78 77 72 71
58 58 58 58 58 58 58 58 59 59 59 59 59 60 53 48 55 77 76 77 75 73 71 70 65 65 60 63 67 61 67 71 72 71 72 74 71 73 74 80 83 80 74 72 72
57 57 58 57 57 57 57 57 57 57 58 59 59 60 50 39 68 73 75 74 75 70 70 70 68 71 61 64 62 65 66 67 70 71 72 70 71 73 76 79 79 75 71 73 72
57 57 57 57 58 57 57 57 57 57 58 59 60 59 50 48 66 69 67 66 71 74 70 74 76 72 66 62 67 66 61 66 68 71 70 73 66 68 77 76 73 72 72 72 73
57 57 57 57 57 57 57 57 57 57 58 59 60 56 45 62 63 60 64 66 72 72 72 77 78 70 61 63 64 59 55 52 65 70 72 67 58 70 77 73 72 73 72 72 72
57 57 57 57 57 57 57 56 57 57 58 59 55 51 44 62 56 63 66 64 72 72 72 80 73 63 61 57 50 51 50 52 59 67 66 63 60 69 73 71 70 73 73 72 73
57 56 56 56 57 56 56 55 56 56 56 59 57 45 50 56 66 70 67 67 67 68 65 66 61 55 52 49 44 48 47 55 55 62 64 62 61 69 73 72 71 74 73 69 71
57 56 56 56 56 55 54 47 47 45 48 44 48 49 61 64 72 71 69 64 66 61 53 59 52 49 54 58 60 58 55 54 60 65 62 59 60 65 71 68 67 68 68 68 65
56 56 56 55 55 55 51 41 50 52 40 52 52 53 58 60 52 63 72 59 56 52 60 56 50 59 62 61 58 57 53 53 59 64 61 59 59 66 68 69 69 70 71 63 59
55 55 55 55 55 48 42 47 56 56 39 46 53 52 55 59 52 56 68 63 56 53 55 53 58 65 62 59 56 55 53 54 55 60 62 59 56 61 69 68 70 68 68 64 63
54 55 55 55 48 44 43 53 55 56 32 41 48 53 57 58 52 64 69 64 59 52 57 55 64 63 60 57 58 51 61 61 59 53 46 57 41 53 60 64 65 68 66 66 60
54 55 55 54 49 47 49 50 55 51 21 51 53 64 60 53 60 60 70 64 55 56 57 53 59 59 57 59 62 57 64 60 58 52 48 53 45 51 56 60 63 67 66 59 58
54 55 54 53 45 48 50 48 48 32 24 45 55 51 51 53 55 62 61 66 64 56 58 59 67 65 63 66 66 66 57 55 54 48 41 51 47 48 54 60 63 65 60 59 58
54 55 52 54 42 47 47 42 31 24 48 43 44 49 49 46 50 53 53 52 50 44 46 54 58 63 66 59 60 59 48 36 33 35 37 52 47 54 60 63 65 67 61 58 57
53 52 52 51 47 48 47 34 24 38 39 49 45 48 43 46 45 47 50 48 57 55 49 45 43 58 65 61 57 56 53 38 32 33 40 53 45 54 64 67 67 68 61 59 57
51 43 44 44 48 46 41 23 28 36 44 40 43 41 42 44 44 43 42 48 54 58 47 46 48 62 66 66 64 56 49 58 45 43 40 45 52 59 61 60 61 58 58 56 57
46 42 41 48 48 46 36 30 34 44 44 43 34 41 34 39 39 39 40 49 50 57 55 49 43 59 63 66 65 56 60 46 42 34 33 43 46 50 57 57 57 57 55 56 55
41 37 44 48 51 40 30 31 38 47 47 40 37 36 38 38 39 39 41 48 50 48 51 50 46 50 58 55 55 51 52 48 51 46 36 35 43 55 60 59 58 58 57 56 57
36 31 44 50 37 35 32 38 43 42 46 42 42 41 40 42 40 39 39 45 52 50 43 46 45 42 50 57 65 61 56 54 45 41 46 42 48 60 60 62 62 60 60 57 59
35 33 44 44 29 31 35 38 41 40 41 41 40 43 45 40 35 42 43 51 52 49 43 45 40 41 42 50 54 56 57 60 50 45 42 46 49 60 59 60 62 58 58 59 58
36 30 33 39 37 34 32 33 34 45 42 42 41 42 41 39 43 38 42 49 53 51 53 48 38 43 42 47 53 50 57 57 56 48 49 49 49 54 56 58 59 59 59 59 60
34 30 35 27 29 31 34 34 34 33 41 43 39 40 40 32 36 39 44 46 51 51 47 40 33 42 49 57 56 54 56 59 55 58 51 55 54 57 58 59 62 61 58 59 60
36 35 39 35 33 32 32 34 34 37 35 36 37 39 40 35 38 34 40 42 41 46 44 39 33 40 44 55 57 54 55 59 60 59 57 56 55 61 65 65 61 62 62 62 62
39 44 39 37 30 27 30 35 35 38 41 43 41 39 37 43 46 48 47 47 46 43 41 37 35 35 35 52 52 46 55 56 57 62 62 53 57 59 60 63 62 60 64 64 65

GFSSW_sfc_temp_018.txt.gz
Temp
60 60 60 60 60 59 60 60 60 60 60 60 61 60 60 60 59 58 61 72 72 71 74 73 74 75 72 67 68 65 51 48 54 55 60 64 63 70 77 73 73 76 74 75 71
59 59 59 59 59 59 59 59 59 60 60 60 60 60 60 60 52 54 71 73 72 73 74 72 69 71 62 63 65 60 50 54 64 63 63 63 63 68 68 70 70 73 77 76 71
59 59 59 59 59 59 59 59 59 59 60 60 60 60 60 58 52 61 74 73 75 74 76 76 75 68 59 61 63 59 58 66 67 69 64 65 66 69 67 66 72 70 76 72 68
59 59 59 59 58 58 58 58 59 59 59 59 59 59 60 52 49 67 74 74 73 74 74 72 70 61 57 57 65 54 63 69 70 72 66 66 69 68 71 71 77 77 76 72 68
58 58 58 58 58 58 58 58 58 58 58 58 59 59 56 46 51 72 74 74 73 71 69 69 66 64 56 59 65 58 64 67 68 66 67 70 66 68 70 77 79 77 74 72 68
57 58 58 58 58 58 58 57 57 57 57 58 59 59 51 40 63 68 66 69 72 68 67 67 66 68 60 61 59 61 64 65 65 66 70 67 67 68 73 79 76 74 74 71 68
57 57 57 57 57 58 58 57 57 57 57 58 59 58 49 46 63 65 62 60 66 70 67 71 73 68 61 56 63 61 56 60 63 66 66 71 62 65 75 75 70 73 74 72 69
57 56 57 57 57 57 57 57 56 57 58 59 59 55 43 60 61 59 61 59 65 68 67 73 75 66 58 59 59 56 54 49 62 67 68 66 55 68 74 69 69 72 72 70 69
57 56 56 56 57 57 56 56 57 58 58 59 53 51 41 61 56 60 61 58 68 67 67 76 71 60 58 55 51 48 48 50 56 66 65 62 55 67 69 67 67 70 71 71 71
57 56 56 56 56 56 55 56 56 56 56 59 57 44 48 52 61 65 62 62 64 63 61 61 59 52 50 47 43 45 45 50 52 62 63 57 58 65 69 67 67 67 68 67 68
56 56 56 56 56 55 53 45 45 43 46 43 45 45 52 62 65 63 65 59 62 58 49 55 50 48 54 57 56 54 52 52 55 63 59 56 56 61 67 64 64 65 66 67 64
56 56 56 55 55 55 51 39 47 46 38 50 49 50 55 58 51 58 66 56 53 51 56 52 48 57 60 58 56 54 52 50 56 63 59 56 56 61 65 64 64 67 68 66 61
55 55 55 55 54 47 41 45 52 52 37 44 50 49 50 53 47 52 59 58 52 49 53 50 56 63 58 55 53 52 51 52 53 58 57 54 53 58 65 64 65 65 65 64 62
54 54 55 54 47 43 43 49 49 51 32 39 43 49 53 53 47 59 64 59 54 49 53 52 61 58 56 53 56 49 58 58 56 49 41 53 38 53 58 61 63 66 64 65 60
54 55 54 54 47 47 47 47 48 45 20 47 49 61 56 49 54 54 64 60 52 51 52 49 54 55 53 56 59 54 62 58 56 48 43 47 41 49 54 56 60 64 66 63 58
54 55 55 52 48 48 48 47 44 30 22 42 51 49 48 49 52 58 54 60 61 53 54 53 61 61 58 63 63 64 57 53 49 44 37 47 44 45 50 59 61 63 63 58 55
54 54 52 53 44 45 45 41 29 22 44 40 40 48 48 45 47 49 49 46 46 42 43 50 52 57 64 54 59 59 47 34 31 32 32 49 44 51 56 60 63 64 63 56 54
53 52 49 52 46 48 45 35 22 35 36 46 43 45 40 45 43 45 44 42 50 48 45 41 38 54 61 57 53 55 50 36 30 30 38 49 40 49 62 67 65 65 61 55 53
51 43 41 43 47 49 38 26 26 33 41 38 41 38 40 44 43 41 40 41 48 51 41 42 43 58 63 64 63 52 47 51 41 42 38 41 49 57 61 63 62 58 57 53 52
45 42 40 49 48 44 35 29 32 41 43 41 31 38 34 38 38 38 37 45 44 49 47 47 40 55 60 63 64 57 58 44 43 34 31 40 44 48 56 61 58 55 54 52 52
37 34 43 46 49 40 29 31 36 45 45 38 35 34 37 37 40 37 36 40 45 47 49 44 43 46 56 53 50 47 49 44 47 39 33 33 41 52 58 60 59 56 54 52 54
37 26 43 49 33 35 31 35 42 41 45 42 40 38 36 40 37 38 37 41 48 45 39 43 37 39 47 55 63 59 52 51 45 39 41 41 43 58 59 60 58 59 56 53 55
36 34 43 46 28 29 36 36 40 39 40 39 38 40 41 38 33 40 42 44 47 42 40 43 36 34 39 47 53 54 54 52 44 43 42 38 41 60 57 60 58 57 55 55 55
37 28 32 38 35 33 30 31 33 43 40 41 38 41 37 37 41 35 40 47 49 47 49 47 35 34 36 42 47 49 54 57 47 38 41 50 48 57 57 58 56 56 54 54 56
33 29 33 26 28 32 29 32 31 32 39 39 36 37 34 32 35 34 40 44 48 48 44 40 30 37 40 45 47 50 53 54 51 53 46 50 51 56 58 57 57 56 55 56 56
33 32 40 35 33 29 31 30 31 35 38 34 33 37 37 34 36 33 35 38 40 43 39 40 30 36 36 47 48 47 51 55 56 55 55 51 52 60 61 59 58 59 58 58 59
36 39 39 36 31 31 33 32 34 36 39 40 38 36 34 38 42 43 43 45 42 38 39 36 32 32 30 41 44 41 50 51 53 58 55 50 60 56 56 60 58 58 60 61 61

GFSSW_sfc_temp_021.txt.gz
Temp
60 60 59 59 59 60 60 59 60 60 60 61 61 61 60 60 60 65 67 74 74 72 74 77 76 79 80 77 78 75 68 64 66 67 74 78 78 81 85 82 84 87 87 89 85
60 59 60 60 59 59 59 59 59 60 60 60 60 60 60 60 58 59 72 72 73 73 79 76 73 76 74 74 75 72 66 68 76 77 75 76 77 78 78 79 80 84 88 88 85
59 60 60 59 59 59 59 58 58 59 60 60 59 60 60 61 59 69 74 71 72 74 84 82 81 76 71 73 73 72 66 74 77 78 77 77 77 81 77 75 82 80 83 87 88
58 59 59 59 59 59 59 58 59 59 59 59 59 59 60 58 57 73 72 72 73 76 77 77 77 70 70 67 73 66 72 75 77 79 77 75 79 75 77 78 84 85 85 85 85
58 58 58 58 58 58 58 59 58 59 58 58 59 59 58 50 59 75 70 71 78 73 72 73 72 72 68 70 73 67 72 75 76 77 77 77 73 73 75 82 86 86 84 83 85
57 57 58 58 58 58 57 57 57 57 58 58 58 59 52 41 67 70 69 69 75 75 71 73 73 76 72 71 70 75 72 73 76 75 76 72 73 75 77 82 82 82 83 85 85
57 57 57 57 58 58 57 57 56 57 58 59 59 58 50 48 66 69 68 65 67 69 71 75 76 71 72 68 75 72 66 70 70 72 71 75 68 70 79 82 79 80 82 84 85
57 57 57 57 57 57 58 57 56 57 58 59 59 56 46 63 67 63 65 63 67 69 68 76 78 73 69 71 68 66 66 61 72 72 73 71 63 77 81 79 78 79 80 81 83
57 56 56 57 57 57 57 56 57 58 59 59 55 51 45 64 58 65 65 60 68 68 70 75 74 68 67 62 59 61 59 58 64 71 71 69 67 77 79 76 75 77 79 81 82
57 56 56 56 56 56 55 55 57 58 59 60 59 47 55 57 62 66 68 64 62 66 64 65 66 62 63 60 50 55 53 59 60 69 71 69 67 74 75 76 75 77 79 79 79
56 56 56 56 56 55 54 53 53 50 52 49 50 50 55 64 68 65 67 60 60 62 57 62 57 54 60 61 63 64 60 59 65 70 67 67 67 70 74 76 75 75 76 77 77
56 56 56 56 55 54 54 49 48 49 41 53 51 53 58 62 51 61 68 57 54 52 60 57 53 63 66 64 60 60 59 59 65 68 66 66 65 70 72 73 75 76 76 77 78
55 55 55 55 55 52 49 49 56 54 40 47 53 51 53 56 49 53 62 59 54 52 56 55 61 65 61 61 57 58 56 58 59 65 66 63 61 66 73 74 76 77 78 77 77
55 55 55 55 51 51 49 55 56 53 35 43 47 53 55 56 48 60 64 62 57 52 56 58 66 63 60 58 60 53 63 62 60 57 53 64 51 63 68 69 73 76 77 78 78
54 55 55 55 49 48 53 55 57 51 25 50 49 64 60 53 56 59 64 60 53 55 57 54 58 59 57 59 62 58 65 61 60 57 56 57 52 59 67 64 70 75 77 78 73
54 55 54 53 52 55 57 54 52 34 24 44 52 50 52 54 54 58 57 62 63 56 59 60 67 65 64 65 64 65 63 62 61 58 46 55 54 55 63 66 71 77 79 72 68
54 54 52 54 48 53 54 50 32 25 46 41 42 48 49 47 47 49 49 48 48 44 46 55 58 64 67 61 65 63 57 47 44 44 44 59 53 55 68 71 72 75 79 71 68
53 51 50 54 54 53 49 39 24 36 38 47 44 47 44 46 40 45 45 43 52 52 51 46 44 58 65 62 58 58 57 50 39 42 50 57 50 56 70 75 76 77 77 71 67
51 51 50 52 52 51 41 28 32 36 41 40 43 40 41 45 43 43 39 37 48 54 44 48 49 63 65 68 65 57 54 63 54 53 52 54 56 62 70 71 72 74 71 68 67
47 46 48 51 51 47 37 31 34 43 44 43 33 40 35 39 40 41 36 39 37 46 49 50 45 60 63 68 68 62 65 50 55 44 41 50 51 59 65 69 73 72 69 66 66
44 42 50 54 48 39 31 33 38 46 46 39 37 37 39 38 41 39 38 42 39 42 47 50 49 54 62 58 58 59 57 59 59 56 47 46 54 67 70 72 73 74 69 66 66
43 38 50 52 37 36 33 37 40 43 47 43 43 39 38 39 38 39 38 42 45 42 36 46 45 47 54 65 69 65 60 59 52 47 55 53 55 68 70 72 73 72 68 68 69
39 37 50 49 31 33 38 39 41 41 41 41 39 43 44 39 35 41 43 50 49 43 37 41 44 44 48 56 63 59 62 61 61 59 51 51 56 70 69 71 71 71 68 67 68
41 33 41 42 41 35 34 36 36 45 41 40 41 44 41 40 44 38 39 47 50 48 46 44 41 42 46 50 55 54 58 61 58 53 54 55 60 69 71 73 70 69 68 68 68
39 36 38 32 36 36 36 36 34 35 42 44 40 40 36 34 38 34 36 39 46 46 46 43 37 42 45 47 49 52 58 59 55 58 53 56 59 67 71 74 73 70 68 67 68
37 38 42 36 38 36 36 36 35 38 38 38 37 41 40 35 37 34 37 37 36 44 42 44 39 42 45 51 52 50 56 60 60 61 61 62 61 72 75 73 70 68 68 69 70
41 42 40 38 36 33 35 34 35 37 42 43 41 38 37 42 45 45 46 46 44 39 40 41 40 40 43 48 50 47 55 57 60 63 63 57 65 71 70 71 71 70 70 71 72

GFSSW_sfc_temp_024.txt.gz
Temp
61 61 60 60 60 59 59 59 59 60 61 61 61 61 61 61 61 76 74 79 80 71 72 86 86 87 88 86 89 90 77 74 78 79 81 88 87 90 92 90 93 94 93 97 99
60 60 60 60 60 60 59 59 59 59 60 61 60 60 60 60 67 71 79 73 73 73 85 84 81 84 83 84 85 81 76 78 86 87 86 89 86 88 85 86 88 92 97 97 97
59 59 60 60 60 59 59 59 59 59 60 59 59 60 60 63 68 79 72 73 71 74 86 89 89 85 81 85 83 82 75 85 87 89 90 87 86 92 86 82 88 88 92 96 96
59 59 59 59 59 59 58 59 59 60 60 59 59 59 60 67 64 78 71 71 73 80 82 84 82 79 78 78 84 77 83 84 86 89 87 83 88 85 87 87 92 93 94 94 93
58 58 58 58 59 59 58 58 58 59 59 59 59 59 63 61 68 84 73 76 83 80 80 82 79 79 76 81 82 79 82 84 86 85 86 86 83 84 86 90 93 93 93 93 93
58 58 58 58 58 58 58 58 58 57 58 58 59 58 61 52 78 80 78 78 80 82 79 83 81 84 81 81 80 84 84 84 85 85 86 82 83 85 86 88 89 90 91 94 94
57 57 57 57 58 58 58 57 57 57 58 59 60 60 54 59 77 79 78 77 77 79 79 83 86 79 81 76 84 83 76 81 81 83 82 85 77 78 88 88 87 89 91 93 94
57 57 57 57 57 58 58 57 57 57 58 59 60 59 53 74 78 74 77 75 77 77 77 82 85 80 79 81 77 74 75 68 79 80 81 80 70 83 90 89 87 88 90 90 91
57 57 57 57 57 57 57 56 57 58 59 60 60 58 57 68 65 73 75 69 76 77 77 81 80 75 76 69 67 71 64 68 72 83 80 78 72 83 90 87 85 86 87 89 90
57 56 56 56 57 56 55 55 59 58 63 67 66 54 63 63 70 71 78 73 68 72 69 70 72 68 70 68 58 63 66 68 70 79 77 75 74 82 87 86 84 85 87 88 89
57 56 56 56 56 56 58 67 62 60 61 59 61 59 65 73 74 70 74 68 67 66 60 67 62 61 66 69 71 71 70 69 74 80 76 73 74 80 85 84 82 84 86 87 87
56 56 56 56 56 55 62 59 55 57 47 61 62 62 66 69 57 65 74 62 61 57 64 64 59 70 73 73 69 68 66 68 74 78 75 73 72 79 82 83 83 84 85 87 88
55 55 55 55 55 58 60 57 65 62 47 56 63 61 63 65 57 60 68 65 61 58 62 61 65 72 71 69 67 67 64 66 67 73 75 70 67 71 79 83 85 86 87 87 88
55 55 55 55 55 62 59 63 66 63 41 52 55 60 63 62 54 68 70 66 62 57 61 62 72 70 68 67 70 62 71 68 66 64 58 71 57 68 75 77 81 83 85 87 90
55 55 55 54 57 57 61 65 65 59 31 55 56 71 66 59 61 62 72 65 57 60 62 59 63 65 65 67 72 66 73 68 67 63 62 64 60 66 74 71 76 81 85 88 90
55 55 54 61 60 61 66 64 59 36 30 49 58 55 57 60 59 62 62 67 66 59 63 62 73 70 70 73 73 74 70 67 68 64 53 61 61 62 68 72 77 83 86 89 85
54 54 56 62 53 62 64 57 38 33 52 46 47 53 54 53 53 55 53 54 52 47 49 59 62 69 72 68 73 70 63 54 51 52 51 65 61 64 73 78 79 82 85 84 82
53 52 53 64 62 59 58 43 30 43 43 53 50 51 48 54 51 50 50 46 56 57 55 49 48 62 71 68 65 65 64 59 46 50 57 66 57 66 77 81 83 85 86 84 82
51 64 64 61 59 62 49 34 38 42 47 44 47 44 47 51 50 50 48 42 42 55 49 52 52 69 70 72 73 65 61 72 62 62 59 64 67 73 77 78 81 83 84 83 80
58 61 58 61 62 55 39 36 42 48 49 48 37 45 40 46 46 48 46 42 40 47 55 53 47 65 67 73 74 70 73 60 63 49 48 61 61 65 72 75 80 81 83 82 79
58 55 59 62 60 45 35 39 46 52 50 44 42 41 43 44 46 46 44 43 41 43 52 54 51 58 66 63 64 67 64 66 67 64 54 53 61 72 74 80 80 84 85 80 78
56 47 61 61 42 44 37 44 46 48 52 46 48 43 42 44 44 45 44 48 47 46 39 55 52 49 58 70 74 72 67 66 59 55 62 62 61 78 79 82 83 83 81 80 81
52 53 62 57 35 38 44 47 49 47 47 44 42 47 49 44 38 45 46 48 49 46 39 46 49 46 51 63 68 66 68 68 68 68 58 58 62 78 79 80 82 80 79 79 80
51 41 54 55 49 40 39 43 43 51 48 48 46 49 45 44 48 43 41 44 48 46 46 45 46 50 48 57 64 61 65 68 65 60 62 62 66 75 78 79 79 80 79 79 80
52 44 46 39 42 41 42 42 39 39 48 51 45 45 43 38 43 35 41 45 46 45 44 42 44 52 54 55 56 60 65 66 63 65 61 66 65 74 80 79 80 81 80 79 80
43 42 46 42 44 41 42 41 41 42 43 42 44 46 46 42 43 41 43 41 34 40 40 44 42 52 50 56 57 56 63 67 66 67 67 68 66 79 82 84 81 79 80 80 80
49 50 41 42 41 38 40 40 37 38 44 48 45 43 43 47 51 52 53 51 47 43 41 42 40 47 46 57 56 51 60 65 67 69 68 62 70 78 77 78 80 80 80 81 82

GFSSW_sfc_temp_027.txt.gz
Temp
60 60 60 60 60 60 60 60 60 60 60 60 61 61 60 60 61 77 75 85 85 73 72 91 89 90 90 88 91 93 78 76 80 81 86 96 91 99 98 95 96 98 97 101 104
60 60 60 60 60 59 59 60 60 60 60 60 60 60 60 60 68 75 82 75 74 74 85 86 84 88 85 85 88 84 77 79 89 90 88 94 93 94 91 91 91 94 101 103 103
59 59 59 59 59 59 59 59 59 59 60 60 60 60 59 63 71 82 72 74 73 76 87 91 91 88 82 86 86 85 77 86 89 93 93 92 93 96 91 87 93 92 96 100 100
59 59 59 59 59 59 59 59 59 59 60 59 59 60 60 68 66 80 72 73 73 81 83 82 85 82 80 79 87 80 86 87 90 92 92 90 94 91 92 92 97 97 98 98 97
59 59 58 59 59 58 59 59 59 59 59 59 59 60 64 66 71 84 75 77 86 87 81 80 80 81 79 83 85 83 86 89 91 91 91 92 88 89 90 95 99 98 97 95 96
58 58 58 58 58 58 58 58 58 58 58 58 59 59 62 56 85 88 87 85 85 86 85 85 84 88 84 83 83 87 88 88 90 90 90 86 87 89 90 95 95 95 94 96 97
57 58 58 58 58 58 58 58 57 57 58 59 60 64 61 63 83 86 84 83 86 85 80 88 89 86 86 81 88 87 80 84 86 88 87 90 81 83 92 94 92 93 94 95 97
57 57 57 57 58 58 58 57 57 58 58 59 60 64 55 79 85 82 84 81 85 84 82 86 90 85 83 86 84 79 79 71 81 85 87 85 73 85 92 92 90 93 94 95 95
57 57 57 57 57 58 57 56 57 59 59 61 62 62 59 76 72 79 80 76 80 83 83 83 82 78 80 74 71 74 67 70 75 85 85 83 76 85 91 90 88 90 93 93 94
57 56 56 57 57 57 56 55 62 61 63 71 71 60 68 67 77 76 81 78 74 75 75 73 73 70 73 71 60 65 67 70 71 81 83 80 79 85 89 89 87 89 91 91 91
57 56 56 56 56 56 58 71 67 63 67 63 65 63 69 77 80 76 79 74 73 70 63 70 64 61 67 71 74 74 72 71 76 83 79 77 78 84 87 87 87 88 90 90 89
56 56 56 56 56 56 61 64 64 63 52 66 67 68 72 75 65 71 78 67 65 59 66 66 59 70 74 75 73 71 69 70 76 82 78 77 77 82 85 85 86 87 88 89 90
55 55 56 56 55 59 67 66 72 70 52 59 68 68 70 73 64 65 73 68 63 61 63 60 66 73 72 71 69 70 68 68 70 77 80 76 73 76 83 85 86 87 88 90 90
55 55 55 55 56 69 66 70 73 70 46 56 61 66 68 69 61 73 75 69 65 59 64 64 71 70 68 68 72 64 75 74 71 69 62 76 61 72 78 80 83 85 87 89 91
55 55 55 55 61 63 67 73 72 62 32 59 61 75 71 64 65 66 76 68 59 61 63 59 65 65 65 68 74 70 77 74 73 68 67 68 64 69 77 75 79 84 87 89 91
55 55 54 66 65 68 72 71 65 39 32 53 60 51 59 63 64 68 66 71 69 62 64 64 74 72 70 74 76 77 74 74 73 69 57 65 65 66 71 76 80 85 87 89 92
54 54 57 67 62 72 70 59 36 33 54 49 49 56 52 55 59 61 58 55 54 50 50 59 62 71 74 68 74 74 67 57 54 55 54 69 65 68 77 82 83 84 86 90 93
53 52 57 68 66 68 62 41 31 45 47 56 55 55 50 56 57 53 55 52 60 56 48 51 48 63 71 69 67 68 67 59 47 52 58 70 60 69 83 86 87 88 89 90 87
51 67 64 68 68 65 47 35 36 46 52 48 51 45 47 55 55 54 54 54 54 53 38 49 53 68 70 73 72 67 64 73 64 69 64 70 73 79 82 83 84 86 86 85 86
62 66 65 69 68 59 44 39 46 55 54 52 41 44 41 48 45 50 50 51 50 53 48 49 43 64 70 73 73 70 76 61 66 52 53 64 67 68 76 80 83 83 85 85 85
59 60 66 70 66 51 38 44 52 57 56 46 44 44 46 46 49 48 49 54 52 51 54 52 42 52 66 64 63 66 67 68 68 67 58 56 64 80 78 81 82 85 86 86 84
62 52 68 69 44 49 41 51 52 56 58 53 50 48 46 47 44 47 49 51 54 54 49 57 48 43 54 70 74 72 69 68 64 58 67 66 64 83 82 85 86 87 87 87 86
58 62 68 64 38 41 49 52 55 54 53 51 46 51 52 46 38 48 48 46 49 47 45 49 48 41 43 59 69 67 71 72 69 69 62 62 65 83 82 84 88 86 87 85 85
59 45 60 63 53 44 43 46 47 56 54 55 52 53 41 45 51 44 44 47 46 47 49 44 45 47 38 52 65 62 68 72 69 63 65 67 70 77 79 81 84 83 83 85 85
59 49 52 43 45 43 45 45 44 45 53 55 51 50 47 42 46 40 44 49 49 48 44 41 41 50 50 48 56 66 68 70 68 69 66 70 71 77 81 83 83 83 84 83 84
47 49 55 49 49 46 45 43 44 46 46 46 45 50 50 46 47 42 45 45 37 42 42 42 40 51 47 46 54 59 68 70 71 71 72 75 72 83 85 87 84 84 84 83 84
60 55 45 45 48 44 45 45 43 47 50 52 49 47 45 49 52 55 56 54 52 47 45 40 41 49 40 46 47 54 65 69 71 74 73 67 72 81 81 82 83 85 85 84 85

GFSSW_sfc_temp_030.txt.gz
Temp
60 60 60 60 60 60 60 60 60 60 60 61 61 61 60 60 60 70 67 80 83 73 72 90 86 88 89 85 88 88 71 69 73 77 81 91 89 97 99 94 97 97 96 99 103
60 60 60 60 60 60 60 60 60 60 60 60 60 60 60 60 61 67 78 77 77 74 84 84 84 85 81 81 82 78 71 73 83 85 85 90 90 92 90 90 91 93 99 102 103
60 60 60 60 60 59 59 59 59 60 60 60 60 60 60 62 66 78 72 75 74 77 87 89 88 86 79 83 81 80 72 80 84 88 90 88 89 93 88 86 89 88 94 99 99
59 59 59 59 59 59 59 59 59 60 60 59 59 60 60 63 62 79 74 74 74 84 84 81 80 77 76 75 83 74 81 83 85 88 88 86 90 87 89 90 96 97 98 98 96
58 58 58 58 58 58 58 58 59 59 59 59 59 60 62 63 67 87 74 77 85 82 78 76 74 75 72 78 80 78 80 84 87 88 88 90 87 87 88 94 98 98 97 95 95
58 58 58 58 58 58 58 58 57 58 58 59 59 59 58 51 81 88 88 86 86 84 82 81 77 80 77 78 77 82 82 83 87 87 89 86 87 88 90 94 94 94 94 96 96
58 58 58 58 58 58 58 57 57 57 58 59 60 62 57 58 79 82 82 82 85 84 80 86 87 80 80 75 84 82 77 82 84 86 85 88 80 82 90 93 91 92 93 95 95
57 57 57 57 58 58 58 57 57 58 59 60 60 61 53 76 81 79 81 79 83 84 82 85 86 80 79 82 79 75 76 69 80 83 85 83 71 84 91 90 88 91 92 93 94
57 57 57 57 57 57 57 56 57 58 60 61 60 60 57 78 72 77 80 75 80 82 82 84 80 73 76 70 67 71 64 67 72 83 82 81 73 84 90 88 86 88 89 91 92
57 56 56 56 57 56 56 56 60 61 65 70 68 59 66 66 76 79 83 79 74 74 73 73 71 65 67 66 56 61 63 67 68 78 81 77 77 83 88 88 86 88 89 89 90
57 56 56 56 56 56 57 64 67 62 64 61 65 62 68 76 80 76 80 76 74 69 60 68 61 57 62 67 70 70 68 67 74 81 77 75 76 80 86 87 86 86 87 86 88
56 56 56 56 56 56 59 62 66 66 54 66 66 67 71 74 65 71 79 67 65 58 64 61 57 66 69 70 68 67 66 67 74 79 77 76 75 81 84 85 86 86 86 86 87
55 55 56 55 55 59 65 68 75 72 54 58 65 65 67 72 64 66 72 68 62 58 60 56 62 69 68 66 65 66 65 66 67 74 77 74 70 75 83 85 87 88 88 88 86
55 55 55 55 56 67 66 73 76 72 44 55 62 67 71 71 63 75 76 68 63 56 60 61 68 65 65 63 67 61 72 71 69 66 60 74 58 70 77 79 83 85 86 86 87
54 55 54 54 60 64 68 74 74 65 30 60 60 76 69 63 66 67 76 69 58 59 60 56 61 62 61 65 69 65 73 70 70 66 65 66 61 67 76 74 79 83 86 87 88
54 55 54 65 63 70 74 72 64 37 27 48 56 55 57 59 59 63 67 71 70 61 61 60 69 66 66 70 71 74 69 69 69 67 56 64 63 63 69 74 79 83 86 88 89
54 54 54 65 62 72 72 62 36 29 49 46 52 57 56 54 56 57 58 57 51 44 49 57 59 66 69 63 70 68 63 52 51 53 51 67 63 65 74 80 82 82 85 88 89
53 52 61 70 73 71 64 45 29 36 46 57 55 56 51 56 56 58 54 51 59 56 48 42 42 59 67 63 62 64 62 55 43 48 55 67 58 66 79 84 86 87 87 88 88
51 67 66 71 72 68 54 36 31 42 53 51 53 44 43 49 49 53 53 52 57 56 43 42 45 63 63 68 67 62 58 68 60 63 58 64 69 75 80 82 84 85 85 85 82
57 63 67 72 71 60 45 40 47 57 56 55 43 46 39 46 44 45 46 51 53 56 56 49 39 55 60 69 68 65 71 57 61 47 47 59 62 67 74 77 82 82 82 81 81
59 59 68 73 68 54 38 45 53 60 59 51 47 44 44 44 46 44 45 49 55 56 58 54 46 46 56 57 58 61 61 64 65 62 53 52 61 79 75 81 81 81 84 81 81
61 53 70 73 47 47 43 51 53 55 61 56 54 50 45 44 44 46 46 49 57 56 48 54 45 41 48 61 67 67 63 63 57 54 62 61 62 82 82 84 85 85 85 83 82
57 61 69 67 40 43 50 52 56 54 54 52 51 54 52 45 35 37 41 49 54 51 47 46 43 38 42 53 60 56 65 66 65 65 58 57 62 82 83 83 86 84 85 82 82
57 48 59 61 58 47 46 46 46 56 53 55 53 54 48 42 49 44 37 46 53 51 52 47 41 41 35 45 45 48 58 66 64 58 61 64 67 75 78 81 83 83 82 83 81
58 50 57 45 47 50 49 47 45 46 54 54 48 51 48 42 46 43 47 49 52 49 49 42 33 41 45 47 43 43 49 63 64 67 60 65 69 75 78 80 80 82 82 81 81
51 51 55 47 53 51 47 46 45 49 47 46 45 48 49 43 44 42 47 48 45 49 41 43 35 42 41 49 44 39 49 57 68 69 69 69 72 80 81 82 79 79 81 80 81
56 58 50 45 50 47 44 45 45 48 51 52 50 45 45 48 51 53 54 52 52 49 46 43 38 36 37 47 41 40 52 57 68 73 72 66 72 79 78 80 80 80 82 81 82

GFSSW_sfc_temp_033.txt.gz
Temp
60 60 60 60 60 60 60 60 60 60 60 60 60 60 60 60 60 59 58 70 73 73 72 84 80 81 81 75 78 80 58 56 62 66 71 83 81 91 93 89 89 90 88 89 92
60 60 60 60 60 60 59 59 60 60 60 60 60 60 60 60 54 55 68 74 75 74 77 77 75 78 72 73 76 70 59 62 73 75 75 81 83 85 85 84 84 86 91 93 93
59 59 59 59 60 59 59 59 59 60 60 60 60 59 59 59 54 66 74 73 74 75 80 80 79 77 68 72 73 71 62 71 74 78 81 80 81 87 82 79 82 82 87 93 91
59 59 59 59 59 59 59 59 59 59 59 59 59 59 60 55 49 70 74 73 73 77 78 75 71 64 62 65 73 65 72 74 76 80 79 78 84 81 82 80 87 89 90 89 87
58 59 59 58 58 58 58 58 58 59 59 59 59 59 55 50 53 75 75 76 79 78 74 71 66 62 59 64 71 68 72 76 79 80 80 82 80 80 81 88 90 91 91 84 84
58 58 58 58 58 58 58 57 57 57 58 59 59 59 51 39 67 75 79 78 79 74 73 71 67 70 64 65 65 72 73 75 77 77 79 78 79 81 83 88 87 88 85 84 84
57 57 57 57 57 57 57 57 57 57 58 59 60 59 49 47 68 71 69 68 72 74 73 76 75 71 69 64 72 71 66 71 74 77 75 80 73 76 84 85 84 84 86 87 84
57 57 57 57 57 57 57 57 57 57 59 60 61 55 44 66 67 64 66 67 73 76 74 76 76 68 64 68 69 64 65 57 69 74 77 76 64 76 82 81 79 84 86 84 82
57 57 57 57 57 57 57 56 57 58 60 60 55 50 46 71 64 70 70 67 71 74 74 80 72 63 64 56 53 59 52 56 62 74 74 72 66 77 82 81 80 82 84 84 84
57 56 56 56 57 56 55 56 58 60 61 65 63 51 58 61 73 76 74 73 70 68 67 66 61 56 55 52 44 50 53 58 58 68 71 69 68 76 80 80 79 81 82 82 83
57 56 56 56 56 55 53 52 57 52 54 55 57 56 62 71 76 72 77 73 70 63 51 57 50 47 52 56 58 61 59 58 63 70 68 67 68 73 77 74 75 74 74 75 75
56 56 56 55 55 55 51 49 59 58 48 60 61 61 66 68 59 65 73 61 59 51 56 52 46 57 61 61 59 58 55 55 64 70 68 67 66 73 76 76 78 79 78 74 73
55 55 55 55 55 52 55 62 69 64 44 53 60 60 61 64 57 59 67 62 56 52 52 48 53 63 60 58 56 56 54 56 56 64 68 65 60 65 72 75 78 76 75 75 75
54 54 55 54 53 57 58 67 67 62 35 47 55 61 66 63 55 69 71 64 57 50 53 51 59 59 57 56 59 51 62 62 61 57 50 62 48 61 68 70 74 78 73 75 75
54 55 54 53 50 53 62 67 62 55 23 51 55 67 67 59 60 62 71 65 53 53 53 48 53 53 53 56 62 55 65 62 61 56 54 57 48 59 64 63 66 69 75 73 73
54 55 54 58 51 58 65 65 55 34 24 42 57 56 56 59 60 62 61 66 64 55 55 53 62 58 56 62 64 65 61 59 58 53 44 54 53 55 60 65 66 72 73 75 75
54 54 52 59 52 64 63 53 34 27 46 44 48 53 52 48 52 54 52 49 41 38 42 51 53 59 62 54 60 58 51 39 38 39 40 57 52 58 62 68 71 72 73 74 74
53 52 54 62 64 61 55 39 25 39 41 54 52 51 45 49 49 49 49 46 50 47 40 39 37 52 61 55 50 51 50 42 31 36 43 57 48 53 69 75 76 79 75 71 69
52 55 55 60 64 58 44 28 27 40 49 48 49 43 42 48 46 41 44 44 48 50 36 36 40 57 58 58 57 51 46 56 47 50 43 50 56 66 71 72 73 73 72 68 69
47 50 55 64 62 52 38 35 42 53 51 49 40 45 38 41 41 38 39 50 48 54 50 45 34 51 55 59 58 53 58 43 48 35 34 47 51 53 64 68 72 69 66 68 69
46 47 58 64 59 45 30 38 46 55 54 49 44 42 43 39 40 40 41 47 50 49 47 45 39 42 50 48 46 48 49 50 47 48 40 38 47 65 66 71 68 67 70 69 69
49 42 60 61 40 40 34 46 50 52 54 51 47 47 43 43 40 40 38 42 45 48 42 47 37 33 40 52 57 53 48 52 42 41 50 46 49 69 72 68 69 71 71 71 72
43 49 59 57 34 35 45 49 51 50 47 45 46 48 47 42 35 39 39 48 49 46 42 42 34 28 35 47 53 48 52 53 52 50 47 44 50 70 72 72 73 70 72 72 72
45 39 49 50 48 42 42 43 42 53 51 51 48 48 44 41 45 41 38 46 46 48 51 44 36 34 29 36 41 38 43 47 45 44 48 52 56 66 69 69 67 72 72 72 72
46 42 46 35 39 42 44 40 38 41 50 50 45 45 41 35 39 37 43 46 52 52 44 42 33 37 39 42 45 41 42 45 41 43 46 55 57 64 68 65 71 72 73 72 72
43 42 46 42 44 43 42 38 37 40 43 42 41 44 44 36 39 37 40 41 38 44 40 40 34 37 36 43 45 41 45 46 45 46 47 56 59 69 66 72 72 73 73 72 73
50 49 44 41 41 39 40 43 39 41 46 48 46 43 40 42 46 47 48 47 45 42 40 38 36 34 32 44 42 34 43 46 47 51 51 50 64 65 63 66 64 69 74 73 75

GFSSW_sfc_temp_036.txt.gz
Temp
60 60 60 60 60 60 60 59 59 60 60 60 60 60 60 60 59 56 53 67 68 71 72 77 74 75 74 70 74 73 52 50 56 62 67 76 73 84 89 85 85 87 85 87 87
59 60 60 60 59 59 59 59 59 59 59 60 60 60 60 59 53 50 65 70 71 73 73 73 72 75 66 68 69 63 56 57 66 70 68 74 75 79 80 80 82 85 86 89 91
59 59 59 59 59 59 59 59 59 59 59 59 59 59 59 58 49 59 73 70 71 73 75 76 75 73 63 68 66 63 60 67 70 72 75 74 75 80 78 74 79 79 83 87 86
58 59 59 58 58 58 58 58 59 59 59 59 59 59 59 53 45 66 74 74 73 72 71 70 68 63 58 60 70 61 69 70 71 75 75 72 78 75 77 78 83 84 85 86 85
58 58 58 58 58 58 58 58 58 58 58 58 59 59 54 44 46 69 72 73 75 71 66 66 64 61 56 60 65 63 66 70 72 73 73 76 73 74 76 82 86 85 85 82 81
57 58 58 58 58 58 57 57 57 57 57 58 59 60 51 38 60 66 68 69 69 67 68 67 65 66 61 59 60 63 65 67 71 71 73 72 73 76 78 84 84 85 81 83 81
57 57 57 57 57 57 57 57 56 57 58 58 59 59 49 45 62 64 62 60 64 66 64 71 71 66 62 59 65 65 58 65 67 68 69 74 68 70 80 83 81 82 82 81 79
58 57 57 57 57 57 57 57 56 57 58 60 60 56 45 61 62 58 59 60 65 67 67 71 71 64 60 63 63 57 56 52 64 68 70 70 59 73 80 78 75 77 82 84 84
57 56 56 57 57 57 56 56 57 59 60 60 52 49 42 64 59 63 63 60 66 69 68 76 67 60 59 52 47 51 48 51 57 68 68 67 62 72 76 77 73 74 78 80 83
57 56 56 56 56 56 55 55 57 59 60 63 61 47 53 58 68 70 68 67 63 63 62 60 55 52 48 46 41 45 48 53 53 63 67 64 64 71 75 76 75 77 79 80 81
56 56 55 55 55 55 53 47 53 49 52 49 54 53 57 64 68 66 70 67 64 58 48 52 45 44 50 53 54 54 52 52 57 64 63 62 63 67 71 71 69 73 75 77 78
55 55 55 55 55 55 48 47 56 55 44 58 57 58 62 64 54 60 68 56 54 46 51 47 43 52 57 56 53 52 49 49 55 62 61 60 61 67 71 72 73 74 75 72 70
55 55 55 55 54 52 51 55 61 57 41 50 57 58 59 60 53 55 61 57 51 47 47 44 49 58 55 53 51 51 48 50 50 58 62 58 55 59 67 69 71 71 72 72 71
54 55 55 54 52 50 52 61 58 56 33 44 53 60 64 60 53 64 65 58 51 46 49 46 54 54 52 50 53 45 57 56 54 51 44 58 43 55 64 66 70 71 69 69 74
54 55 55 53 45 46 57 57 56 51 25 51 53 69 66 57 60 62 71 60 49 49 49 45 48 48 49 51 56 50 59 55 55 50 46 51 42 54 59 60 65 69 69 75 77
54 54 54 51 46 51 56 56 51 31 21 41 54 53 52 55 57 60 61 61 58 50 52 51 57 54 52 57 57 59 54 53 53 45 38 48 45 50 55 60 62 66 68 71 72
54 54 51 54 47 55 54 47 30 22 46 41 44 49 49 48 50 50 48 44 40 35 37 47 49 55 58 50 54 50 40 32 30 32 36 51 46 52 56 61 65 67 70 72 71
53 52 50 55 51 54 48 37 24 36 39 48 45 46 42 46 46 46 44 41 49 44 38 36 34 49 57 51 46 44 42 33 27 28 37 51 42 50 64 71 73 74 70 71 69
51 44 47 54 55 51 40 26 25 39 43 43 39 40 40 45 44 41 41 41 48 42 35 37 38 54 55 55 51 44 40 47 38 44 36 43 52 61 67 69 71 70 67 64 60
43 42 46 57 56 47 34 33 39 48 50 47 32 41 35 38 38 39 39 47 43 48 46 42 32 48 53 55 53 48 51 37 35 29 30 39 43 47 57 62 63 64 63 60 60
42 42 52 57 53 39 26 33 44 53 51 44 39 38 39 38 38 38 40 45 45 45 45 40 35 39 46 45 42 42 40 42 40 38 35 31 41 55 60 61 63 66 62 62 62
40 37 54 56 36 33 29 42 49 48 51 47 45 43 39 40 38 38 37 41 48 45 38 42 34 30 37 48 53 49 43 41 33 35 39 42 44 64 62 67 67 65 64 64 65
39 39 53 52 35 29 38 44 47 44 45 45 43 45 44 39 33 39 39 48 49 45 41 41 31 25 29 40 47 44 46 44 41 42 40 36 43 65 63 65 66 63 65 65 65
39 34 40 40 39 34 35 37 39 49 46 47 44 44 39 37 40 36 39 46 49 47 50 45 34 30 24 34 41 36 42 43 41 31 40 44 48 58 63 64 64 65 66 65 65
38 34 39 29 34 36 38 40 37 37 44 45 42 42 39 33 35 33 40 42 47 48 45 39 30 34 36 39 40 40 41 43 40 41 35 43 43 52 57 66 67 66 66 66 65
35 35 38 36 37 35 37 37 37 39 40 39 37 42 41 36 36 32 37 37 36 41 38 37 31 36 34 40 40 38 44 45 44 46 44 44 44 58 62 65 65 67 67 66 66
40 44 41 40 35 35 35 38 38 43 44 46 43 40 38 41 45 44 46 44 42 38 36 37 34 33 30 38 38 33 42 43 47 49 47 40 49 58 59 60 57 56 67 67 68

GFSSW_sfc_temp_039.txt.gz
Temp
59 60 60 60 59 59 59 59 59 59 59 60 60 60 60 60 59 53 51 65 65 70 72 76 73 72 68 64 69 66 51 48 55 59 64 72 70 81 81 78 81 83 80 84 83
60 60 60 59 59 59 59 59 59 59 59 59 60 59 59 59 51 48 64 69 70 71 70 69 70 70 61 62 64 59 50 54 64 69 65 70 68 74 76 74 74 79 86 87 84
59 59 59 59 59 59 58 58 59 59 59 59 59 59 59 58 48 56 72 70 70 70 68 71 73 69 59 61 61 59 56 65 68 71 71 72 71 75 74 70 75 76 80 82 84
58 58 59 59 59 58 58 58 58 59 59 59 59 59 60 51 44 63 72 71 71 73 66 66 64 59 55 58 65 56 63 68 69 72 71 70 75 71 73 75 81 82 81 81 81
58 58 58 58 58 58 57 58 58 58 58 58 58 59 53 43 44 65 69 67 69 69 63 62 61 60 54 57 63 60 62 66 69 70 71 73 69 70 72 78 82 83 82 79 78
57 57 57 57 57 57 57 57 57 57 57 58 58 59 51 38 59 62 63 63 64 62 63 63 62 63 57 57 61 61 62 66 68 66 68 68 69 71 74 79 79 80 79 78 77
57 57 57 57 57 57 57 56 56 56 57 59 59 58 50 45 60 60 59 55 59 61 59 64 67 64 61 54 61 60 55 61 62 62 63 70 64 66 75 78 77 77 78 78 76
57 56 56 56 57 57 57 57 56 57 59 60 59 56 44 59 59 56 58 56 59 59 61 65 65 60 57 58 60 54 52 50 62 64 66 67 56 68 74 75 74 75 77 75 75
57 56 56 56 56 56 56 56 57 59 61 60 51 48 42 62 58 62 59 57 62 63 63 72 62 56 56 49 44 49 47 48 55 65 65 64 58 68 73 74 72 73 72 74 77
56 56 55 55 56 56 55 56 57 57 59 60 58 45 52 56 64 67 68 64 58 59 59 58 53 47 45 44 39 42 45 49 49 59 63 62 61 67 71 71 70 71 73 74 76
56 55 55 55 55 55 52 49 50 48 50 48 51 51 55 63 67 63 66 62 61 55 46 51 43 41 48 51 52 50 47 46 53 60 60 59 59 63 68 68 70 71 72 73 75
55 55 55 55 55 54 48 47 50 52 41 55 55 55 61 61 53 58 64 53 51 43 48 43 42 50 53 52 50 48 45 44 52 58 56 55 55 61 64 66 65 67 69 70 72
54 54 55 55 54 50 47 52 57 52 39 48 56 56 57 59 52 53 59 54 48 43 43 40 46 55 52 49 48 46 45 46 46 53 56 53 51 55 62 64 67 69 70 68 68
54 54 54 54 51 46 49 58 54 52 31 44 53 59 61 59 52 64 63 56 48 43 45 43 50 50 48 47 49 41 52 52 50 46 39 53 39 52 59 61 64 64 68 66 66
54 54 54 53 44 44 55 52 54 49 19 48 50 66 60 54 57 59 65 56 46 47 45 41 44 44 45 48 52 45 53 50 50 46 40 44 38 50 56 56 61 66 69 66 72
54 54 54 50 44 49 52 51 49 30 18 41 50 48 47 52 54 57 57 61 55 46 47 46 54 50 48 54 53 55 49 47 47 41 31 43 41 46 52 57 61 63 63 67 66
54 53 51 52 48 50 50 45 29 21 43 39 41 45 43 45 48 49 47 46 39 34 35 44 45 53 55 46 50 47 37 28 27 27 32 46 41 48 53 56 59 60 62 65 67
52 51 49 52 48 50 46 36 24 33 37 47 45 43 39 43 44 45 43 38 47 43 38 33 31 45 53 48 43 41 39 29 25 27 32 48 38 47 59 65 67 66 64 64 64
50 43 44 50 52 49 40 26 24 36 44 42 42 37 38 43 41 40 38 39 43 45 35 34 36 52 53 55 50 42 36 43 35 37 32 38 48 57 62 63 64 63 64 62 62
41 41 45 53 52 45 34 33 36 46 48 46 33 38 33 36 35 35 37 43 41 47 46 41 33 47 52 52 51 46 49 35 31 27 26 35 39 43 51 57 64 61 59 61 59
41 41 51 53 51 39 26 32 41 50 48 42 38 36 37 35 35 34 38 43 45 44 45 39 34 38 46 41 38 40 38 39 37 34 29 29 35 50 53 57 57 59 64 60 56
38 37 52 52 35 30 27 39 46 46 48 45 43 40 38 38 35 37 37 41 48 45 37 41 33 29 36 45 49 44 40 39 30 32 34 33 38 59 57 57 59 64 67 61 58
38 39 49 48 26 27 34 40 44 43 43 43 41 43 42 37 31 37 40 47 48 44 38 39 31 25 29 37 42 38 42 42 38 35 33 32 37 59 57 60 60 60 59 58 58
39 33 38 37 36 31 32 35 39 47 44 44 41 43 38 37 41 36 37 45 47 46 50 44 31 29 22 32 36 34 40 42 37 29 34 39 43 52 57 53 59 60 59 56 59
37 31 35 28 32 34 33 39 35 38 44 45 39 39 38 34 35 32 38 40 45 47 42 37 29 32 34 37 38 37 37 39 38 38 33 40 39 47 51 55 57 63 62 59 59
33 33 36 36 37 37 35 33 36 39 39 36 36 39 39 34 37 34 37 35 34 39 41 38 31 33 33 38 38 35 39 40 41 43 42 42 41 53 57 57 60 59 61 60 61
37 39 36 34 36 37 35 39 37 39 41 43 42 39 36 39 44 43 43 42 40 36 38 37 34 32 29 39 36 31 36 40 42 45 44 37 45 54 52 55 57 55 60 62 63

GFSSW_sfc_temp_042.txt.gz
Temp
60 59 59 60 59 59 59 59 59 59 59 60 60 60 60 60 59 52 52 63 63 68 70 70 71 70 68 63 66 63 48 45 53 58 63 68 64 74 78 75 77 79 77 82 80
59 59 59 59 59 59 59 59 59 59 59 60 60 59 59 59 50 46 61 68 69 70 63 65 66 68 59 61 63 58 48 52 63 67 64 68 65 69 71 70 71 76 81 83 83
58 59 59 59 59 58 58 58 59 59 59 59 59 59 59 57 45 53 71 70 70 70 66 65 65 67 57 59 59 58 55 63 65 69 70 70 68 70 68 65 71 70 74 78 78
58 58 58 58 58 58 58 58 58 59 59 59 59 59 59 50 43 58 72 69 69 69 64 62 61 55 54 55 61 53 62 66 67 70 68 67 71 68 69 70 76 77 78 75 76
57 58 58 58 58 58 57 57 58 58 58 58 58 58 51 41 45 60 67 65 65 64 60 57 56 57 51 55 59 58 58 63 68 69 69 70 67 66 68 74 78 79 78 75 75
57 57 57 57 57 57 57 56 57 57 57 58 58 57 48 36 58 60 60 60 60 55 59 57 57 60 57 54 60 59 61 62 63 65 66 65 65 65 68 74 74 76 76 75 74
57 56 56 56 57 57 57 56 56 57 58 59 59 57 46 43 58 60 57 53 56 58 55 60 63 57 56 52 58 56 53 56 58 59 60 68 62 63 72 74 72 74 76 78 75
56 56 56 56 56 57 57 56 56 58 60 60 60 51 40 58 57 55 56 55 58 56 56 60 61 55 54 56 55 52 50 48 60 59 62 65 55 68 73 72 71 74 75 75 76
56 56 56 56 56 56 56 55 57 60 60 60 49 44 42 61 56 61 59 57 60 59 56 65 58 53 53 47 42 45 46 45 52 61 61 62 57 65 70 70 67 68 68 69 71
56 55 55 56 56 56 55 56 58 57 58 59 57 44 51 55 62 64 61 62 57 56 54 53 50 45 43 42 37 40 41 46 46 56 60 56 58 64 68 69 68 68 70 70 70
56 55 55 55 55 55 51 51 47 45 47 45 49 49 53 60 64 60 64 60 58 51 41 47 41 39 46 49 50 47 44 43 49 56 55 55 56 60 62 63 64 66 69 70 72
55 55 55 55 55 54 48 47 50 50 39 53 51 52 58 59 51 57 61 51 50 42 45 41 38 46 50 50 48 45 41 41 48 54 52 50 50 55 58 59 61 65 66 67 67
54 54 55 55 54 49 45 50 53 50 37 46 53 52 55 55 51 52 56 51 45 41 41 38 43 52 50 47 45 43 42 42 43 50 54 50 48 53 59 59 64 65 66 66 67
54 54 54 54 51 44 47 54 51 50 30 41 49 54 56 56 49 64 60 53 47 43 46 40 47 47 45 44 46 38 49 48 47 42 36 48 36 49 55 57 60 61 63 66 62
54 54 54 53 43 45 52 49 48 48 20 46 48 61 58 48 52 55 63 52 45 45 44 41 43 41 42 44 49 43 51 48 46 41 38 41 35 47 51 52 56 62 65 68 63
54 54 54 47 42 47 50 48 48 30 18 39 48 46 45 47 51 54 54 57 53 45 44 44 50 48 46 51 51 51 45 43 42 37 29 39 39 42 47 53 57 60 61 64 66
53 53 51 51 47 47 48 45 29 21 41 37 39 44 42 40 45 46 44 41 38 34 36 41 42 49 51 43 46 44 34 25 24 24 28 43 38 45 49 54 56 56 59 60 61
52 50 49 50 46 48 45 36 24 32 35 45 44 43 36 42 42 43 40 34 42 40 35 30 29 42 50 45 39 38 36 28 24 24 28 43 35 44 55 62 62 61 60 60 59
50 43 43 48 50 47 40 26 24 34 42 40 41 34 34 41 39 38 36 35 42 41 32 31 33 47 50 50 47 39 33 42 33 33 29 34 43 51 58 60 61 57 60 58 59
40 41 45 50 49 45 34 33 34 43 45 43 31 36 31 34 33 34 34 42 41 46 44 38 30 43 48 49 48 43 46 33 29 26 25 31 35 40 49 51 56 57 56 58 59
40 42 49 49 49 38 26 30 39 47 46 40 36 35 35 33 33 32 35 42 44 42 43 39 35 39 46 41 39 41 35 36 35 31 27 27 33 46 49 52 50 53 56 58 60
37 36 49 49 34 27 26 36 44 44 47 43 42 40 37 36 33 34 35 40 47 43 36 40 34 30 36 44 46 42 37 36 31 30 34 30 32 52 52 52 53 56 59 60 55
39 39 47 46 24 24 33 38 42 41 41 40 38 41 41 35 30 35 38 46 46 43 38 40 31 27 31 37 41 35 39 38 35 33 29 29 34 54 54 56 55 56 58 59 56
38 31 36 36 33 30 31 35 39 44 41 42 40 42 38 34 40 34 36 43 45 44 50 43 34 30 24 31 35 33 37 38 34 27 33 36 39 48 52 50 54 56 58 60 56
35 30 35 26 29 32 35 37 36 36 42 40 36 39 37 33 34 34 38 40 43 46 41 39 32 31 33 36 37 35 35 36 34 36 30 37 38 43 48 50 54 56 59 60 56
30 32 34 31 33 32 34 35 37 38 38 38 35 40 39 34 35 32 36 36 35 39 38 37 30 34 30 36 36 33 37 37 37 38 38 39 38 48 54 54 55 58 58 58 57
41 36 35 34 29 28 28 36 38 38 41 42 40 37 36 39 44 43 42 40 40 38 35 33 32 27 26 35 33 27 36 38 39 41 40 34 42 49 52 51 53 54 57 58 59

GFSSW_sfc_temp_045.txt.gz
Temp
59 59 60 60 59 59 59 59 59 59 60 60 60 60 60 60 59 58 58 68 66 68 70 72 74 73 74 72 75 73 65 62 65 64 70 76 76 83 86 83 86 89 88 89 85
59 59 59 59 59 59 59 59 59 59 59 60 60 59 59 59 56 53 64 66 69 70 68 68 69 72 68 70 72 69 63 65 71 74 71 77 77 79 79 79 81 84 88 90 91
59 59 59 59 59 59 59 59 59 59 59 59 59 59 59 60 54 62 70 68 69 71 69 68 69 70 66 70 70 69 63 70 72 75 75 75 78 81 77 76 82 82 84 88 88
58 58 58 58 58 58 58 58 59 59 59 59 59 59 59 57 52 64 70 68 69 72 67 64 64 64 63 63 70 64 70 71 73 74 73 72 78 76 77 78 85 84 84 84 85
57 57 57 57 57 57 57 57 58 58 58 58 58 59 57 53 57 67 67 66 68 67 64 63 62 64 62 65 67 64 69 71 74 73 72 73 72 74 76 81 84 84 83 83 84
57 57 57 57 57 57 57 57 57 57 58 58 58 58 52 49 66 66 65 65 63 63 63 63 63 66 62 63 64 70 69 70 72 70 71 69 72 75 76 81 80 81 82 84 84
57 57 57 57 57 57 57 57 56 57 59 60 59 58 49 55 66 67 64 64 63 63 61 65 67 61 63 61 68 67 62 67 67 69 68 70 65 69 76 78 76 78 80 83 84
57 56 56 56 57 57 57 57 57 58 60 60 60 57 47 64 66 63 64 64 64 63 62 65 66 61 61 66 65 61 61 56 67 66 69 68 59 74 81 78 77 79 81 82 84
57 56 56 56 56 57 56 56 57 60 60 61 56 53 52 66 62 68 66 64 66 63 61 66 63 59 61 55 54 58 52 55 60 69 67 65 62 73 79 78 77 78 79 80 82
56 56 55 56 56 56 55 56 59 60 60 61 59 50 59 60 66 68 70 65 62 62 61 60 59 55 56 53 44 50 51 56 57 65 65 63 63 71 75 74 75 77 78 79 79
56 55 55 55 56 55 55 63 57 56 56 52 54 53 57 64 68 66 68 64 62 59 52 56 50 47 52 55 56 55 54 53 59 65 63 61 63 68 72 72 73 74 75 76 77
55 55 55 55 55 54 57 56 55 55 47 56 56 55 60 62 54 64 68 56 54 50 54 51 45 53 55 55 53 52 50 50 56 61 59 61 60 65 66 68 71 72 73 75 76
54 54 54 54 54 56 56 58 62 58 47 51 57 57 61 63 55 59 63 58 53 49 50 47 51 56 53 52 50 51 49 50 50 56 60 57 54 59 66 69 71 73 74 74 74
54 54 54 53 53 54 57 61 59 58 42 46 53 58 61 61 52 67 65 59 53 48 51 50 57 51 51 48 52 45 55 54 52 50 46 58 44 58 64 65 67 69 72 73 74
54 54 54 53 49 54 58 59 59 56 30 49 52 66 62 53 56 59 67 59 49 50 50 47 50 49 47 50 54 48 56 53 52 50 49 51 46 54 64 61 65 69 71 73 75
54 54 54 50 50 56 58 57 57 41 28 43 52 50 50 53 54 58 58 62 59 50 51 50 57 53 52 56 56 58 53 53 52 49 39 47 47 51 58 62 66 70 72 73 75
53 53 53 55 57 57 57 56 40 33 45 41 43 48 47 45 49 51 48 48 42 38 40 47 49 53 56 50 55 53 47 38 35 36 36 51 46 52 61 64 66 68 70 74 75
52 50 52 55 57 56 57 48 33 36 39 48 46 46 41 47 47 47 45 43 48 43 36 33 34 44 54 51 48 49 48 41 31 34 40 49 42 52 64 68 69 69 71 73 75
50 53 55 58 57 56 53 38 35 39 45 42 44 39 39 45 43 44 43 42 46 45 35 33 32 44 48 54 55 48 42 53 43 44 42 46 51 59 64 65 69 71 71 70 71
47 51 56 57 57 56 46 38 41 46 47 45 35 40 36 40 39 40 41 47 45 48 47 41 31 43 41 54 55 52 56 41 44 33 33 43 45 51 57 61 63 64 66 68 71
49 53 58 56 57 50 37 39 42 49 49 42 39 38 39 37 40 39 40 47 48 47 49 45 38 39 43 41 44 48 46 47 48 46 39 39 47 59 60 59 59 63 67 69 70
46 47 57 56 44 38 39 41 44 45 49 45 45 43 40 40 38 38 38 44 52 49 42 45 37 34 38 48 51 48 45 46 41 39 44 43 45 62 61 62 61 63 67 70 70
42 43 55 55 37 38 40 40 43 43 45 43 41 44 44 38 32 38 41 49 50 47 43 44 37 31 37 43 47 44 46 47 46 45 40 39 45 65 63 65 65 63 66 69 70
45 40 47 47 44 39 35 39 39 48 46 45 43 45 40 36 43 36 39 46 49 47 49 47 38 36 30 36 41 38 42 45 43 39 42 43 47 55 59 60 62 63 66 69 71
41 39 40 37 40 39 39 39 36 37 45 46 41 41 39 32 35 35 41 43 46 48 46 44 35 39 40 41 41 41 41 43 41 43 38 46 48 53 58 58 60 63 66 68 71
39 39 42 38 39 38 38 38 39 39 39 39 37 41 41 35 37 33 38 38 35 43 41 44 35 39 37 42 42 39 43 43 44 44 44 45 45 56 59 61 61 64 65 67 70
43 42 40 39 38 36 38 39 39 41 43 44 42 39 37 43 47 47 46 45 41 37 38 36 35 34 31 40 38 34 42 44 45 48 48 42 50 57 55 57 59 61 63 65 67

GFSSW_sfc_temp_048.txt.gz
Temp
60 60 60 60 60 60 60 60 59 59 60 60 60 60 60 60 60 73 69 70 71 69 70 81 82 81 82 82 85 84 72 70 74 74 76 84 85 94 96 91 93 96 95 94 95
59 59 59 59 59 59 59 59 59 59 59 60 60 60 60 60 66 68 68 68 70 70 75 77 78 80 77 77 80 77 71 73 81 82 77 82 86 89 86 88 90 91 95 97 98
59 59 59 59 59 59 58 59 59 59 59 59 59 59 59 63 65 69 69 69 69 73 77 77 79 80 75 79 78 77 69 80 81 83 82 79 84 91 86 84 91 90 94 94 95
58 59 59 58 58 58 58 58 59 59 59 59 59 59 59 67 59 73 70 68 68 76 76 74 73 72 72 72 79 72 78 77 80 83 78 77 82 84 88 88 95 93 93 93 93
58 58 58 58 58 58 58 58 58 58 59 59 59 59 66 66 68 78 68 73 76 75 74 72 70 72 70 75 77 73 76 79 81 81 80 79 77 81 86 91 94 95 92 91 92
57 57 57 57 57 57 58 57 57 57 58 59 59 59 64 62 77 77 75 75 75 76 72 73 71 75 70 72 73 78 77 78 80 79 80 75 76 79 84 90 89 89 90 92 92
57 57 57 57 57 57 57 57 57 57 59 60 60 65 62 66 77 80 78 75 75 73 71 75 76 71 73 68 76 75 69 74 77 78 77 79 72 74 84 88 87 87 89 91 92
57 57 57 57 57 57 57 57 57 58 61 60 61 66 63 76 80 78 79 77 75 75 72 75 76 72 70 73 70 66 69 62 74 77 77 74 64 79 87 86 83 85 88 89 92
57 56 56 56 56 57 56 56 58 60 61 61 65 64 64 71 74 78 79 72 75 76 73 74 71 67 70 62 60 64 58 63 68 78 75 68 66 77 84 84 84 85 87 89 91
56 56 55 55 56 56 55 57 59 61 66 68 68 60 69 66 73 75 79 75 69 70 68 66 66 62 64 61 50 57 60 63 64 74 75 70 68 76 82 81 83 84 86 87 89
56 56 55 55 55 55 60 71 68 64 68 62 62 61 66 73 76 73 76 72 70 65 58 66 58 55 59 63 63 62 61 62 67 73 71 70 69 73 78 80 81 82 83 84 86
56 55 55 55 55 55 63 66 62 63 56 66 65 64 68 70 61 70 77 63 62 57 62 58 53 61 63 62 59 60 56 57 64 68 69 68 67 73 77 78 81 81 82 83 85
55 55 55 55 55 61 68 65 71 69 57 59 65 64 66 70 62 63 70 65 60 57 58 54 58 63 58 57 54 55 54 55 57 64 67 65 62 67 76 78 79 80 81 82 82
54 55 54 54 55 70 68 70 71 67 52 54 59 64 67 69 60 72 70 65 60 55 57 57 63 58 56 54 57 50 60 59 57 57 51 65 50 64 70 72 75 78 80 81 82
54 54 55 53 64 69 66 72 71 64 39 55 58 72 68 61 61 63 72 65 55 56 57 53 57 55 53 55 59 54 61 59 58 55 55 57 54 61 69 67 72 77 79 81 84
54 54 54 58 65 69 71 69 65 48 33 50 58 57 58 61 59 64 64 69 66 57 58 57 64 60 57 59 59 61 57 57 57 55 46 54 55 57 64 68 73 78 81 82 84
54 53 56 69 67 72 71 65 48 41 54 48 51 56 55 54 56 57 55 55 50 43 47 53 55 57 60 54 59 57 50 41 40 41 42 57 53 57 68 71 75 75 77 81 83
53 51 56 69 72 68 67 56 39 45 48 55 54 54 49 53 53 54 52 51 55 50 46 40 39 49 53 49 48 51 50 41 35 40 45 56 48 58 71 75 77 79 78 80 81
51 67 69 69 70 69 61 47 43 48 51 49 51 48 48 51 52 52 52 50 52 52 40 40 39 56 48 48 50 48 46 56 46 49 49 55 58 65 71 70 73 76 76 76 78
61 66 67 69 68 64 56 44 49 52 52 52 43 47 44 48 47 49 48 53 51 54 56 47 37 53 48 45 54 53 57 44 47 34 38 51 53 55 64 66 72 71 72 75 78
62 61 65 68 67 62 45 49 50 55 54 48 46 45 46 44 47 47 46 53 54 53 55 50 44 46 52 38 40 50 50 46 48 47 42 45 53 68 66 69 68 69 72 75 77
60 55 66 68 53 55 48 49 46 51 54 51 51 49 46 47 44 45 45 50 57 55 47 50 45 40 46 52 55 51 45 49 41 40 46 48 52 69 69 69 70 70 73 75 78
53 57 67 63 43 47 51 49 49 49 50 48 46 50 50 46 37 45 47 54 54 51 45 46 42 36 43 48 53 47 49 51 51 48 41 45 52 68 69 69 72 71 73 74 76
53 47 59 60 57 48 46 47 46 52 50 51 48 52 47 45 49 41 45 50 54 52 51 49 41 38 34 43 46 43 48 51 50 41 45 49 54 63 66 67 70 71 72 74 76
54 48 49 47 52 48 48 46 45 43 50 53 48 46 42 38 42 41 46 47 52 53 52 46 39 45 48 50 49 48 47 49 48 50 45 51 53 60 65 66 68 70 71 73 75
47 46 53 48 48 47 45 46 44 46 47 45 43 44 43 38 40 36 42 43 38 50 48 49 38 44 43 49 50 46 50 50 52 52 52 52 52 63 66 68 67 68 70 71 73
54 46 41 44 46 45 47 45 45 47 49 51 47 42 41 47 53 54 52 51 46 39 40 41 42 38 35 46 45 39 48 52 54 56 55 49 57 65 64 65 66 68 69 70 72

GFSSW_sfc_temp_051.txt.gz
Temp
60 60 60 60 60 60 60 60 60 60 60 60 60 60 60 60 60 77 74 70 73 69 70 82 84 84 85 83 87 89 74 72 76 78 81 90 88 95 99 94 96 99 99 99 103
60 60 60 60 60 59 59 59 59 60 60 60 60 60 60 60 68 76 69 70 70 71 79 80 80 82 79 80 82 79 74 75 83 86 85 88 89 92 93 92 92 96 99 101 103
59 59 59 59 59 59 59 59 59 60 60 60 60 60 60 63 70 75 69 69 70 72 83 83 83 82 78 81 81 80 74 82 85 88 89 84 87 93 90 88 93 93 96 100 99
59 59 59 59 59 59 58 59 59 60 60 60 59 60 60 69 63 78 71 70 70 77 81 81 79 75 74 75 82 75 81 82 81 86 88 83 85 85 89 92 99 101 100 100 97
58 58 58 58 58 58 58 58 59 59 59 59 60 60 66 71 73 81 72 74 82 82 79 78 76 76 72 77 80 78 80 83 86 85 85 85 82 83 86 94 99 100 99 97 97
58 58 58 58 58 58 58 58 58 58 58 59 60 60 68 67 82 84 83 82 82 80 78 78 76 80 76 76 76 81 82 82 84 85 86 82 80 80 85 92 94 96 96 97 97
57 57 57 57 57 57 58 58 57 57 59 60 61 69 72 71 83 86 85 82 82 79 74 81 80 75 76 71 79 78 73 78 81 83 82 85 76 75 85 88 89 92 94 95 96
57 57 57 57 57 57 57 57 57 58 60 61 61 73 69 83 87 85 85 82 84 83 79 80 81 75 73 77 74 70 72 65 76 80 82 79 68 80 87 84 85 88 91 93 95
57 56 56 57 57 57 56 56 58 60 61 62 66 72 69 75 78 83 84 78 80 82 81 80 77 71 72 66 63 66 59 65 70 81 79 76 71 81 87 85 84 87 89 91 93
57 56 56 56 56 56 56 55 62 61 65 74 77 67 75 70 78 80 84 81 76 75 74 73 71 66 68 64 54 60 63 66 65 76 79 75 74 80 84 82 83 85 89 91 92
57 56 56 56 56 55 60 75 69 66 73 69 69 68 72 77 81 77 80 76 76 71 63 70 64 59 65 68 67 65 63 62 70 78 75 73 75 78 82 82 80 84 87 88 90
56 56 56 56 56 55 63 71 68 70 60 73 72 71 74 76 66 74 80 69 67 60 66 64 58 66 68 67 63 61 59 60 67 73 72 72 71 78 82 82 83 83 84 87 89
55 56 55 56 55 60 74 71 79 76 61 66 71 70 72 74 67 69 74 70 64 60 62 58 63 68 65 62 59 59 57 57 58 66 70 68 64 68 78 83 84 85 86 87 88
55 55 55 55 55 79 74 76 79 74 56 59 64 69 72 73 65 74 76 68 64 59 61 60 67 63 61 59 61 53 64 62 59 57 51 67 52 65 71 75 79 82 85 86 86
55 55 54 52 70 74 73 79 78 70 43 61 65 78 73 67 68 68 76 70 59 60 61 56 60 59 58 60 63 57 64 61 60 57 56 58 56 63 72 70 75 79 83 85 86
55 55 54 61 72 76 79 77 71 51 40 57 64 63 63 67 65 69 69 74 71 62 62 61 65 64 61 61 63 64 59 59 59 56 45 55 55 58 65 71 76 81 83 85 88
55 54 57 74 72 80 78 70 51 46 61 55 57 62 61 60 61 61 60 60 57 50 50 56 57 59 63 57 62 58 52 41 39 41 42 57 54 59 70 75 77 78 83 87 88
53 52 60 77 80 78 72 60 44 53 55 62 60 60 57 59 59 59 59 57 62 57 52 44 40 51 61 58 52 52 48 43 31 36 45 57 46 59 73 79 80 81 82 84 85
52 70 73 77 77 75 64 51 50 55 58 54 57 54 56 59 59 58 58 56 58 59 46 43 43 59 61 60 57 51 48 58 47 48 40 45 55 66 73 74 77 78 81 81 82
63 71 73 75 76 68 58 49 56 60 59 57 49 54 49 54 53 55 55 59 56 60 61 51 39 55 59 58 60 53 58 41 47 32 31 45 48 56 64 68 74 76 77 78 80
63 65 70 76 73 63 48 55 57 62 60 53 52 50 52 51 53 52 53 58 58 58 59 55 45 48 56 53 51 48 49 46 48 45 35 33 45 63 69 70 72 76 77 77 79
64 59 72 73 56 60 53 56 50 58 60 56 56 54 49 51 48 50 49 53 60 59 50 54 46 42 48 60 59 56 54 51 39 41 48 46 45 63 60 75 76 75 76 78 79
59 63 72 69 47 52 58 57 57 56 57 54 52 55 55 48 41 49 51 59 60 56 48 50 45 37 44 47 52 46 50 56 51 48 39 34 43 58 72 73 75 75 76 76 78
61 53 65 68 62 52 52 53 53 58 56 57 55 58 53 48 52 47 49 55 57 55 54 51 45 38 35 42 40 39 49 54 49 35 43 47 49 48 54 69 73 73 75 76 77
61 56 56 52 54 53 54 54 51 51 57 58 54 53 51 43 47 46 50 51 54 55 55 49 41 46 50 51 52 52 52 53 51 52 46 50 48 54 55 58 70 73 74 74 77
50 52 58 53 55 53 51 52 50 52 53 51 51 53 52 44 44 40 45 47 43 53 50 52 40 47 44 51 53 50 55 55 55 55 54 55 53 64 66 70 70 71 73 73 75
52 54 51 47 53 53 52 52 50 51 53 57 52 52 51 54 56 55 56 56 52 45 45 40 42 39 36 44 43 39 51 54 56 58 56 50 60 67 67 68 69 71 73 73 75

GFSSW_sfc_temp_054.txt.gz
Temp
60 60 60 60 60 60 60 60 60 60 60 61 61 61 61 60 60 71 69 72 73 70 70 79 81 83 85 80 83 84 68 67 71 73 77 88 86 93 97 92 95 98 98 98 103
60 60 60 60 60 59 59 59 60 60 60 61 61 61 60 60 63 69 71 71 71 71 76 78 77 81 76 78 78 75 68 68 80 82 81 87 88 90 90 90 91 94 99 100 100
59 59 59 59 59 59 59 59 59 60 60 60 60 60 60 62 65 71 71 71 70 71 77 80 81 79 73 78 77 74 67 76 79 84 86 85 86 91 87 84 91 91 96 99 99
59 59 59 59 59 58 58 59 59 60 60 60 60 60 60 65 61 75 72 72 71 76 78 78 78 72 70 69 78 70 76 77 80 83 82 81 87 86 87 87 94 97 99 99 97
58 58 58 58 58 58 58 58 58 59 59 59 60 60 64 67 73 80 73 75 78 81 79 78 74 74 69 73 75 72 76 79 82 83 83 84 81 82 85 91 94 96 97 97 96
58 58 58 58 58 58 58 58 58 58 58 59 60 60 63 65 85 86 85 85 84 81 79 79 76 78 73 72 72 77 77 79 81 81 83 80 81 82 85 90 90 91 93 94 94
57 57 57 57 57 57 57 57 57 57 58 60 61 67 68 72 85 88 87 84 85 81 75 80 80 74 74 70 77 75 69 74 77 79 79 82 75 77 86 87 86 87 90 93 95
57 57 57 57 57 57 57 57 57 58 60 61 62 68 66 85 88 86 87 84 86 86 82 82 81 74 70 74 71 67 69 62 74 76 79 78 66 79 85 84 83 85 88 90 92
57 56 56 56 57 57 57 56 57 60 62 63 64 67 68 78 79 84 85 79 81 83 83 84 78 69 70 63 60 64 56 60 66 78 77 75 69 80 85 83 81 83 85 87 89
57 56 56 56 56 56 56 55 63 62 65 74 74 67 75 73 79 81 85 82 76 76 74 74 71 65 66 62 50 57 60 63 62 71 74 72 72 79 83 83 82 83 85 86 87
57 56 56 56 56 56 58 72 67 63 69 68 71 71 74 79 83 78 83 78 77 72 63 70 62 58 63 66 66 63 61 60 65 72 69 69 72 76 81 82 81 83 83 84 85
56 56 56 56 56 56 60 70 70 73 60 73 74 74 77 78 68 75 82 69 67 60 66 63 58 67 69 67 64 62 58 56 62 68 66 65 66 73 79 81 82 82 81 82 84
55 55 56 55 56 60 72 73 80 79 61 69 73 72 74 76 68 70 75 71 64 60 61 57 61 68 65 62 60 60 56 56 56 63 65 62 59 65 75 79 83 83 85 84 83
55 55 55 54 55 78 74 80 82 78 53 60 66 71 74 74 66 77 78 70 64 58 61 59 66 63 61 58 61 53 63 62 59 55 48 62 47 60 68 72 76 78 81 84 84
55 55 54 54 66 73 75 81 80 71 36 64 67 80 74 68 69 71 78 70 60 60 61 56 60 58 56 59 63 57 64 60 58 54 53 54 50 56 65 65 72 76 79 83 85
55 55 54 65 69 79 82 79 73 49 39 59 67 65 66 69 69 71 71 75 72 63 64 62 69 64 60 61 61 63 58 58 57 54 42 50 50 52 59 64 71 78 81 83 85
55 54 54 69 71 82 80 71 50 44 63 58 59 64 62 61 63 65 62 61 57 51 51 58 59 59 60 54 60 58 47 33 35 39 39 53 50 54 63 69 72 75 80 83 85
53 52 61 73 81 79 73 58 42 56 58 64 62 61 58 62 62 61 60 57 64 59 52 45 43 56 57 51 48 49 51 40 28 31 41 53 43 49 65 72 74 78 81 82 83
53 71 69 76 78 75 62 47 48 56 60 57 58 55 57 62 61 60 58 57 60 60 45 45 44 59 61 62 60 53 47 56 42 45 39 44 53 59 65 67 72 75 78 80 81
59 66 71 77 76 67 55 48 56 64 62 60 49 56 49 54 55 55 55 61 56 60 56 47 40 54 58 61 58 54 58 43 44 31 29 42 46 48 57 61 69 71 74 78 81
62 64 72 78 74 61 46 53 60 65 63 55 53 51 53 51 54 52 53 59 59 57 59 55 46 46 54 51 50 50 50 51 49 37 29 34 44 60 55 58 55 70 76 78 78
62 57 74 77 57 59 54 59 56 60 64 60 59 55 52 53 50 50 49 55 62 60 50 54 45 39 45 56 54 53 52 46 31 36 44 43 42 58 58 58 55 60 73 78 78
59 64 74 71 49 53 58 60 62 58 58 57 54 57 57 52 45 50 51 60 59 56 50 50 44 35 41 48 45 43 50 52 50 45 38 36 42 59 51 50 52 51 67 76 76
59 54 65 68 67 57 54 54 55 63 59 60 57 59 55 51 55 49 51 57 59 56 56 54 44 38 33 41 48 39 43 49 48 39 44 44 45 52 46 45 47 49 57 75 75
60 55 58 51 54 55 56 56 54 54 62 61 55 56 54 47 50 48 52 54 56 56 55 51 40 45 47 50 51 50 49 51 46 49 45 48 48 53 50 49 51 53 60 70 74
50 50 55 52 56 55 55 54 55 56 54 51 51 55 53 47 49 47 52 51 48 53 50 51 39 45 42 49 51 48 51 51 53 55 54 54 52 60 62 55 55 61 65 71 74
57 61 51 47 54 55 55 54 54 56 55 58 56 52 50 54 59 59 59 58 55 49 48 45 44 39 35 46 44 38 47 50 47 56 55 45 51 57 60 61 62 64 70 72 74

GFSSW_sfc_temp_057.txt.gz
Temp
60 60 60 60 59 59 59 59 60 60 60 60 61 61 60 60 60 61 56 66 68 70 70 75 76 75 76 71 75 75 57 55 61 64 69 78 77 86 90 84 87 89 88 90 94
60 60 60 60 59 59 59 59 59 60 60 60 60 60 60 60 54 56 70 71 71 71 72 71 69 73 66 68 69 64 56 59 69 72 71 78 78 81 82 80 81 85 89 94 93
59 59 59 59 59 59 59 59 59 59 60 60 60 60 60 59 54 62 71 71 71 70 71 71 72 70 63 67 67 66 58 67 71 75 77 76 77 83 78 75 79 80 85 89 91
58 59 59 58 59 58 58 58 59 59 60 60 59 60 60 56 50 68 72 71 71 71 71 70 68 60 58 58 67 60 69 70 71 75 75 72 78 77 79 78 85 86 86 86 87
58 58 58 58 58 58 58 58 58 58 59 59 59 60 57 54 59 76 73 73 73 71 67 65 63 62 57 62 66 63 67 72 75 75 75 77 74 75 77 84 88 89 87 83 86
57 58 57 57 57 57 57 57 57 57 58 59 59 60 55 52 77 79 74 75 74 71 73 70 63 68 61 61 60 65 67 69 72 72 75 73 74 77 79 84 85 86 82 82 83
57 57 57 57 57 57 57 57 57 57 58 60 61 62 58 58 78 79 76 69 77 78 71 73 72 65 63 57 64 65 59 65 68 69 68 73 68 71 80 82 82 84 85 85 82
57 57 57 57 57 57 57 57 57 57 59 62 62 59 54 78 75 75 77 77 79 77 75 76 73 64 59 62 61 56 56 49 60 68 71 67 57 72 78 79 79 81 84 85 83
57 57 56 57 57 57 56 56 57 59 60 63 57 55 57 74 75 78 75 75 76 77 75 82 69 60 61 52 46 50 43 48 56 67 67 65 60 71 77 77 76 79 81 83 84
57 56 56 56 56 56 55 56 59 60 64 68 68 56 65 69 75 78 79 78 72 71 69 66 59 53 50 46 37 45 47 53 53 60 62 60 62 70 74 76 76 77 79 80 81
57 56 56 56 56 55 53 57 55 52 56 58 63 64 71 77 79 75 79 74 71 65 53 60 50 45 52 56 58 57 53 51 57 63 58 56 58 63 69 70 72 76 77 78 79
56 56 56 56 55 55 50 52 64 62 52 68 68 71 76 75 66 72 78 64 61 52 58 52 46 57 62 61 58 55 51 50 56 62 59 56 55 62 65 66 69 71 75 77 75
55 55 55 55 55 51 57 66 72 68 50 62 70 69 69 71 66 67 72 65 58 53 53 47 54 63 60 56 54 53 50 50 51 57 59 55 51 56 64 67 70 72 74 75 78
55 55 55 55 52 62 63 72 71 67 41 57 63 68 71 69 62 75 76 66 57 52 54 52 59 59 56 54 55 46 56 56 54 49 40 52 38 50 57 60 65 68 71 69 70
55 55 55 54 50 59 67 69 67 60 30 62 64 74 70 63 66 69 75 66 55 55 54 50 54 53 52 54 57 49 57 53 52 46 44 46 40 47 54 55 60 64 69 72 71
55 55 54 58 53 62 71 69 61 40 32 56 66 62 60 65 66 69 68 69 66 57 58 56 64 57 53 57 57 58 50 48 46 40 33 43 42 43 49 55 60 65 69 72 75
55 55 52 61 57 71 69 59 38 33 61 55 56 60 57 57 61 63 59 54 48 44 42 52 53 58 57 48 53 47 38 24 25 26 28 46 42 44 55 60 62 62 66 71 73
53 52 57 65 68 68 61 47 33 52 53 60 58 57 53 60 59 60 56 49 58 50 41 36 35 50 57 49 43 45 38 28 22 26 31 45 36 44 56 61 64 65 66 69 72
52 58 58 63 67 63 50 35 38 52 58 54 55 51 52 56 55 54 51 51 54 51 37 35 37 53 55 58 53 45 36 44 35 39 31 37 44 53 58 57 56 55 55 58 66
48 55 60 69 67 56 44 42 49 60 59 57 45 52 44 48 48 48 48 56 53 56 51 44 34 50 54 56 54 46 49 33 33 26 23 35 38 39 45 46 49 49 51 54 55
49 51 62 68 63 50 37 45 55 62 61 53 49 47 48 46 48 46 48 53 56 53 52 45 38 40 48 43 40 39 40 36 39 32 25 24 31 46 44 46 46 48 54 53 54
51 47 64 64 45 47 45 54 57 59 61 57 55 52 47 49 46 46 46 51 59 54 44 44 37 32 39 50 53 48 40 38 29 28 33 31 30 48 46 50 49 48 53 54 55
47 52 63 61 39 41 51 55 57 58 56 54 51 53 52 46 39 48 48 57 56 51 45 42 34 28 34 41 44 41 47 45 40 35 31 29 34 53 50 50 50 46 49 52 55
49 44 53 54 53 46 45 48 51 61 59 59 54 54 49 47 49 45 47 54 58 54 57 49 36 32 27 35 40 37 43 48 41 30 35 38 39 46 45 48 50 49 50 50 53
51 46 48 40 43 45 48 49 49 51 57 54 49 50 47 40 43 41 47 50 55 55 48 45 33 39 41 44 45 44 44 47 44 45 38 39 43 45 47 48 50 51 50 51 55
43 42 46 42 47 46 47 47 49 51 50 47 44 50 48 40 43 41 46 44 40 48 42 43 34 38 37 44 46 42 46 48 47 46 44 40 44 52 54 52 52 54 54 55 62
50 51 45 42 43 43 43 46 48 50 52 54 50 46 44 47 52 52 51 50 47 44 44 42 37 32 30 41 41 33 39 41 43 45 44 36 42 50 51 51 50 55 58 58 63

GFSSW_sfc_temp_060.txt.gz
Temp
60 60 60 59 59 59 59 59 59 60 60 60 60 60 61 60 59 55 52 63 64 70 70 70 71 72 71 68 71 70 50 50 56 61 65 73 70 79 83 78 80 85 85 88 89
59 59 59 59 59 59 59 59 59 59 60 60 60 60 60 60 51 50 63 71 71 71 66 67 66 68 62 65 65 60 49 54 65 69 67 72 73 75 76 76 77 80 86 88 88
58 59 59 59 59 58 58 58 58 59 59 60 60 60 60 59 50 60 71 71 71 70 66 66 67 64 58 61 62 60 56 63 67 70 72 71 72 77 73 70 76 75 81 86 86
58 59 59 58 58 58 58 58 58 59 59 59 59 59 60 55 47 67 73 72 71 69 67 64 60 53 54 55 62 56 64 66 67 71 70 69 74 72 74 74 81 83 83 81 80
58 58 58 58 58 58 58 58 58 58 58 58 59 59 55 51 55 74 74 72 70 68 64 62 55 53 52 57 58 57 62 66 69 70 70 72 70 72 73 80 84 85 84 79 78
58 58 57 57 57 57 57 57 57 57 57 58 60 60 52 49 71 76 72 70 71 65 66 61 59 61 55 55 53 58 60 62 65 66 68 68 70 72 75 81 81 83 82 81 80
58 57 57 57 57 57 57 57 56 56 58 60 61 61 52 55 71 71 70 66 71 71 68 69 67 62 57 54 59 61 53 59 62 63 63 69 64 66 75 78 78 80 82 83 81
57 57 57 57 57 57 57 57 56 57 59 60 62 56 49 70 68 69 70 73 76 74 71 72 70 61 54 56 57 54 49 42 57 63 65 64 55 69 74 73 73 76 80 82 80
57 56 56 57 57 57 56 56 57 59 60 61 54 51 52 72 71 74 69 70 73 74 72 79 65 57 56 47 42 44 40 46 52 62 62 60 56 65 70 71 72 74 75 79 81
57 56 56 56 56 56 55 55 57 58 61 65 65 51 60 65 72 74 74 74 69 67 65 61 55 50 45 42 34 41 42 46 48 57 57 55 55 61 65 65 64 67 71 75 79
57 56 56 56 56 55 52 51 54 53 55 54 58 60 65 73 75 71 75 71 67 60 49 55 46 41 47 49 52 50 48 46 52 59 55 53 54 59 62 62 62 64 66 69 72
56 56 56 56 55 54 48 51 59 60 49 63 63 64 70 72 63 69 74 61 57 49 53 48 42 52 57 56 53 51 45 45 51 57 55 52 53 60 62 60 61 63 65 65 69
55 55 56 55 54 51 52 60 65 63 46 58 65 64 65 68 62 63 69 63 54 49 49 42 50 59 56 52 50 47 44 45 45 52 53 50 48 52 59 60 63 64 64 64 65
55 55 55 55 54 51 56 66 63 61 40 53 60 65 68 64 59 72 72 64 54 49 50 48 55 55 52 51 51 41 52 51 48 43 34 49 34 47 53 54 58 61 60 61 65
55 55 55 54 47 52 62 61 60 57 27 58 60 71 66 60 62 65 72 62 53 53 51 47 50 49 48 49 52 46 52 47 47 42 36 42 34 43 51 51 55 60 63 65 68
54 55 54 51 47 54 61 60 58 39 31 54 62 59 55 60 62 64 63 63 62 52 52 52 58 53 50 54 53 53 46 44 41 36 27 38 37 41 45 50 55 60 63 65 63
54 54 52 56 54 59 58 54 37 31 57 51 52 56 53 53 57 59 57 51 44 39 39 47 48 52 55 46 49 45 35 23 23 24 26 41 37 41 50 55 57 54 53 55 57
53 52 52 58 56 57 53 44 33 49 49 57 54 54 49 54 54 55 52 45 51 46 37 33 33 46 54 46 41 40 37 25 23 23 29 42 31 40 52 56 53 54 54 56 56
51 50 53 58 61 55 47 33 34 47 54 51 52 46 46 52 50 49 46 46 49 48 35 33 35 51 53 53 47 40 33 40 30 34 27 34 41 48 51 50 52 52 54 53 55
44 46 52 62 60 51 41 39 45 57 57 54 42 48 40 44 44 44 46 52 50 52 47 41 31 47 51 51 49 43 46 30 28 22 21 30 35 36 42 44 48 49 48 51 56
45 47 57 61 56 45 33 40 51 60 58 51 46 44 45 42 43 43 46 52 53 50 48 39 35 38 43 40 37 37 35 34 32 29 20 25 29 42 42 44 44 47 50 50 52
42 42 58 58 42 39 38 48 52 56 58 54 51 48 43 45 42 43 43 48 54 51 40 41 34 29 36 47 49 45 38 35 25 25 31 31 30 51 46 46 47 48 50 50 52
40 42 56 55 35 35 44 50 53 53 53 52 49 50 49 43 38 44 47 55 54 49 43 42 32 27 32 37 42 41 41 40 37 35 29 28 30 50 47 48 48 46 48 49 51
41 38 43 45 44 39 39 43 47 56 54 53 49 49 44 41 44 41 44 53 54 51 55 47 34 31 26 33 36 35 40 43 38 30 33 34 38 44 45 47 47 48 51 51 50
41 37 40 33 37 38 38 43 44 45 51 50 46 45 41 35 38 40 43 47 49 52 47 40 33 35 38 41 42 41 41 43 40 40 33 38 37 41 44 46 46 50 52 53 54
36 36 38 35 39 39 40 39 43 45 45 43 41 46 42 35 39 37 42 40 39 45 41 38 31 35 35 42 42 40 42 44 45 42 40 37 37 43 47 50 49 52 54 53 56
41 42 38 36 36 35 35 39 41 44 47 49 44 41 40 43 47 48 48 46 45 42 39 36 33 30 30 39 38 31 38 40 41 43 39 34 38 44 44 46 47 49 52 53 54

GFSSW_sfc_temp_063.txt.gz
Temp
59 59 59 59 59 59 59 59 59 59 60 60 60 60 60 60 59 52 49 62 61 68 69 66 67 69 68 65 69 68 50 50 54 60 62 71 64 74 77 73 75 77 78 82 81
59 59 59 59 59 59 58 58 59 59 59 60 60 60 60 60 53 48 62 69 69 71 63 62 61 62 58 62 63 59 48 54 63 67 65 69 67 71 72 72 73 76 81 85 82
59 59 59 58 58 58 58 58 58 59 59 59 59 59 59 58 49 59 71 69 70 69 63 62 62 59 52 58 59 58 53 62 64 67 68 68 69 74 70 67 69 72 77 82 79
58 58 58 58 58 57 58 58 58 58 59 58 59 59 59 53 46 65 74 71 71 66 63 61 57 50 49 51 58 54 61 63 64 68 67 65 71 69 71 71 78 77 78 79 81
58 58 58 58 58 58 57 58 58 58 58 58 59 60 53 50 54 70 74 72 68 65 62 58 53 50 45 51 56 52 58 63 65 65 65 67 67 68 70 76 79 80 79 76 76
57 58 58 58 58 58 57 56 57 57 57 58 59 60 51 48 69 71 69 67 67 62 62 59 58 59 52 50 49 54 56 59 62 62 64 64 66 68 72 77 77 78 76 77 75
57 57 57 57 57 57 57 57 56 56 57 58 60 59 49 55 69 66 68 63 66 67 63 65 64 58 55 50 53 55 50 55 60 62 62 67 59 62 72 75 74 75 77 76 76
57 57 57 57 57 57 56 56 56 57 58 59 61 54 47 67 65 66 63 67 71 68 68 70 65 57 52 53 54 48 48 42 53 60 63 62 53 64 68 68 67 71 74 76 75
57 56 57 57 57 56 56 55 56 58 60 60 52 49 51 70 68 72 71 67 69 70 69 76 62 54 55 45 40 42 38 41 51 59 58 57 50 62 66 66 65 65 67 71 72
57 56 56 56 56 56 55 55 56 57 60 62 62 50 58 61 69 71 71 71 66 64 62 60 51 47 42 40 33 38 39 43 44 54 56 53 52 58 63 63 63 63 65 67 69
57 56 56 56 56 55 51 52 53 51 52 53 56 56 62 69 72 69 72 67 64 58 47 51 44 39 45 46 49 46 43 42 48 55 49 50 52 56 60 59 59 61 62 63 66
56 56 56 56 55 54 47 52 56 57 49 60 59 60 66 66 60 66 71 59 55 46 49 46 39 50 53 52 49 47 42 40 47 53 50 48 50 56 56 58 59 59 60 62 63
55 55 55 55 54 51 51 57 62 56 45 55 61 60 61 64 59 61 66 59 52 46 45 41 48 55 52 49 47 43 41 41 42 48 49 46 45 49 55 56 60 61 61 61 61
54 54 54 54 53 49 54 62 59 57 38 51 56 62 63 61 57 69 69 62 52 48 47 45 52 52 49 47 47 40 48 47 45 40 32 46 32 44 48 51 54 58 58 59 60
54 54 54 54 46 52 60 56 55 56 26 56 57 68 62 57 59 63 68 60 51 51 49 46 48 47 44 47 50 44 50 45 44 38 34 37 31 43 51 49 51 55 57 57 57
54 54 54 50 46 53 56 55 56 38 30 51 59 56 54 57 59 62 60 62 58 50 49 49 53 49 48 52 51 51 44 41 37 33 24 35 35 37 40 44 48 54 56 55 56
53 53 51 55 54 54 54 52 38 31 53 48 49 53 49 51 54 56 53 47 43 36 36 45 45 50 53 44 47 43 32 22 22 23 25 37 33 38 47 52 51 50 52 54 54
52 51 52 56 53 53 52 44 32 45 45 53 52 51 45 50 50 50 47 41 48 44 36 32 32 45 51 45 39 38 35 24 20 22 27 39 28 35 49 52 52 53 53 54 54
51 48 50 55 57 52 46 33 33 44 52 49 49 43 43 49 46 46 43 43 46 45 35 32 34 49 51 50 46 37 32 38 28 30 23 29 37 45 51 50 51 50 52 51 52
43 46 51 58 55 50 40 38 42 53 54 51 39 45 38 40 41 41 41 49 47 50 47 40 30 45 49 49 47 41 44 28 26 21 20 28 31 34 43 48 48 48 49 50 51
45 47 56 56 54 45 33 38 47 56 55 49 44 42 42 40 40 39 42 48 51 47 47 39 34 37 42 38 36 35 32 32 31 25 18 19 27 41 43 46 44 47 50 48 49
41 42 56 55 42 35 36 44 51 53 56 52 49 47 43 43 40 40 40 46 52 50 41 41 33 28 34 45 47 41 36 34 24 23 28 29 30 49 46 46 46 47 50 49 49
40 40 53 53 33 34 41 46 50 51 50 49 46 47 45 40 34 42 44 52 51 47 42 41 31 27 31 36 40 37 38 38 36 32 29 26 30 49 48 49 48 46 46 49 51
40 36 41 42 40 37 36 40 44 53 50 50 47 46 42 39 41 38 41 49 51 48 54 47 34 32 28 32 34 35 39 43 39 30 30 32 35 42 44 42 45 46 47 48 51
38 35 37 32 35 34 36 40 41 41 48 47 43 43 39 33 35 36 41 43 48 50 45 41 31 33 36 40 40 38 38 39 36 37 32 36 36 42 41 41 43 46 49 51 51
36 34 36 33 36 36 38 36 39 42 41 40 37 42 40 34 37 34 37 37 37 44 39 36 30 33 32 39 39 36 40 41 41 42 39 40 37 46 44 44 45 47 49 50 51
40 40 36 35 33 32 34 38 38 39 43 45 42 38 37 40 42 43 43 43 44 40 35 33 31 27 28 38 37 31 38 40 40 42 39 34 41 44 43 44 44 45 47 49 51

GFSSW_sfc_temp_066.txt.gz
Temp
59 60 59 59 59 59 59 59 59 59 60 60 60 60 60 60 59 51 47 60 59 67 69 64 64 64 64 59 64 66 52 47 57 58 61 68 64 70 76 72 71 74 74 77 78
59 59 59 59 59 58 58 59 59 59 59 59 60 60 60 59 55 48 60 68 68 70 62 60 58 60 55 57 60 58 49 51 61 65 64 68 65 69 70 70 69 71 77 80 78
59 59 59 59 59 59 58 58 58 59 59 59 59 59 59 60 48 58 71 68 70 69 61 60 59 57 48 52 53 52 51 59 63 66 67 65 66 71 67 66 68 68 72 76 77
59 59 59 58 59 58 58 58 57 58 59 58 58 59 60 51 44 61 72 70 71 65 61 58 54 48 46 48 53 47 57 62 64 68 64 64 68 67 68 69 75 73 74 73 74
58 58 58 58 58 57 57 57 57 57 58 58 58 59 52 47 53 66 73 71 66 63 59 56 51 50 44 47 51 47 53 60 62 64 64 66 65 66 67 73 76 75 75 73 73
57 57 58 58 58 57 57 57 57 57 57 57 59 60 48 46 65 69 67 65 64 59 59 57 55 56 50 48 47 51 52 56 60 62 63 63 65 66 70 74 74 75 72 72 72
57 57 57 57 57 57 57 57 56 56 57 58 59 58 47 54 65 63 65 61 64 64 60 61 60 56 53 48 51 52 47 52 56 60 60 64 58 60 69 71 70 71 71 71 71
57 57 57 57 57 57 57 57 56 57 58 59 60 52 46 65 63 63 61 64 66 64 64 64 62 54 50 51 51 44 43 38 50 56 61 60 51 61 65 66 66 67 67 69 69
57 57 57 57 57 57 56 55 57 58 59 60 51 47 50 68 65 68 67 65 66 66 63 73 60 51 52 43 39 41 35 38 46 54 56 54 50 60 64 64 63 65 65 66 67
57 56 56 56 56 56 55 55 57 58 59 60 60 48 57 59 66 69 69 68 63 62 59 57 49 45 41 39 31 35 36 40 41 50 50 48 49 56 61 61 61 63 64 65 66
56 56 55 55 55 55 51 51 51 49 50 51 53 55 59 66 68 65 69 65 62 57 46 49 44 38 43 44 46 43 41 40 45 50 47 46 48 52 57 58 58 60 61 62 64
55 55 55 55 55 55 47 53 53 53 46 57 56 57 62 64 57 62 68 57 53 45 47 44 39 48 51 49 46 44 40 39 45 51 48 46 47 53 54 56 58 59 59 60 62
54 54 55 55 54 50 50 55 58 55 43 53 58 57 58 61 56 58 64 57 50 44 43 40 46 53 50 46 45 41 39 39 40 45 46 43 41 46 50 54 57 58 59 60 60
54 54 54 53 52 48 53 57 54 56 38 49 54 59 60 59 55 66 66 60 50 46 45 43 49 50 45 44 45 37 46 45 43 38 30 43 28 40 46 48 51 55 55 55 57
54 54 54 53 47 52 56 53 52 55 26 53 55 64 59 55 57 60 64 58 50 48 46 45 44 44 42 44 47 42 47 42 42 36 30 35 28 34 44 43 46 52 54 55 55
54 54 54 49 45 52 54 52 55 38 29 48 55 53 51 54 56 60 58 60 57 49 46 46 51 47 46 49 48 48 42 39 34 30 23 32 31 29 37 43 46 51 54 55 55
53 53 51 53 52 52 51 51 37 30 50 45 46 50 46 47 51 52 49 44 41 36 35 44 44 47 51 42 45 41 31 21 21 22 23 34 32 36 45 49 50 50 52 53 53
52 52 51 54 51 51 51 43 31 43 43 51 49 48 42 47 46 48 45 40 45 42 35 32 32 44 50 43 38 35 33 23 19 20 23 36 27 33 46 50 51 52 51 52 51
51 48 50 53 55 51 46 33 33 41 49 47 47 40 40 46 44 43 40 41 45 44 34 31 33 48 49 49 45 35 30 35 27 27 21 27 34 43 49 48 49 50 51 50 50
44 47 51 54 53 49 40 37 41 51 51 49 38 43 36 39 39 38 39 46 46 48 44 38 30 44 47 46 44 40 42 27 24 20 19 25 28 32 42 44 47 47 48 50 49
45 47 54 52 52 44 33 37 45 54 52 47 42 40 41 38 39 37 40 46 48 46 43 38 34 36 42 37 35 34 30 31 29 25 19 18 26 39 41 43 43 45 50 49 47
41 42 54 53 41 33 35 43 49 50 53 50 47 45 41 41 38 39 39 44 51 47 39 40 32 29 35 42 45 39 34 32 21 21 23 23 30 48 46 44 45 46 48 50 48
39 39 51 52 34 35 40 44 48 48 48 47 44 45 43 39 33 40 42 50 48 46 41 41 32 27 32 35 38 34 36 35 33 31 28 24 30 48 45 47 50 44 45 46 48
39 37 41 41 39 36 36 39 42 50 48 47 45 44 40 37 40 37 39 47 48 46 54 46 35 33 28 33 32 31 37 38 35 29 29 31 35 42 45 44 44 44 45 46 48
37 34 35 32 34 34 35 38 39 41 45 44 40 40 36 31 33 35 38 40 45 48 43 40 32 35 37 40 39 37 37 38 34 36 30 35 35 41 44 43 44 44 46 48 49
36 34 35 32 35 34 36 35 38 40 39 38 35 39 37 32 35 34 36 34 34 41 38 37 32 34 31 37 37 34 38 39 38 38 37 38 37 48 46 45 45 45 45 46 48
39 41 38 35 33 31 33 37 38 38 41 43 38 36 34 38 41 40 40 40 40 37 36 35 35 31 28 35 35 29 36 38 39 41 39 32 42 44 46 46 46 44 46 46 48

GFSSW_sfc_temp_069.txt.gz
Temp
60 60 60 60 59 59 59 58 59 59 60 60 60 60 60 60 60 60 56 69 66 67 70 72 73 73 74 72 74 74 64 60 63 63 67 73 71 77 82 78 80 83 83 86 90
59 59 59 59 59 59 59 59 58 59 59 59 60 59 60 60 58 55 67 66 68 70 71 69 67 70 69 69 72 69 63 64 69 70 69 72 72 74 74 76 77 80 85 88 90
59 59 59 59 59 59 59 58 58 58 59 59 59 59 59 61 56 68 71 68 70 71 70 70 69 68 65 68 68 67 62 67 69 72 74 73 71 75 72 70 77 75 80 85 87
59 59 59 59 59 59 58 58 58 58 58 59 58 59 60 58 56 72 71 70 71 72 70 68 67 64 62 62 66 61 65 68 71 73 70 69 71 69 72 74 79 80 82 83 84
58 59 58 58 58 58 58 57 57 57 57 58 58 59 59 59 64 74 72 72 71 70 68 66 64 64 60 62 63 62 64 67 70 70 69 69 67 69 70 76 79 82 82 82 82
58 58 58 58 58 57 57 57 57 56 57 57 58 60 57 57 74 74 73 70 71 69 68 68 67 67 63 62 61 63 63 66 68 70 69 66 68 70 73 76 76 78 79 80 79
57 57 57 57 57 57 57 57 56 56 57 58 59 60 56 65 75 71 72 71 71 71 68 70 71 67 66 61 64 62 58 64 65 68 67 71 62 65 70 73 73 76 78 79 79
57 57 57 57 57 57 57 56 56 57 58 59 60 59 58 72 74 72 71 72 72 72 71 73 73 68 65 65 61 58 57 54 62 64 66 67 57 65 69 69 70 71 74 76 78
57 56 56 56 56 57 56 56 57 58 59 60 58 57 61 73 71 76 76 73 74 72 71 74 71 63 63 58 55 55 51 51 55 63 62 62 57 64 68 67 66 68 71 74 76
57 56 55 55 56 55 55 56 58 61 61 62 62 55 66 65 71 74 77 74 71 70 67 65 64 60 59 57 47 48 49 51 52 59 61 59 58 63 65 64 64 66 68 70 73
56 55 55 55 55 55 56 62 62 59 58 59 60 59 63 70 73 73 76 72 70 66 58 59 57 53 55 55 55 53 51 50 55 59 57 57 57 61 64 65 63 65 65 67 69
55 55 55 55 55 55 55 62 60 62 54 62 61 61 66 68 62 68 75 65 63 56 57 56 52 58 58 56 53 52 50 51 55 57 56 56 55 60 64 64 65 65 64 66 67
54 55 55 55 54 57 61 62 65 62 54 59 62 62 65 67 62 64 71 66 61 55 55 52 55 59 56 54 52 52 50 49 49 53 57 53 54 55 61 64 65 66 66 66 66
54 54 55 54 57 58 63 64 64 64 52 55 61 65 66 66 61 71 73 68 60 55 54 54 58 56 55 53 55 48 54 52 49 48 43 53 41 53 57 58 61 64 66 66 66
54 55 55 53 57 62 64 63 64 63 38 58 61 73 68 63 64 66 71 66 58 57 56 53 55 53 52 53 55 50 54 51 50 48 45 48 42 50 53 55 59 63 64 67 67
54 54 54 54 55 63 63 62 64 49 37 53 61 58 59 60 61 65 64 67 64 57 57 57 60 57 56 55 55 55 52 51 46 46 38 44 43 47 52 55 58 63 65 67 66
53 54 54 58 62 62 61 63 48 40 54 50 52 56 54 53 55 56 54 54 52 46 47 52 53 56 57 52 53 52 47 38 37 37 38 44 42 47 55 59 60 61 64 66 67
52 53 54 60 61 60 62 55 40 47 48 56 55 54 50 53 53 53 51 49 53 51 48 44 42 52 56 53 49 48 46 39 28 33 39 45 39 49 57 61 62 62 63 64 66
51 59 60 62 61 61 58 44 43 48 53 51 52 47 47 51 51 50 49 50 53 53 45 43 41 53 54 55 54 46 42 48 40 41 35 42 47 53 59 58 59 60 61 62 63
54 58 62 61 59 59 52 43 48 54 55 53 44 49 43 47 46 47 47 52 51 55 55 48 39 50 53 54 53 50 52 38 40 28 28 39 40 44 51 55 56 58 59 61 63
55 58 63 59 60 55 44 46 50 57 56 50 48 46 48 47 48 46 47 52 54 54 53 50 44 44 48 46 46 45 44 43 42 39 32 31 40 53 53 56 54 57 59 60 61
52 53 61 61 51 44 46 48 49 53 57 54 52 51 48 48 46 46 46 51 56 55 48 52 44 39 43 53 53 50 46 45 34 32 36 36 38 58 57 58 57 58 60 61 61
48 50 60 60 44 44 47 48 50 51 52 51 49 51 50 47 42 46 48 55 55 53 48 48 42 36 39 42 45 43 46 47 44 41 35 32 40 56 58 58 59 57 58 58 59
49 48 53 51 47 44 41 43 45 53 51 50 49 50 46 44 48 45 45 51 53 52 53 50 44 38 34 39 44 40 43 46 44 33 38 39 43 50 53 54 56 57 57 58 58
46 42 43 44 44 42 41 42 42 43 49 49 46 44 42 39 41 41 46 47 50 51 51 48 38 41 43 44 45 44 44 45 42 43 36 41 43 49 53 54 55 57 56 56 57
44 44 44 43 41 40 41 41 40 43 43 43 42 43 42 39 41 38 43 43 41 48 46 47 38 42 39 43 43 39 43 44 45 45 44 45 43 55 57 58 55 56 56 55 57
44 46 44 42 40 40 42 42 41 42 45 46 43 40 40 44 46 47 47 46 46 43 43 42 38 36 33 42 41 35 42 45 46 49 47 41 49 57 54 55 55 56 57 56 57

GFSSW_sfc_temp_072.txt.gz
Temp
60 60 60 59 59 59 59 59 59 59 60 60 60 60 60 61 61 71 70 73 74 69 69 81 82 83 84 83 86 86 73 69 72 73 76 82 76 83 89 85 89 89 89 92 97
60 60 60 59 59 59 59 59 59 59 59 60 60 60 60 60 68 72 73 68 68 70 79 78 77 79 79 80 81 77 72 72 81 82 80 83 80 80 78 80 84 88 91 95 96
59 59 59 59 59 59 59 59 58 59 59 59 59 59 60 64 69 76 70 69 69 72 79 79 79 78 75 79 78 77 71 80 81 83 83 81 82 85 75 73 80 82 86 91 92
59 59 59 59 59 59 58 59 58 59 59 59 59 59 60 70 64 80 71 70 71 80 79 77 76 73 72 71 79 70 77 78 81 82 80 78 82 80 79 77 82 84 87 89 90
58 58 58 58 58 58 58 58 58 58 58 58 59 59 67 70 73 82 72 73 80 79 77 75 73 73 69 73 75 70 74 77 79 80 80 81 78 77 79 82 82 84 86 87 89
58 58 58 57 58 58 58 58 57 57 57 57 59 59 68 66 83 83 82 80 81 80 77 77 74 75 71 71 70 74 74 75 77 77 78 75 77 79 80 82 78 81 82 86 87
57 57 57 57 57 57 57 57 57 57 57 58 59 67 67 73 84 83 82 82 82 80 76 79 79 74 73 69 74 72 66 71 73 75 74 78 71 72 81 80 79 80 81 84 86
57 57 57 57 57 57 57 57 57 57 58 59 60 69 68 83 86 82 84 82 83 83 79 81 81 76 72 74 70 66 68 62 74 73 75 73 64 74 76 77 76 75 79 81 84
57 56 56 56 57 57 56 56 57 59 59 60 65 66 68 77 78 83 85 79 81 81 80 80 79 72 71 66 64 65 59 61 65 71 70 69 66 77 75 74 71 71 76 80 81
56 56 56 56 56 56 55 57 60 62 66 70 71 63 74 72 78 80 85 81 77 76 73 72 72 66 68 65 55 59 58 60 60 68 68 67 67 73 75 74 72 72 72 75 79
56 55 55 56 56 55 62 71 68 66 68 68 68 67 70 77 80 79 82 78 76 72 64 69 63 60 64 64 64 61 59 58 63 68 64 64 66 70 74 74 73 72 71 72 75
55 55 55 56 55 55 65 72 68 70 63 71 71 71 74 75 68 75 82 70 69 63 66 63 59 66 65 64 61 61 58 59 63 66 63 63 63 69 72 73 75 75 73 73 74
54 55 55 55 55 62 74 70 77 73 64 68 71 71 73 75 69 71 77 73 67 63 63 59 63 67 63 61 59 60 57 58 57 62 64 62 59 65 70 73 74 75 75 73 71
54 55 55 54 59 76 73 75 78 74 60 62 67 71 73 74 66 78 79 73 67 62 63 63 67 62 61 59 62 55 64 60 57 55 51 63 48 61 67 68 69 72 73 74 73
54 55 55 52 72 75 72 78 78 71 45 65 67 80 75 69 70 71 79 73 63 64 63 60 61 60 58 61 63 58 62 59 58 55 55 56 52 60 63 61 65 69 71 73 75
54 55 55 64 73 75 77 75 73 55 43 59 67 65 65 68 68 71 70 74 72 66 66 64 71 65 64 63 63 63 59 59 59 56 46 55 55 58 62 62 67 69 71 72 74
53 54 59 73 72 77 77 72 55 48 61 56 59 63 63 62 63 64 63 62 59 53 54 61 62 67 65 59 62 60 55 46 44 46 44 54 50 56 62 65 66 67 69 70 72
52 53 59 75 77 74 73 62 46 55 56 61 60 61 58 62 62 61 59 57 63 61 56 52 50 60 64 61 58 58 55 46 36 42 48 53 46 57 66 68 67 69 69 71 72
51 71 73 76 74 73 67 53 51 55 58 56 59 54 57 58 57 58 58 58 62 62 52 52 51 61 61 64 61 56 49 58 47 50 45 51 57 61 64 64 66 66 67 69 70
68 72 75 74 72 70 61 50 56 60 59 58 50 55 50 55 53 55 55 59 57 62 64 57 45 59 60 61 62 57 61 46 48 35 36 48 51 54 57 61 64 64 66 68 70
66 66 71 74 71 66 52 57 57 62 61 55 53 52 53 53 55 54 54 59 61 60 62 59 52 52 57 53 52 53 51 52 52 49 38 39 49 61 60 62 61 64 67 68 69
65 62 73 74 61 64 57 57 51 59 63 59 58 55 53 55 53 53 53 58 62 62 54 59 50 45 49 59 62 58 53 51 39 38 45 43 46 65 63 65 64 65 68 69 69
61 65 74 69 55 59 59 58 57 56 57 56 54 57 57 52 47 54 54 61 62 59 55 56 49 40 45 50 53 50 54 54 52 49 40 37 47 64 64 65 67 66 68 68 68
60 57 65 68 62 54 51 52 52 58 56 56 55 56 53 51 56 51 53 57 59 59 54 54 48 41 36 44 43 42 47 53 50 37 43 47 50 58 62 63 65 66 68 68 68
59 53 52 55 59 53 52 52 50 49 56 57 53 51 50 46 50 50 53 55 58 57 56 53 43 47 50 51 50 48 47 48 44 47 40 48 50 57 61 63 65 66 66 66 66
54 54 57 55 53 51 49 53 50 52 50 50 49 52 53 45 49 46 50 51 49 55 52 54 43 47 44 49 50 45 49 51 52 52 52 53 52 63 66 67 65 65 65 65 66
58 57 53 52 52 50 54 52 51 51 52 53 51 49 47 51 55 55 55 54 53 50 49 47 42 38 37 48 46 41 49 52 53 55 54 49 57 64 62 63 63 64 65 64 65

GFSSW_sfc_temp_075.txt.gz
Temp
60 60 60 60 60 60 60 60 60 60 60 60 61 61 61 61 61 73 75 76 78 71 71 85 88 88 90 87 91 92 75 70 74 77 80 90 85 88 89 84 90 95 93 96 100
60 60 60 60 60 59 60 60 59 59 59 60 60 60 60 60 70 81 72 72 71 71 81 83 82 86 83 84 86 82 74 74 83 85 84 88 88 86 82 82 81 85 96 98 99
60 60 60 59 60 59 59 59 59 59 60 60 60 60 60 64 72 81 71 71 71 72 85 86 86 84 79 85 84 82 74 82 84 87 89 87 88 90 84 77 82 79 87 93 94
59 59 59 59 59 59 59 59 60 59 59 59 59 59 60 70 67 83 72 71 71 80 86 83 82 78 76 76 84 77 82 83 85 87 87 84 88 84 86 85 88 86 89 91 91
59 58 59 59 59 58 58 59 59 59 58 58 59 59 68 74 79 83 73 74 83 86 83 81 79 79 75 80 81 78 80 83 85 85 84 86 83 83 84 90 91 88 85 88 90
58 58 58 58 58 58 58 58 58 58 58 58 59 59 69 69 90 90 87 85 86 85 83 83 80 81 77 78 77 81 80 80 83 84 83 80 81 83 84 90 89 87 85 86 89
57 57 57 57 57 58 58 58 58 58 58 59 60 69 73 76 90 91 88 87 88 85 81 85 84 79 79 74 82 79 72 76 78 80 79 82 74 76 85 88 86 85 86 86 88
57 57 57 57 57 58 58 57 57 58 59 59 60 72 70 90 93 88 90 86 89 88 85 86 86 80 77 81 75 71 72 66 77 79 80 78 66 80 87 85 84 84 85 86 86
57 57 56 57 57 57 57 56 58 59 60 61 66 72 73 78 81 89 90 83 86 86 85 86 83 76 78 69 67 71 63 67 71 79 76 75 69 79 86 82 79 81 83 83 86
57 56 56 56 57 57 56 56 60 60 65 73 78 69 78 76 84 85 90 86 81 81 78 77 75 70 72 69 58 65 66 68 66 74 73 70 71 78 83 80 78 79 80 80 83
56 56 56 56 56 56 61 73 69 68 74 73 74 73 75 82 85 82 87 82 80 76 68 75 68 64 69 72 71 68 64 63 69 75 70 68 69 74 79 80 78 79 79 79 80
56 56 56 56 56 56 64 76 74 76 67 79 78 78 80 81 73 79 87 74 73 66 73 68 63 71 74 70 66 65 63 63 69 73 70 67 66 73 76 77 79 79 79 80 80
55 55 56 56 56 60 80 76 84 81 68 74 78 77 78 80 73 75 81 77 71 68 69 65 69 72 70 66 63 64 62 62 62 68 70 65 62 67 75 78 79 81 81 83 81
54 55 55 55 56 84 78 82 86 81 63 67 71 77 79 79 71 83 84 77 72 66 70 68 74 66 66 63 66 59 69 66 63 60 54 68 52 65 71 72 75 77 78 80 78
54 55 55 52 75 79 79 86 85 77 48 70 73 86 81 74 75 76 84 77 67 68 69 64 68 65 62 65 69 62 69 64 63 59 58 59 56 62 70 68 71 74 77 78 79
54 55 55 68 79 82 86 83 78 58 46 64 73 70 71 73 73 77 75 79 77 69 70 69 76 72 69 70 69 69 65 63 63 59 49 57 57 59 65 67 70 73 75 77 78
54 54 57 78 77 86 84 77 58 51 67 63 64 70 69 68 70 71 68 67 63 57 58 66 67 73 73 64 69 65 58 47 47 48 47 63 57 61 68 70 72 72 75 76 77
53 51 64 81 85 83 78 66 49 62 63 69 65 68 63 68 68 68 65 62 68 65 60 55 54 67 71 65 61 61 58 48 37 40 47 58 50 61 72 75 74 74 75 75 76
50 73 75 82 82 80 69 56 56 63 64 62 65 60 62 67 62 64 62 61 66 68 57 55 55 70 67 69 67 60 54 61 50 52 46 53 60 68 70 70 70 71 72 73 75
68 76 78 81 81 74 64 54 64 67 66 65 55 61 56 62 61 61 61 66 61 67 69 60 50 64 66 68 67 62 66 48 45 36 37 49 51 54 61 64 68 68 70 72 73
67 70 75 82 77 68 57 63 66 71 68 60 59 57 59 58 60 59 59 66 68 65 67 63 55 55 62 58 56 57 53 55 55 50 37 39 48 61 58 61 66 69 71 72 74
68 64 78 81 63 69 62 65 55 65 70 66 63 60 57 58 56 57 56 62 70 66 58 63 53 47 53 63 65 61 56 54 40 40 47 46 48 65 65 65 69 70 71 74 76
64 67 77 75 57 63 66 65 67 64 64 62 60 63 63 57 50 56 59 67 68 64 58 59 51 41 46 55 53 49 49 54 56 53 43 38 46 66 65 67 70 69 71 73 74
65 60 70 71 69 59 59 58 59 66 62 64 61 62 58 55 59 54 57 64 65 64 57 57 52 44 38 45 49 41 43 47 39 40 45 46 51 54 50 50 65 70 71 74 73
69 62 60 59 63 61 60 59 57 57 64 64 57 58 56 50 53 53 58 61 64 63 61 57 45 48 50 53 53 51 52 54 49 50 44 47 47 57 62 65 69 71 72 72 70
59 58 65 59 61 59 56 57 57 59 59 56 54 57 58 52 53 50 54 55 54 59 57 58 46 50 47 52 53 50 54 54 54 54 53 55 53 63 66 69 68 69 71 70 70
67 66 59 54 59 57 59 58 57 59 60 60 57 54 52 55 59 59 59 58 57 53 52 51 48 43 38 50 49 41 51 53 54 58 55 48 55 65 64 65 67 65 64 69 70

GFSSW_sfc_temp_078.txt.gz
Temp
60 60 61 61 60 61 61 60 61 60 60 60 61 61 61 61 61 70 69 77 79 72 70 83 85 87 88 84 88 88 71 66 70 73 77 87 85 89 90 85 88 91 90 93 99
60 60 60 60 60 60 61 60 60 60 60 60 60 60 60 60 65 72 75 73 74 73 81 82 81 85 81 81 83 78 71 71 79 81 80 85 86 88 83 82 83 86 92 95 98
59 59 60 60 60 59 59 59 60 60 60 60 60 60 60 62 68 77 72 73 72 73 81 86 86 84 78 82 81 79 71 79 82 85 86 84 85 90 86 79 83 81 85 91 93
59 59 59 59 59 59 59 59 60 60 60 60 59 59 60 65 64 80 73 73 72 79 81 84 82 76 74 74 81 74 80 81 83 85 85 82 87 84 86 86 89 89 89 88 89
58 59 59 58 58 58 58 59 59 59 59 59 59 59 65 69 74 82 74 74 81 82 82 83 79 78 73 77 79 76 79 82 85 85 84 85 82 82 84 90 93 91 88 86 86
58 58 58 58 58 58 58 58 58 58 58 59 59 59 65 65 88 86 86 85 84 86 85 84 81 83 76 76 76 81 81 81 83 82 83 79 80 81 84 90 89 89 85 86 85
58 58 58 58 58 58 58 58 57 58 59 59 60 67 69 72 92 92 89 87 89 86 81 87 85 79 79 74 81 79 72 76 78 79 77 81 74 75 84 87 85 86 87 86 86
57 57 57 57 57 58 58 58 57 58 59 60 61 69 67 91 94 90 90 87 90 89 86 87 86 80 76 79 76 71 71 63 75 78 79 77 65 78 85 83 82 84 86 87 86
57 56 56 57 57 57 57 57 58 60 60 61 64 68 69 82 83 89 90 84 87 87 87 87 83 75 76 68 65 68 60 64 69 80 78 76 68 78 84 82 81 83 84 86 85
57 56 56 56 57 57 56 56 62 59 63 72 76 68 76 77 84 87 90 87 81 81 79 77 75 68 70 66 54 61 64 67 67 75 76 72 70 76 80 80 79 81 81 81 82
56 56 56 56 57 56 59 71 66 65 72 70 73 72 78 84 87 83 87 83 81 76 66 74 66 62 67 70 71 69 65 63 68 75 71 70 70 73 77 78 79 79 78 79 80
56 56 56 56 56 56 60 69 77 78 66 79 79 80 84 84 74 79 87 74 72 65 71 68 62 71 74 72 69 67 62 61 68 73 70 68 67 73 75 75 77 79 79 78 80
55 55 56 56 56 58 73 78 87 85 67 74 81 78 79 81 73 76 82 77 70 67 68 64 69 75 71 68 65 64 61 61 61 68 70 67 63 66 73 75 77 79 81 81 80
55 55 55 55 57 80 79 85 88 85 59 68 72 77 81 81 71 84 85 77 71 65 68 68 74 71 68 64 67 58 69 67 64 60 52 67 50 62 69 71 75 78 78 79 80
55 55 55 54 67 77 82 88 87 78 45 70 75 88 83 74 77 76 86 78 67 67 68 64 67 67 65 65 69 63 70 65 63 59 57 58 52 59 68 66 71 75 77 79 80
55 55 54 69 69 81 88 86 79 57 46 67 75 72 71 74 74 78 76 80 77 68 68 67 75 71 69 72 71 72 65 63 62 58 47 54 54 56 62 67 71 76 77 78 79
54 54 54 74 73 87 85 77 56 50 71 66 67 72 71 69 71 73 70 67 62 56 56 65 67 72 74 66 70 67 58 45 44 45 44 59 55 52 64 71 72 72 74 76 78
53 52 62 76 83 84 77 63 47 62 66 72 69 69 64 69 69 70 67 63 69 66 59 54 52 67 73 66 60 61 57 45 33 38 43 55 46 55 69 73 76 76 75 76 76
52 71 70 77 83 80 67 52 54 63 69 65 66 60 63 68 68 66 63 62 66 66 54 53 53 69 70 70 67 59 53 61 47 47 39 48 55 66 70 69 72 72 73 73 74
61 70 74 82 81 73 60 51 61 70 70 67 56 62 56 61 61 62 61 67 64 69 68 59 49 63 66 70 67 60 65 47 49 32 31 43 45 49 58 61 67 69 70 71 74
63 67 76 83 77 66 52 59 66 73 71 63 59 58 59 57 59 58 58 65 67 66 68 63 56 55 61 58 57 56 49 46 48 49 37 35 43 59 58 59 63 68 71 72 73
65 61 78 80 61 65 59 67 62 68 72 67 65 62 59 59 56 56 56 61 69 67 59 62 53 46 51 62 65 61 52 47 36 34 39 39 40 62 60 61 55 57 68 73 75
60 66 79 75 54 59 65 66 67 66 65 64 61 64 64 57 51 56 58 66 68 65 59 59 50 41 45 54 58 44 47 49 45 42 34 31 41 65 59 58 58 58 61 64 74
62 59 70 70 70 61 58 59 60 68 66 66 62 63 59 55 59 54 56 63 67 66 58 58 50 45 37 43 51 46 49 47 40 33 36 41 45 55 58 57 54 52 62 60 58
63 61 64 56 61 59 60 60 58 57 66 66 60 59 56 51 53 52 57 59 63 63 61 55 43 48 51 53 52 51 51 52 45 46 40 47 47 56 61 62 60 59 60 62 57
59 58 61 57 61 59 56 56 57 60 59 56 55 58 57 52 53 49 53 53 52 58 56 57 45 50 46 52 52 49 53 54 54 55 55 54 53 65 67 68 67 61 62 61 66
64 65 59 52 56 56 56 57 58 61 61 63 59 56 54 56 59 60 59 57 55 52 51 50 48 43 38 48 48 42 51 52 52 55 54 48 57 63 60 58 60 63 64 58 61

GFSSW_sfc_temp_081.txt.gz
Temp
60 60 60 60 60 60 60 60 61 60 61 60 60 60 60 60 60 61 55 69 68 72 71 75 76 77 77 71 74 72 59 56 59 63 67 77 73 79 84 78 82 88 87 88 90
60 59 59 59 60 60 60 60 60 60 60 60 60 60 60 60 55 59 71 74 73 72 74 72 70 73 65 67 68 65 56 59 68 71 70 75 76 76 76 76 75 80 87 91 88
59 60 59 59 59 59 59 60 60 60 60 60 60 59 59 59 56 67 74 73 73 72 74 74 75 71 62 66 66 66 60 67 71 75 77 75 76 81 75 68 75 76 81 87 86
59 59 59 59 59 59 58 59 59 60 60 59 59 59 59 56 52 71 73 73 73 74 74 72 70 59 57 58 67 60 70 72 74 77 76 74 77 76 76 74 81 82 84 83 81
58 58 58 58 58 58 58 58 58 59 59 59 59 59 57 56 61 75 74 73 75 74 71 69 67 63 57 63 66 63 67 74 76 74 72 76 74 73 75 81 81 84 83 82 79
57 58 58 58 58 58 58 58 58 58 58 59 59 59 55 53 79 79 76 75 77 74 74 74 68 71 62 62 59 67 68 68 70 69 70 70 70 72 77 79 80 80 79 78 79
57 57 57 57 58 58 58 58 57 57 58 59 60 62 59 59 82 79 79 75 79 81 75 77 76 70 67 61 68 68 60 65 67 68 66 71 65 68 76 79 76 78 77 77 78
57 57 57 57 57 57 58 57 57 58 59 59 60 58 53 79 78 77 79 80 83 83 80 79 77 68 63 66 66 59 57 49 62 69 71 66 57 70 74 74 73 76 77 77 75
57 57 56 56 57 57 57 56 58 60 61 60 54 53 58 80 78 83 81 79 81 82 79 86 70 63 65 55 50 53 46 51 59 70 69 66 61 71 75 74 70 71 74 78 75
57 56 56 56 56 57 56 56 59 59 60 64 67 56 66 71 80 83 83 83 77 76 73 70 62 55 53 48 39 48 50 56 56 64 67 62 63 68 71 70 68 69 70 72 74
56 56 56 56 56 56 55 60 54 53 61 60 63 67 73 83 85 79 83 79 76 68 56 63 52 48 54 59 61 60 58 55 60 67 62 60 59 64 68 66 65 65 67 68 71
56 56 56 56 56 56 51 57 68 68 58 70 69 72 79 82 72 76 82 68 65 56 62 56 50 62 67 66 63 60 55 52 59 65 63 58 57 63 65 65 65 66 66 66 66
55 55 55 56 55 51 57 67 76 73 56 66 74 72 74 77 70 72 76 70 63 58 58 53 60 70 67 63 60 57 54 53 54 61 62 57 54 57 65 66 69 70 72 69 66
55 55 55 54 54 65 66 77 76 73 46 61 69 74 76 74 67 80 80 72 65 58 60 58 66 66 63 60 60 50 62 62 59 51 40 56 40 53 58 62 66 69 71 72 67
55 55 55 54 53 61 72 76 73 66 33 68 70 81 77 68 72 72 81 72 61 61 60 56 60 59 58 61 65 56 64 59 57 48 45 48 40 51 56 56 62 67 69 71 72
55 55 54 60 56 65 74 74 67 46 37 63 71 68 66 69 70 74 72 74 71 61 61 59 68 64 62 67 67 67 59 56 50 45 38 47 45 47 52 56 59 64 70 70 66
55 55 52 62 61 74 75 64 44 39 67 62 65 68 65 64 66 68 65 59 52 46 48 58 60 66 70 60 64 61 51 37 32 32 35 50 47 49 54 62 65 63 65 65 66
54 53 54 63 68 72 65 52 38 56 59 70 67 64 58 63 64 65 61 55 62 60 53 45 45 61 68 62 55 53 47 37 29 26 35 47 37 45 59 65 66 71 66 69 65
52 60 60 65 70 68 55 40 43 57 64 63 62 56 55 61 61 61 59 56 59 60 46 43 46 63 66 66 62 51 46 48 39 40 30 36 45 55 58 59 60 65 67 61 62
50 57 64 72 70 62 50 45 53 64 66 64 52 56 49 55 54 54 54 63 62 65 63 53 42 58 62 64 61 54 55 39 36 28 25 33 40 41 49 53 56 57 60 63 62
51 55 68 74 68 53 41 49 59 69 68 60 55 52 53 52 53 51 53 60 64 62 62 57 47 49 55 50 47 48 39 40 37 32 28 26 32 52 48 51 51 53 55 57 58
52 48 69 70 52 51 48 57 59 64 67 63 60 56 52 53 51 51 51 56 66 63 54 56 46 37 45 55 59 51 42 37 31 29 34 31 31 55 51 52 53 53 56 58 59
47 53 68 65 44 48 56 60 63 62 61 59 57 58 56 50 43 51 53 62 65 61 55 51 39 31 36 43 49 43 46 47 41 36 30 29 30 54 56 53 54 53 56 60 61
50 48 57 57 58 53 50 52 55 65 62 63 58 58 53 49 52 49 52 60 63 61 59 54 43 36 30 37 42 41 46 47 36 29 32 34 38 47 51 52 51 50 54 55 58
50 50 53 47 49 50 52 53 53 53 62 61 52 54 51 43 46 46 51 53 57 58 52 48 36 40 44 47 48 47 47 47 44 40 35 41 42 47 54 56 53 55 54 56 59
44 47 51 49 52 51 50 51 53 54 54 52 49 54 52 44 47 43 46 45 45 50 45 44 35 41 39 47 47 44 47 48 48 49 48 46 43 49 53 53 52 49 56 57 60
48 50 48 47 48 47 48 51 50 54 56 57 54 51 48 50 51 49 48 47 47 43 40 39 35 32 29 43 43 34 44 47 47 48 43 38 40 45 45 47 48 48 48 51 53

GFSSW_sfc_temp_084.txt.gz
Temp
60 60 60 59 59 59 60 60 60 60 60 60 60 60 60 60 59 56 53 65 64 70 71 73 71 71 69 65 68 68 50 46 51 58 62 72 66 74 80 78 81 89 83 84 84
60 60 60 60 60 59 59 59 59 60 60 60 60 60 60 59 52 52 67 70 71 72 70 67 64 66 60 61 64 60 49 53 63 64 63 70 71 72 74 74 74 77 84 86 83
59 59 59 59 59 59 59 59 58 59 60 60 60 59 59 58 51 62 74 72 72 72 70 69 68 64 57 56 61 58 53 60 65 68 70 70 70 75 73 68 73 75 80 81 79
58 59 59 58 59 59 58 58 59 59 60 59 59 59 59 53 51 69 73 73 72 71 70 67 63 54 53 53 60 54 64 65 68 71 70 69 74 72 72 73 79 79 80 79 77
58 58 58 58 58 58 58 58 58 58 58 58 59 59 54 51 56 74 74 73 71 71 68 65 58 56 51 55 59 53 61 66 69 69 69 73 71 71 72 76 79 80 80 78 76
57 57 57 57 57 57 58 58 57 58 58 58 59 59 51 48 72 75 73 70 72 67 69 64 61 66 58 56 54 60 61 63 65 64 63 65 67 66 73 74 75 76 76 76 76
58 57 57 57 57 57 57 57 57 57 58 58 59 60 53 55 75 72 72 69 73 74 69 72 69 66 60 59 59 62 56 59 60 62 61 64 62 64 71 73 72 73 73 75 75
57 57 57 57 56 57 57 57 57 57 59 59 60 55 50 70 68 70 70 72 76 75 75 76 71 62 58 59 61 54 50 45 57 63 66 63 55 66 71 69 69 72 71 74 73
57 56 56 56 56 56 57 56 57 59 61 60 52 50 52 72 69 75 75 72 76 77 75 82 68 60 60 50 45 46 41 47 54 63 63 61 58 67 70 69 68 68 69 70 70
57 56 56 56 56 56 56 56 57 58 60 62 64 51 60 67 76 78 76 78 73 71 69 64 57 52 48 45 37 44 44 50 50 58 59 55 56 62 66 66 67 65 66 67 67
57 56 56 56 56 55 52 54 55 51 55 57 59 60 68 78 80 75 79 74 71 64 53 58 49 45 51 52 56 54 51 49 54 62 56 54 55 58 63 62 62 62 63 64 65
56 56 56 56 56 55 49 53 61 62 53 62 66 66 73 75 67 73 78 65 62 53 56 51 46 58 60 60 57 55 51 49 55 61 57 55 54 58 61 62 63 63 63 63 63
56 55 56 56 55 51 53 62 70 66 53 62 67 65 67 70 65 68 72 66 60 54 53 48 55 64 62 58 56 54 50 49 51 56 55 52 48 53 59 61 64 64 64 65 63
55 55 55 54 55 57 59 70 68 64 44 55 64 68 70 68 64 76 75 68 59 55 55 52 61 60 57 55 56 47 58 58 55 48 40 51 38 47 54 56 60 63 62 62 64
55 56 55 54 51 56 68 68 67 62 33 64 65 77 72 65 67 68 76 67 58 58 56 53 55 55 54 57 60 54 61 56 54 46 41 44 39 42 51 53 58 62 65 66 65
56 56 55 54 49 60 66 68 65 45 35 60 68 64 61 65 66 68 68 68 67 58 56 57 63 59 58 63 62 63 55 51 47 41 35 41 41 45 47 52 54 59 62 65 63
57 56 53 58 58 64 64 60 43 35 61 58 60 63 60 58 62 63 60 55 51 44 44 55 57 63 65 55 58 53 43 32 33 31 34 45 40 46 52 57 59 58 60 60 59
56 53 53 57 56 63 60 51 36 51 55 65 63 60 54 58 58 59 55 49 54 52 47 44 42 56 64 57 49 49 46 37 28 25 33 43 33 42 55 58 60 60 61 63 61
54 54 55 60 59 61 53 40 42 53 61 58 58 51 51 58 57 54 49 50 55 53 44 41 44 59 62 62 59 49 44 53 41 42 31 33 39 50 56 58 58 55 56 56 60
53 50 56 67 65 59 48 43 50 60 62 60 48 53 46 51 50 50 49 57 56 59 53 47 38 55 59 61 60 53 52 39 36 27 26 32 34 36 46 49 54 55 52 52 53
50 49 64 68 64 53 41 45 55 64 64 57 51 49 50 47 48 47 50 56 60 58 55 49 43 45 52 49 47 45 41 36 34 30 27 23 29 45 47 50 50 53 55 50 53
46 44 64 66 50 48 45 54 57 61 63 59 56 53 49 49 46 47 48 52 61 58 49 49 41 35 43 53 56 48 40 37 28 29 31 30 30 52 54 52 52 55 56 54 54
43 47 62 62 43 45 53 56 60 59 58 57 55 54 53 47 41 49 51 59 60 55 48 48 37 29 35 41 46 41 43 42 38 33 27 26 29 51 51 53 53 53 56 56 56
41 40 52 54 54 48 46 49 51 60 58 58 55 54 49 46 50 44 48 56 59 57 57 51 39 36 29 35 38 37 42 42 35 24 31 33 38 46 49 49 51 49 52 53 52
46 42 47 41 45 46 48 49 47 47 56 57 51 51 47 40 44 45 48 50 55 56 48 44 35 38 41 43 44 42 42 44 38 38 32 39 41 45 43 44 46 47 51 53 55
42 42 44 42 47 45 44 44 45 47 49 47 46 49 49 42 44 41 44 44 43 47 42 40 32 36 36 43 43 40 44 44 44 44 42 42 40 43 47 47 48 49 50 50 50
46 47 43 42 43 39 41 42 43 47 51 52 49 46 45 49 50 49 47 47 46 42 40 37 33 29 28 39 39 31 39 42 42 44 43 35 40 46 45 48 47 46 48 49 50

GFSSW_sfc_temp_087.txt.gz
Temp
60 60 60 60 60 59 60 59 59 59 59 60 60 60 60 60 59 53 51 65 63 68 70 69 69 68 68 61 63 62 49 45 51 56 61 65 64 69 75 72 78 82 78 80 81
59 59 59 59 59 59 59 59 59 59 59 60 60 60 59 59 51 49 64 70 69 71 67 64 62 64 59 58 60 56 46 50 58 62 60 65 63 70 69 71 70 76 81 81 79
58 59 58 59 59 59 58 58 58 59 59 60 59 59 59 57 50 63 72 70 70 71 67 67 66 62 53 55 57 52 50 56 62 65 65 64 65 69 69 67 70 72 75 77 75
58 58 58 58 58 58 58 58 58 59 58 58 59 59 59 51 49 66 73 71 72 69 66 65 60 54 50 53 57 51 60 60 63 67 64 64 70 68 67 70 75 78 76 77 75
58 58 58 58 58 57 58 58 58 58 58 58 58 59 52 48 54 71 73 72 69 68 66 63 56 54 49 54 54 52 57 62 65 63 62 66 65 67 69 73 76 76 77 74 76
57 58 58 57 57 57 57 57 57 57 58 58 58 59 49 47 68 72 70 68 68 63 65 62 60 61 54 53 51 57 57 58 60 62 59 61 64 62 67 72 72 73 74 75 71
57 57 57 57 57 57 57 57 56 57 58 58 59 58 50 56 70 69 69 64 68 70 67 67 66 61 58 55 56 57 52 56 57 59 59 61 58 60 67 68 69 70 71 72 74
57 56 56 57 57 56 57 57 57 57 58 59 59 53 49 66 65 65 66 68 72 71 70 71 69 61 56 56 57 51 47 42 54 58 63 61 51 63 68 65 65 68 68 70 70
57 56 56 56 57 57 56 56 57 58 60 60 50 48 51 69 66 71 70 69 71 72 70 78 65 57 58 47 43 44 38 43 51 58 59 58 52 62 65 63 63 64 66 67 68
57 56 56 56 56 56 55 56 57 57 60 60 61 50 58 65 71 72 70 72 68 68 65 63 54 49 45 43 36 40 41 46 46 55 55 54 52 58 63 61 61 61 62 62 64
57 56 56 56 56 55 51 52 53 50 52 56 58 58 66 74 76 72 73 69 67 62 52 54 47 43 49 50 52 50 47 46 52 59 53 52 52 55 59 58 59 60 59 60 61
56 56 56 56 56 55 48 53 60 58 51 59 63 63 70 71 63 68 74 63 59 52 53 49 44 54 56 55 52 49 46 46 52 57 52 52 51 55 57 58 59 60 60 60 60
56 56 56 56 55 51 53 59 65 60 49 58 62 61 63 66 61 63 69 63 57 51 51 46 53 60 56 53 51 49 45 46 48 54 53 50 46 51 56 57 61 61 62 61 61
55 55 56 55 53 56 57 66 64 61 42 53 59 63 64 65 60 72 72 65 56 52 52 49 58 56 54 51 53 44 54 55 52 46 40 50 40 45 51 53 56 59 59 60 61
55 56 57 55 51 56 66 63 62 62 35 61 60 72 66 62 63 66 70 63 55 55 53 50 53 52 50 54 56 50 57 52 51 44 38 41 36 41 49 50 55 57 59 59 60
56 56 55 51 48 59 64 63 62 44 34 58 66 62 59 60 62 66 65 65 63 54 53 55 58 57 55 60 57 59 51 47 42 38 31 41 40 40 44 51 52 56 59 61 60
55 56 53 58 56 61 63 60 45 37 58 55 58 63 60 58 59 60 57 53 49 42 42 51 53 58 60 51 54 50 40 29 28 29 31 42 37 40 49 56 56 55 58 60 59
54 53 53 56 55 60 60 51 37 51 52 62 60 58 53 57 56 56 53 47 54 49 43 40 41 55 61 56 47 45 43 34 25 25 34 41 32 41 52 56 57 55 53 54 55
52 52 50 55 55 57 54 41 42 52 58 55 56 50 49 55 54 52 49 50 52 51 41 40 42 56 59 60 56 46 41 45 36 33 24 32 38 47 51 52 53 54 55 52 52
48 47 51 60 59 58 49 43 49 58 60 58 48 52 45 48 48 48 47 55 53 56 52 46 36 52 56 59 58 52 52 37 34 26 25 29 31 35 43 46 51 52 51 53 54
45 44 58 61 62 53 41 46 53 62 62 55 51 49 49 48 48 47 49 54 57 56 55 48 41 42 49 48 46 45 40 38 37 34 27 26 28 41 43 47 47 48 51 53 53
42 40 58 60 47 46 44 52 55 58 61 58 56 52 48 49 45 47 48 52 57 53 46 48 41 34 42 50 52 47 42 37 26 26 33 28 30 49 49 48 47 47 53 59 60
38 39 54 58 39 41 49 52 57 55 53 52 52 54 52 47 41 47 49 57 56 51 45 46 37 29 34 39 44 40 41 39 36 34 29 21 30 48 48 48 51 47 51 54 56
39 36 44 48 47 42 41 46 47 58 53 52 52 53 48 45 49 44 47 54 57 54 56 51 39 36 31 36 38 38 42 41 34 22 29 31 36 43 46 43 45 45 47 49 50
44 42 43 34 43 41 44 41 41 44 53 53 47 46 43 38 42 44 48 49 54 56 47 43 36 37 40 41 41 40 40 40 34 36 29 37 36 41 40 43 43 45 47 50 51
42 41 44 41 44 39 40 39 39 42 45 43 43 45 44 37 40 36 43 43 42 49 42 37 31 34 35 41 40 38 41 40 40 42 40 40 37 44 46 45 45 48 50 49 50
45 47 42 41 41 39 40 42 42 43 45 49 47 43 41 44 50 49 47 48 48 45 40 36 32 28 28 37 37 30 36 39 40 39 39 34 37 41 42 45 45 46 47 49 48

GFSSW_sfc_temp_090.txt.gz
Temp
59 59 59 59 59 59 59 59 59 58 59 59 60 59 60 59 58 51 49 63 61 69 70 67 67 67 64 60 62 59 46 43 46 52 57 63 60 65 70 69 72 77 76 79 76
59 59 59 58 58 59 58 58 58 58 59 59 60 59 59 59 51 47 63 69 69 70 65 62 60 64 57 56 58 55 44 48 55 56 58 59 60 64 64 67 67 72 79 78 77
58 59 58 58 58 58 58 58 58 58 59 58 59 59 58 58 47 61 72 69 70 70 64 64 63 61 52 54 54 52 49 54 59 61 62 60 62 65 62 63 67 68 70 75 73
58 58 58 58 58 58 58 58 58 58 58 58 58 58 59 50 47 63 73 70 71 66 64 62 58 51 49 51 56 50 58 59 59 63 60 60 64 62 63 66 72 74 74 74 73
58 58 58 58 58 57 57 58 58 58 57 58 58 58 50 46 55 67 72 72 67 66 62 60 54 52 47 50 52 50 54 59 62 60 60 63 61 61 61 69 72 73 71 73 72
58 57 57 57 57 57 57 57 57 57 57 58 58 58 47 45 64 68 67 66 66 62 64 61 58 58 53 50 49 54 54 57 59 59 58 58 61 60 64 68 70 69 69 69 71
58 57 57 57 57 57 56 56 56 57 57 58 58 57 47 54 66 66 66 62 66 67 63 63 63 59 57 51 54 53 49 54 56 59 58 58 57 57 65 67 66 67 69 69 69
57 57 57 57 57 57 57 57 56 57 58 59 59 51 48 63 63 62 64 65 68 68 65 67 65 57 53 54 54 47 45 39 52 55 60 59 49 62 63 60 61 63 65 67 69
57 56 56 56 57 57 56 56 57 58 59 60 49 46 50 67 64 69 67 66 68 69 67 75 62 54 54 46 42 42 37 39 49 55 55 54 48 60 62 62 60 60 61 62 63
57 56 56 56 56 56 55 56 58 58 59 59 59 47 56 61 68 69 67 69 65 64 63 59 52 47 43 42 35 38 39 43 44 53 51 49 49 56 60 57 59 58 59 59 60
58 57 56 56 56 55 51 50 51 49 51 53 56 56 63 71 72 66 69 66 64 58 49 52 46 42 46 47 49 46 44 43 48 56 49 49 49 53 57 56 57 58 58 59 59
57 57 57 56 56 55 47 52 57 57 48 58 59 59 66 68 61 64 70 60 56 49 51 47 42 51 53 52 49 47 43 42 48 53 49 48 47 52 54 56 58 59 59 59 60
56 56 56 56 55 50 52 60 62 57 46 56 59 58 60 64 58 60 67 60 54 49 48 44 51 56 53 50 48 46 42 43 45 51 49 47 44 49 55 54 58 58 59 58 59
56 56 56 55 54 56 56 65 62 60 43 51 56 60 62 62 57 68 69 63 53 51 49 47 54 54 49 48 49 42 51 52 49 43 36 46 37 44 50 53 55 58 56 57 59
55 56 55 55 49 53 62 61 63 60 34 58 58 69 62 60 61 61 68 62 53 52 51 48 49 47 47 51 53 48 54 50 48 41 36 40 32 40 45 47 52 56 57 57 58
55 56 55 50 45 52 57 60 62 45 35 56 62 58 57 60 60 62 62 64 61 52 51 52 55 55 53 57 55 56 48 44 38 36 29 39 36 37 42 48 52 57 57 57 57
55 55 53 55 53 54 56 56 41 36 58 54 55 60 58 56 57 58 55 52 48 40 40 49 52 55 58 51 51 47 39 29 28 28 32 39 35 38 47 54 52 52 54 55 55
54 52 51 54 51 54 56 48 33 51 52 59 57 57 53 57 56 55 52 47 50 47 42 40 40 53 59 52 47 45 42 32 25 26 34 39 31 38 49 53 53 53 53 54 54
52 49 49 53 52 51 51 36 39 49 56 53 55 50 51 55 55 53 50 50 52 49 41 37 40 55 58 59 55 44 38 44 35 32 22 32 38 45 49 50 51 52 52 51 51
45 44 51 56 55 54 45 42 48 56 58 57 47 52 46 50 50 49 49 55 54 54 51 45 36 50 54 56 54 49 51 37 34 26 24 28 31 35 43 45 48 49 49 50 52
43 46 56 56 56 49 38 43 51 59 58 50 47 46 48 47 48 47 49 54 55 53 52 47 41 42 48 45 44 43 38 38 37 34 25 22 28 41 43 44 44 45 47 47 50
41 43 56 56 45 40 39 47 52 56 57 53 51 48 47 49 46 46 47 52 57 53 45 46 42 34 40 48 49 45 41 38 30 27 29 28 29 49 46 45 44 45 47 49 50
38 38 52 53 38 38 43 48 52 50 51 50 47 48 49 46 39 46 48 56 57 52 48 47 35 29 33 39 42 39 40 38 34 31 27 26 30 45 45 45 45 43 45 47 50
39 36 41 43 42 42 40 40 42 51 51 49 48 48 44 42 46 40 45 51 55 54 57 51 40 35 30 35 38 38 41 40 35 27 31 31 36 43 43 40 42 43 44 45 47
40 38 40 33 38 39 42 42 39 41 49 50 44 44 40 36 39 37 44 45 50 54 50 45 33 36 39 42 40 38 40 41 33 37 30 37 34 42 39 40 42 44 45 48 49
38 37 38 39 44 42 41 41 40 43 43 41 41 42 42 37 38 36 39 40 39 47 44 38 32 32 33 41 39 35 40 39 39 39 37 37 37 42 43 43 43 44 45 46 47
45 44 40 39 40 39 40 42 42 44 44 45 44 39 39 42 45 45 46 46 45 41 38 35 33 28 27 36 34 29 36 37 38 40 38 32 36 39 40 41 41 42 44 44 45

GFSSW_sfc_temp_093.txt.gz
Temp
59 59 59 59 59 59 59 59 59 59 59 59 60 60 59 59 59 58 60 72 67 69 70 75 76 75 75 73 74 71 64 57 60 61 66 71 71 78 80 78 80 84 83 88 88
59 59 59 59 58 59 59 59 59 59 59 59 58 59 59 59 56 55 69 68 69 70 74 73 70 73 70 69 71 69 61 61 67 70 69 72 71 73 73 75 76 79 86 89 86
59 59 58 58 59 58 58 58 58 58 59 59 58 58 59 59 55 70 72 69 70 72 75 74 73 72 67 69 67 65 63 65 67 71 73 71 71 75 72 70 75 75 81 87 88
59 59 59 58 58 58 58 58 58 58 58 58 58 58 59 54 61 73 73 70 71 74 75 72 70 67 65 64 67 63 67 68 70 72 71 69 74 72 73 76 82 83 83 83 84
58 59 58 58 58 57 57 57 57 57 57 57 58 58 57 58 65 74 72 72 73 73 73 70 69 67 64 65 65 63 66 68 71 70 70 70 70 71 72 79 82 82 80 81 83
58 58 58 58 57 57 57 57 56 56 57 58 58 58 55 58 74 74 73 72 74 74 72 72 71 72 67 66 65 67 66 68 70 70 69 68 71 70 74 78 79 79 81 81 81
58 58 58 57 57 57 57 57 56 57 58 58 58 58 55 65 74 74 74 73 74 74 72 73 74 71 70 65 68 66 63 66 69 71 69 69 66 66 76 74 75 76 77 79 80
58 57 57 57 57 57 57 57 57 57 58 59 59 57 58 71 72 71 73 72 74 75 74 76 75 71 69 68 65 62 61 58 66 66 69 69 61 71 74 72 73 73 75 75 77
58 57 57 57 57 57 56 56 56 57 59 60 57 56 61 72 68 75 75 73 74 74 74 77 74 66 66 62 59 57 55 54 60 67 66 65 61 71 76 72 71 73 74 75 76
58 57 57 57 57 57 55 57 57 59 60 61 61 55 65 67 73 73 74 76 72 72 69 68 67 63 61 60 51 52 53 55 55 64 65 63 63 68 72 72 71 72 74 75 75
57 57 57 57 57 56 55 59 59 56 57 61 63 61 66 74 77 72 73 72 71 68 61 62 60 56 60 60 60 57 54 53 59 64 59 62 61 65 70 69 72 74 75 74 75
57 57 57 56 56 55 54 62 66 66 56 62 63 63 69 71 64 70 76 67 64 59 61 59 55 63 62 60 57 56 54 54 59 63 60 62 60 66 68 69 72 73 74 75 76
56 56 56 56 55 55 57 64 69 68 57 60 62 61 64 68 63 65 72 68 63 59 59 56 60 61 59 58 55 56 54 55 55 61 62 58 58 61 68 67 71 72 73 73 73
55 55 56 55 55 60 62 68 70 67 50 56 60 64 66 67 62 73 75 70 63 59 58 59 65 59 58 56 58 52 62 59 56 54 50 58 46 59 63 65 67 71 73 73 72
55 56 55 55 56 60 66 67 68 65 39 61 61 72 68 64 67 65 74 70 61 59 59 57 58 57 55 59 60 57 61 59 58 55 51 54 48 56 60 60 65 70 70 69 70
55 55 55 54 52 61 64 66 66 51 39 58 63 60 60 64 64 67 67 71 69 62 60 61 65 63 63 63 63 64 60 57 52 52 43 52 51 54 58 61 63 67 67 66 68
55 55 53 57 58 62 63 65 50 42 60 55 58 62 60 59 61 63 59 58 56 50 51 58 59 65 64 59 64 60 53 45 43 43 42 52 47 53 61 65 66 63 64 66 68
54 52 53 57 61 61 63 57 40 51 53 61 59 61 55 59 59 59 56 55 59 57 53 48 46 58 64 60 58 56 55 47 36 39 44 53 44 53 63 64 63 64 64 66 67
52 55 58 61 59 58 60 46 46 50 57 55 58 54 52 54 55 54 53 54 57 57 49 47 47 59 61 63 62 54 50 57 47 48 39 46 52 57 61 61 61 63 64 64 64
49 51 60 61 61 61 55 45 52 58 58 57 47 52 45 49 50 48 45 53 55 59 60 53 45 55 59 61 59 56 60 47 49 33 32 44 45 46 54 55 59 60 61 62 63
51 55 63 62 62 58 48 48 54 60 60 52 47 46 46 44 47 44 47 54 57 57 58 55 49 50 54 52 52 53 50 48 47 43 33 33 43 54 54 57 55 59 60 61 61
49 52 63 61 54 50 49 49 51 55 59 55 53 48 45 46 41 43 43 50 57 53 46 54 48 42 47 57 55 52 51 50 40 36 38 36 38 60 59 58 57 58 59 60 61
46 48 61 60 45 46 48 50 53 51 53 52 50 51 50 44 37 45 46 55 56 52 46 52 44 37 41 48 50 48 51 50 46 44 37 33 41 57 56 58 59 57 58 59 59
50 45 51 53 49 44 42 44 45 52 51 52 50 49 46 41 43 41 41 49 52 51 54 50 42 41 37 43 47 43 47 48 45 36 41 42 46 52 55 55 56 56 57 57 58
50 42 45 39 43 44 44 44 42 42 49 51 46 47 44 37 39 39 42 45 48 50 49 43 36 44 46 47 47 45 45 47 44 45 39 45 46 52 54 54 55 54 55 55 57
46 46 48 44 46 44 43 43 42 42 43 42 40 43 42 37 38 37 39 39 39 46 43 47 37 43 40 45 46 42 45 46 46 46 46 46 45 55 55 53 53 54 55 54 56
48 49 46 43 44 42 42 42 41 44 46 48 45 40 39 41 45 45 46 45 41 38 38 42 41 39 34 43 41 36 44 45 46 48 47 41 50 52 51 51 52 54 54 53 54

GFSSW_sfc_temp_096.txt.gz
Temp
59 59 59 59 59 58 59 59 59 60 59 59 60 60 60 60 60 69 71 77 76 71 69 83 84 85 86 83 84 85 72 71 72 73 77 82 81 86 88 84 88 90 90 94 97
59 59 59 59 59 59 59 59 59 59 59 59 59 59 59 59 67 71 78 70 70 71 82 81 79 83 81 81 82 78 72 74 78 79 78 81 80 82 81 82 84 86 92 96 96
59 59 59 59 59 58 58 58 59 59 59 59 59 59 58 63 68 79 72 70 70 73 85 85 84 82 77 81 79 77 72 80 77 79 80 77 80 83 79 78 84 84 88 92 94
59 59 59 58 58 58 58 58 59 59 59 58 58 58 59 67 67 82 72 71 71 84 84 82 81 77 76 73 80 71 78 79 79 80 79 77 81 79 79 82 88 89 91 91 91
59 59 59 58 59 58 58 58 58 58 58 58 58 58 65 69 76 82 72 73 80 82 82 80 78 79 74 77 75 73 76 78 80 79 80 80 78 79 80 85 90 89 89 90 91
58 58 58 58 58 58 58 58 57 57 57 58 59 58 67 67 83 84 84 82 84 84 82 83 80 82 77 76 74 77 77 77 78 79 80 75 78 79 81 86 85 87 87 90 91
58 58 58 58 58 58 58 57 57 57 58 58 59 65 66 74 84 85 84 84 86 84 80 83 83 79 78 73 78 76 70 76 77 79 77 79 72 74 82 85 83 85 86 87 89
58 58 58 58 58 58 58 57 57 57 58 59 60 67 67 82 85 82 85 82 84 85 83 84 84 80 77 78 73 70 71 67 77 75 77 74 68 79 81 80 80 82 84 84 87
58 57 57 58 58 58 57 56 57 57 59 60 65 66 68 74 75 84 85 80 82 82 83 83 82 76 74 70 68 69 64 65 69 76 75 73 70 77 82 81 78 81 83 85 86
58 57 57 57 58 57 56 57 57 59 64 69 69 62 73 73 80 83 85 83 79 79 76 75 76 70 72 69 60 64 63 65 65 72 72 71 71 77 81 80 79 81 83 84 85
58 57 56 57 57 56 58 65 64 62 66 69 72 70 74 80 83 80 82 80 79 76 67 73 67 64 69 70 70 66 63 62 68 73 68 69 70 73 78 79 79 81 82 83 84
57 57 57 56 56 55 63 68 72 71 64 75 72 74 77 78 71 77 83 73 71 66 71 67 62 71 73 69 66 65 62 63 68 71 68 68 68 74 77 78 79 80 81 82 84
56 56 56 56 56 59 70 73 79 76 63 67 69 68 71 75 69 73 78 75 69 66 67 64 68 70 69 66 63 64 62 63 63 69 70 67 65 69 76 78 79 81 83 83 83
55 56 56 55 56 72 72 78 81 76 60 64 67 70 70 73 66 79 81 76 71 65 68 67 73 68 65 64 66 60 70 67 64 62 57 68 53 65 72 73 75 78 80 82 81
55 56 55 55 63 67 74 80 81 73 48 67 66 78 73 70 71 70 80 75 66 66 67 64 65 64 63 65 69 63 70 66 65 62 61 62 58 65 71 67 72 76 79 77 77
55 56 55 63 63 71 76 76 74 57 46 63 69 67 66 69 69 69 70 76 73 68 68 67 74 69 69 70 69 71 66 66 66 62 51 60 59 61 67 69 71 75 76 73 74
55 55 56 67 69 74 75 71 56 50 65 60 63 68 67 65 67 68 64 62 59 55 57 64 67 72 73 65 71 68 61 51 50 52 50 64 57 61 69 71 73 73 73 73 75
53 52 56 69 73 71 71 63 48 56 58 65 64 66 62 65 64 64 62 61 66 62 58 54 53 67 71 67 64 65 63 53 42 47 52 62 52 62 69 73 73 72 71 73 74
51 73 75 72 72 71 66 54 54 57 61 59 63 59 58 62 60 59 59 59 61 61 51 52 53 66 67 70 68 62 56 65 55 57 49 55 60 68 71 69 69 70 70 71 72
63 70 70 74 73 69 63 51 57 62 63 62 55 58 54 57 56 55 55 59 58 62 62 55 47 60 63 65 67 62 66 52 55 38 37 51 52 55 60 64 67 67 68 70 72
65 68 72 75 72 67 56 57 59 64 64 58 56 55 55 55 56 53 51 59 62 58 59 53 46 51 61 56 55 58 56 58 57 52 39 37 47 62 61 65 64 66 68 70 71
65 63 73 75 64 66 62 57 53 59 63 60 60 58 56 55 52 50 50 56 61 56 49 51 44 45 53 65 65 60 56 57 45 42 46 42 45 66 66 68 66 67 69 70 70
61 64 74 71 57 61 58 57 58 56 58 57 56 57 58 53 45 50 53 59 60 56 45 46 40 39 46 56 60 54 57 58 56 52 42 38 47 66 65 64 67 68 68 68 68
62 58 65 65 62 54 51 53 52 58 56 57 55 55 51 44 49 47 49 55 56 54 52 48 42 44 41 48 51 47 51 55 51 40 45 46 52 60 64 65 67 67 68 67 67
61 52 54 55 55 53 53 51 49 47 55 56 52 52 47 39 45 44 46 48 54 54 49 42 35 46 49 51 51 51 51 52 49 50 43 49 52 58 63 63 64 65 65 65 65
57 57 60 55 51 51 48 50 46 46 45 44 43 48 48 40 40 38 41 45 42 52 49 46 36 44 43 50 51 48 51 51 53 54 54 54 54 65 66 65 63 64 64 64 65
60 61 57 49 50 51 52 48 47 49 52 53 48 42 44 47 49 49 53 51 46 42 42 40 40 39 37 48 47 42 49 52 53 56 55 50 58 64 60 60 59 63 64 63 64

GFSSW_sfc_temp_099.txt.gz
Temp
60 60 60 60 60 60 60 60 60 60 60 60 60 60 60 60 60 71 75 81 83 74 72 89 88 89 90 89 91 90 77 73 75 80 82 93 88 93 95 89 92 95 94 98 100
60 60 60 60 60 60 60 60 60 60 60 60 60 60 60 59 69 76 82 73 72 73 84 85 84 87 84 85 86 82 75 77 87 86 85 90 87 90 87 87 87 91 96 100 100
60 60 60 60 59 59 59 60 59 59 59 60 60 60 59 63 72 83 73 71 71 75 89 91 90 87 82 85 85 83 75 85 86 84 86 85 84 89 85 82 88 88 93 98 98
60 60 60 59 60 59 59 59 59 60 60 60 59 59 59 70 69 85 73 72 71 85 89 87 86 81 80 79 85 77 84 84 87 86 85 82 85 84 85 86 92 94 95 95 94
59 60 60 59 59 59 59 58 59 59 59 59 59 59 65 73 79 82 73 73 83 84 86 85 83 83 78 83 83 80 82 85 86 86 85 86 82 82 84 89 91 92 92 93 93
59 59 59 59 59 59 58 58 58 58 58 58 60 58 68 69 91 88 87 84 88 87 87 89 85 88 83 83 81 84 82 84 85 85 85 81 82 84 86 89 89 89 89 90 93
58 58 58 58 59 59 58 58 58 58 58 60 60 67 72 78 91 93 91 89 91 90 85 90 89 83 85 79 86 83 75 80 81 83 81 84 76 79 87 89 87 87 89 91 92
58 58 58 58 58 59 59 58 58 58 58 60 61 72 71 90 93 90 92 89 92 91 90 90 89 85 82 85 79 76 77 71 83 84 84 81 70 85 90 86 85 86 88 89 90
58 57 57 58 58 58 58 57 58 58 59 61 66 71 72 77 81 89 91 85 87 88 88 87 87 81 82 74 72 75 67 71 76 84 80 77 73 85 86 84 82 85 86 88 90
58 57 57 57 58 57 57 57 57 58 62 72 75 67 77 78 85 87 91 89 84 83 80 79 79 74 76 74 63 69 70 72 72 79 77 76 75 82 85 85 83 85 86 87 88
58 57 57 57 57 56 59 66 65 60 69 72 75 76 78 85 87 85 88 84 83 78 69 76 70 67 72 76 76 74 71 70 75 80 74 73 74 79 84 84 83 84 85 85 87
57 57 57 57 57 56 66 72 77 77 65 75 75 77 84 83 76 81 88 76 74 68 74 72 66 74 78 77 73 71 67 68 74 78 75 73 72 78 81 82 83 84 84 86 87
56 56 56 56 56 59 73 77 87 83 69 74 76 74 75 79 71 76 82 78 73 69 72 68 74 75 73 72 69 69 66 67 68 74 75 71 68 72 79 82 84 85 86 87 86
56 56 56 56 57 80 76 85 88 84 63 67 70 75 76 77 69 83 82 77 73 68 72 72 78 73 70 68 72 64 74 71 68 66 60 74 59 71 76 78 80 82 83 85 86
55 56 56 55 65 74 80 86 87 79 48 72 72 84 79 73 74 75 84 77 66 67 69 66 71 70 68 70 74 67 75 71 70 66 65 66 62 68 76 73 77 80 82 84 83
55 56 55 63 65 77 84 83 79 58 48 66 73 71 70 74 73 76 75 81 78 70 72 66 75 73 72 76 74 75 70 69 69 66 55 64 63 64 71 74 78 81 81 82 80
55 55 56 74 75 84 84 76 59 53 70 65 68 72 73 69 71 71 67 66 63 58 59 66 68 75 76 68 73 71 64 54 53 54 53 68 64 67 74 78 78 77 79 80 80
54 52 62 77 82 80 78 67 50 62 64 70 69 70 66 70 70 70 67 64 70 67 62 57 54 69 75 71 66 67 64 53 43 47 55 66 57 67 77 78 80 79 78 78 79
52 76 79 80 81 79 71 57 59 62 66 64 68 64 63 66 66 64 64 64 68 68 57 55 56 70 72 73 71 65 58 68 56 58 52 59 65 73 77 74 75 77 76 75 76
66 75 76 81 80 76 67 55 63 67 67 67 59 63 59 60 60 60 59 64 63 68 68 61 50 64 68 71 69 64 68 51 55 40 40 52 56 59 65 68 73 73 73 75 76
66 70 78 83 79 71 61 64 64 68 67 62 61 59 59 58 61 58 56 62 64 63 66 61 49 54 62 58 59 60 57 58 57 54 41 41 51 69 65 68 69 71 74 75 75
69 66 80 83 65 73 68 65 54 66 68 65 64 62 59 58 54 54 54 58 62 65 57 55 51 46 55 66 66 61 57 57 45 43 50 46 48 71 70 72 72 71 73 75 76
67 71 80 76 59 66 66 64 64 62 63 62 59 59 61 55 48 56 56 63 62 58 53 53 43 42 49 60 61 56 59 58 57 54 46 41 50 67 68 67 71 71 71 74 75
67 62 70 73 71 61 61 61 59 64 62 62 59 59 57 53 57 53 53 57 60 59 53 52 49 44 41 50 47 46 52 54 52 42 47 50 54 61 64 65 66 64 70 73 73
69 61 61 63 62 60 60 60 57 56 61 62 58 56 51 46 48 49 54 58 59 58 53 45 36 43 51 53 54 53 53 53 50 52 47 51 53 60 64 66 70 71 70 70 71
61 62 65 64 58 57 51 58 54 54 55 53 52 55 54 48 50 48 51 52 51 58 52 44 36 46 46 52 53 50 55 56 56 56 56 55 54 67 70 73 70 68 70 67 69
70 69 63 54 58 57 59 56 53 56 59 59 54 51 51 53 55 56 57 55 53 48 49 44 41 40 39 51 51 43 53 56 57 60 58 53 61 68 67 66 64 66 68 68 69

GFSSW_sfc_temp_102.txt.gz
Temp
61 61 61 60 60 60 60 60 60 60 61 60 60 61 60 60 60 67 68 80 80 74 74 84 87 86 86 84 87 88 72 69 73 75 80 92 90 95 98 92 94 94 93 97 100
61 61 60 60 60 60 60 60 60 60 60 60 60 60 60 60 63 69 80 74 76 74 83 82 82 85 80 80 82 79 69 72 83 85 84 89 89 91 89 88 88 90 95 98 100
60 61 60 60 60 60 60 59 60 60 60 60 60 60 60 61 67 78 77 73 73 76 85 89 89 85 78 82 81 79 71 80 83 88 87 84 85 90 86 83 88 87 92 96 97
60 60 60 60 60 60 59 59 59 60 60 60 60 60 60 65 65 82 74 73 73 84 84 85 85 80 76 75 83 75 80 82 84 88 84 82 87 83 84 85 93 93 94 95 94
59 59 59 59 59 60 59 59 59 59 59 59 59 60 63 68 75 81 73 74 82 81 82 83 80 80 75 80 82 77 80 83 86 86 85 86 82 83 84 90 92 92 92 91 91
58 59 59 59 59 59 59 58 58 58 58 59 60 60 63 65 91 86 87 83 86 83 84 87 84 87 82 81 80 83 82 82 84 84 84 81 81 83 85 90 89 89 87 89 89
58 58 58 58 58 58 59 59 58 58 58 59 60 66 67 73 93 90 89 86 89 88 84 89 91 85 84 78 86 84 77 80 80 82 81 84 76 77 86 88 86 87 88 89 89
58 58 58 58 58 58 58 58 58 58 59 60 61 67 66 91 95 92 92 89 92 93 91 93 91 84 82 85 82 76 76 67 78 81 82 80 67 81 88 86 84 85 87 88 90
58 57 57 58 58 58 57 57 58 59 60 60 63 67 69 81 83 90 92 86 89 90 89 91 86 79 80 73 70 72 64 68 73 84 83 79 71 81 87 84 82 84 85 86 87
58 57 57 57 57 57 56 57 60 58 60 71 73 67 76 78 86 88 92 90 84 83 81 79 77 72 73 70 58 64 67 70 71 80 80 75 74 80 85 84 81 82 84 85 86
58 57 57 57 57 56 58 62 61 61 64 66 72 73 80 87 89 85 89 85 84 78 68 75 68 64 70 73 74 73 71 69 75 81 77 74 74 78 82 84 82 83 84 84 85
57 57 57 56 56 56 59 67 76 78 65 72 71 75 81 86 76 82 89 76 74 67 73 69 64 73 77 77 74 72 68 67 73 78 75 73 72 77 80 81 83 83 83 84 85
56 56 56 56 56 57 66 74 86 85 67 73 78 74 76 80 72 75 82 77 72 67 69 65 71 78 75 72 69 70 66 66 67 73 76 73 67 71 78 81 83 84 85 85 85
56 56 56 55 55 75 72 82 88 86 58 66 71 76 79 78 69 81 84 76 71 67 70 69 77 74 72 69 71 63 74 71 69 65 58 72 56 68 75 77 80 82 83 84 85
55 56 55 55 60 70 82 88 89 79 44 70 73 85 81 72 74 73 84 76 65 66 68 63 68 68 67 69 74 67 75 71 70 65 63 64 59 65 74 72 77 81 83 83 83
55 56 55 64 61 72 82 85 79 57 46 67 74 71 70 72 73 77 75 78 76 68 69 66 75 70 68 71 72 76 70 69 68 64 52 60 60 61 68 73 77 82 83 84 82
55 56 55 68 71 84 84 76 57 49 72 66 68 71 70 68 71 70 67 65 61 56 56 65 67 73 74 66 71 69 60 48 47 50 49 64 60 64 74 78 79 78 80 81 81
54 53 61 71 81 82 76 64 48 63 65 72 71 71 66 70 70 70 66 63 68 65 60 56 52 67 73 68 64 65 62 52 41 45 52 63 55 62 76 79 80 82 81 80 79
52 71 72 79 81 79 67 55 55 62 68 66 68 64 65 68 68 67 66 64 67 67 55 54 56 71 72 73 71 63 58 66 53 55 48 54 61 70 75 74 78 78 78 75 76
59 69 79 83 81 74 62 55 64 69 69 68 59 66 57 60 59 62 60 66 64 69 69 61 51 65 68 71 71 66 68 51 53 37 38 51 55 56 63 66 68 71 73 75 76
61 66 78 85 79 68 57 63 67 72 69 64 62 61 62 59 59 57 57 64 66 66 68 62 55 54 62 59 58 60 58 58 56 50 37 39 49 68 63 67 68 71 74 75 76
66 61 81 82 63 66 62 65 55 68 70 67 67 64 61 60 57 57 57 61 65 64 57 58 53 46 52 63 66 63 58 56 43 42 48 44 44 67 67 70 70 70 73 76 76
61 69 80 77 55 57 64 67 68 65 65 65 63 64 64 57 51 58 58 64 63 61 55 56 48 42 49 58 60 55 59 59 53 48 42 39 46 68 67 61 64 66 68 72 73
61 60 70 72 71 62 62 62 63 67 64 65 62 64 60 57 60 54 56 60 64 61 56 55 51 43 37 47 52 47 52 55 50 39 45 48 52 59 62 60 64 67 67 70 70
62 61 62 58 62 62 62 62 60 59 65 65 60 60 57 50 55 54 57 60 60 56 57 53 40 45 49 51 51 51 52 53 50 51 44 51 52 58 62 64 66 69 70 69 70
57 58 62 61 62 60 55 59 58 59 58 57 55 59 58 50 51 47 51 53 51 58 51 51 39 43 43 50 50 48 53 54 55 56 55 55 55 65 67 69 68 69 68 68 69
62 66 59 56 60 58 60 59 57 58 60 62 58 56 54 56 57 58 60 58 55 51 48 43 39 42 37 49 49 41 52 54 56 59 58 52 59 66 64 66 65 66 67 68 68

GFSSW_sfc_temp_105.txt.gz
Temp
61 61 61 60 60 60 60 60 60 60 60 61 60 60 61 60 60 58 53 67 69 72 73 78 78 77 75 71 73 72 54 51 59 64 69 81 77 84 89 85 86 87 84 87 92
60 61 61 61 61 60 60 60 60 60 60 60 60 60 60 60 54 56 69 73 74 74 75 72 71 75 67 68 70 64 54 58 70 74 72 78 74 77 80 80 80 83 89 90 91
60 60 60 60 60 60 60 59 60 60 60 60 60 60 60 59 53 64 75 73 73 75 77 76 77 74 65 67 67 64 61 69 74 77 76 73 74 78 76 71 78 79 82 86 84
60 60 60 59 60 59 60 59 59 60 60 60 60 60 60 55 53 72 74 74 73 77 76 72 71 61 62 61 70 63 72 73 76 80 76 72 79 77 75 75 82 82 83 84 81
59 59 59 59 59 59 59 59 58 59 59 59 59 59 56 53 59 74 74 74 75 76 73 70 67 66 60 66 68 66 70 76 78 76 73 79 76 75 74 82 85 83 84 81 80
58 58 59 59 59 58 58 58 58 58 58 58 59 60 53 51 80 77 77 75 78 72 74 73 71 73 69 67 64 71 73 74 76 74 72 72 73 75 78 83 83 83 79 79 79
58 58 58 58 58 58 58 58 57 58 58 59 60 61 57 58 82 78 79 73 78 79 76 79 80 73 71 66 73 72 65 70 72 72 71 75 68 69 76 80 78 80 80 80 81
58 58 58 58 58 58 58 57 57 58 59 60 60 58 52 79 78 77 79 79 83 83 82 83 82 72 65 70 70 64 60 52 66 72 74 70 59 73 79 77 75 77 79 80 79
58 57 57 58 58 58 57 56 58 59 59 60 55 54 57 78 78 83 83 80 82 83 82 89 76 67 69 59 54 56 49 55 62 74 73 70 61 72 77 76 74 75 76 78 76
58 57 57 57 57 57 56 57 59 58 59 65 66 55 64 71 81 83 83 85 79 78 75 71 64 57 56 51 43 51 53 58 60 69 70 67 64 70 75 74 73 73 75 75 76
58 57 57 57 57 56 54 56 54 53 59 58 63 65 72 81 86 79 83 80 78 71 58 65 53 49 56 61 63 63 60 58 64 71 65 61 64 68 72 67 68 69 71 72 73
57 57 57 56 56 56 53 52 65 68 60 65 69 70 76 79 72 78 82 70 67 58 64 58 52 63 69 68 66 64 59 58 63 69 65 61 61 67 70 69 70 69 69 69 70
56 56 56 56 56 52 51 60 72 74 58 67 72 68 69 74 69 72 77 71 65 59 60 54 61 71 69 65 63 61 57 58 58 65 65 61 57 60 67 70 73 72 72 72 72
56 56 56 55 51 59 60 69 68 71 48 61 69 72 74 73 66 79 78 72 65 60 62 60 68 68 66 64 64 54 66 66 63 56 45 60 45 55 62 66 70 74 72 70 72
56 56 56 55 49 54 69 74 73 65 34 67 68 80 76 68 70 70 80 72 60 62 61 58 62 61 60 62 66 59 67 63 62 53 47 53 43 51 62 61 65 68 75 72 69
56 56 55 57 51 56 67 69 69 47 38 63 69 66 64 68 69 72 71 74 72 63 62 60 69 64 63 68 68 69 61 58 54 49 41 49 47 47 56 62 67 71 74 72 70
56 56 54 59 57 70 72 63 44 41 67 60 62 66 63 63 65 66 63 59 54 49 51 60 62 67 70 60 64 60 49 38 35 38 38 55 51 54 62 69 70 67 68 70 69
54 53 55 60 65 67 62 51 39 58 60 69 69 67 60 66 64 65 61 55 61 58 52 49 47 63 71 64 58 58 54 42 32 32 40 55 43 52 68 70 74 73 67 70 68
53 59 60 65 68 65 55 41 50 59 66 64 65 59 60 65 64 64 59 58 63 61 48 46 49 66 68 69 63 56 51 58 43 44 36 43 53 62 66 66 67 69 70 67 65
49 54 64 73 70 62 49 47 58 68 67 66 55 62 53 55 54 55 55 63 61 65 60 53 43 60 64 65 64 56 60 48 44 30 27 40 44 46 54 58 63 64 65 65 64
49 54 69 76 68 56 45 52 60 69 68 61 57 56 57 56 55 52 55 61 62 60 59 52 46 50 56 52 49 52 51 51 47 39 29 26 37 53 57 59 57 60 64 65 66
52 50 70 71 52 54 50 56 56 67 69 65 63 60 55 55 52 52 54 56 63 61 51 49 44 39 47 56 60 54 50 49 37 35 37 32 39 60 59 58 57 57 62 64 63
46 55 70 67 47 49 54 54 58 64 63 62 59 60 58 51 44 53 54 61 60 57 49 49 40 32 40 47 51 45 49 48 46 41 37 34 37 58 60 59 57 57 61 66 66
48 49 58 59 59 54 55 49 54 66 63 63 59 59 53 49 52 48 52 59 61 56 57 53 42 38 31 40 45 43 49 51 45 36 38 38 42 50 54 53 55 57 58 62 62
51 52 55 49 53 54 55 56 56 56 62 61 55 56 51 42 46 46 52 52 59 55 52 45 36 40 43 46 47 45 46 47 44 46 38 44 45 51 54 54 56 58 60 60 63
49 49 53 50 55 54 51 52 56 57 56 53 50 54 51 42 44 41 45 45 44 48 46 47 36 38 37 45 46 43 47 48 49 49 48 49 48 57 60 62 60 58 60 60 61
56 56 50 49 51 51 51 54 55 55 58 58 54 50 49 48 52 50 49 48 47 42 41 40 39 36 34 43 42 34 44 48 49 52 51 45 49 58 55 56 54 54 56 57 57

GFSSW_sfc_temp_108.txt.gz
Temp
61 61 61 61 61 61 60 60 60 60 60 60 60 60 60 60 59 54 48 62 64 70 71 74 75 75 73 69 71 67 51 48 56 63 66 76 73 81 82 81 82 82 82 85 88
60 60 60 60 60 60 60 59 60 60 59 59 60 60 60 59 51 49 63 69 70 72 70 68 67 70 61 64 66 59 49 55 66 69 67 74 68 73 77 75 77 79 83 87 88
60 60 60 60 60 59 60 59 59 59 59 60 60 60 60 58 48 59 72 70 71 72 73 72 69 67 59 60 61 60 55 62 69 73 70 69 71 74 71 67 71 73 77 81 81
59 60 60 60 60 59 59 59 59 59 59 60 59 59 59 52 51 71 74 71 72 73 74 70 66 57 56 57 64 53 65 68 72 75 71 71 74 71 72 74 79 80 79 80 77
59 59 59 59 59 59 59 59 59 58 59 59 59 59 53 48 54 73 74 72 72 73 70 67 61 60 56 60 60 57 64 69 73 73 70 73 72 73 74 80 80 79 80 77 77
58 58 58 59 59 58 58 58 58 58 58 58 59 59 50 48 71 73 72 71 73 69 69 66 66 67 64 63 60 65 66 68 69 70 67 69 71 70 75 80 80 77 77 77 78
58 58 58 58 58 58 58 57 57 58 58 59 59 59 52 54 74 71 72 68 72 73 69 72 72 67 66 64 67 66 60 64 67 69 67 71 65 67 76 77 77 77 75 76 77
58 57 57 58 58 58 58 57 57 58 59 59 60 55 48 70 68 69 70 71 75 76 75 76 75 67 65 66 66 58 56 50 62 68 71 68 59 69 75 73 72 74 76 77 77
58 57 57 58 58 58 57 56 58 59 59 60 52 48 51 71 68 73 75 74 75 75 74 82 73 65 64 56 50 51 46 52 60 67 67 64 60 70 73 71 70 72 72 73 74
58 57 57 57 57 57 56 56 58 58 58 61 61 50 58 67 76 77 76 78 73 72 70 69 60 55 52 49 42 48 48 53 54 62 62 61 62 70 71 69 69 70 69 72 73
58 57 56 57 57 56 53 48 51 50 54 54 58 58 69 77 81 75 78 75 74 66 56 59 52 47 52 54 57 56 53 53 59 66 60 58 58 63 67 64 66 66 66 68 70
57 57 56 57 56 56 53 45 57 60 54 60 64 65 72 74 67 73 77 66 63 55 58 53 47 57 61 60 58 57 53 53 58 64 61 56 57 62 63 65 66 67 67 68 67
56 56 56 56 55 51 48 51 62 66 51 64 64 64 66 70 65 67 72 66 61 56 54 50 57 64 62 59 57 56 53 53 54 61 59 56 52 56 63 65 69 67 67 68 68
55 55 56 55 51 49 50 61 60 62 44 56 62 67 69 70 64 75 75 67 60 56 56 53 62 62 59 58 59 52 61 60 59 52 44 57 42 50 59 61 64 66 66 65 67
55 56 56 56 49 46 62 62 61 59 33 63 64 75 70 66 66 67 76 67 58 59 57 53 55 56 54 58 61 55 62 58 56 50 44 49 41 48 53 56 60 63 66 68 70
55 56 56 52 49 51 58 58 61 45 35 59 66 63 61 64 66 67 68 71 70 60 57 57 64 60 60 64 63 64 56 52 48 44 36 45 44 42 51 56 60 67 66 69 63
55 55 54 56 49 58 58 58 43 36 62 57 57 61 59 59 62 63 60 55 51 45 46 55 58 62 65 57 59 57 46 35 33 34 34 50 45 46 58 62 63 65 62 62 63
54 53 51 54 53 56 56 49 34 54 56 66 65 61 54 59 59 61 56 50 56 53 46 44 44 60 66 60 55 52 47 35 29 29 35 49 40 49 61 65 67 65 62 63 62
52 48 51 56 59 58 52 38 42 54 64 62 63 55 55 60 59 57 53 53 56 56 45 44 47 61 66 67 60 53 45 51 40 38 32 39 47 57 62 60 63 64 64 63 61
47 46 53 65 63 57 47 43 49 62 66 64 52 58 51 54 54 53 53 59 57 59 57 50 42 56 60 62 60 55 58 43 39 29 26 35 41 45 51 52 58 57 59 63 63
44 48 62 67 64 52 42 48 56 65 66 59 54 53 52 52 52 52 54 55 60 56 55 48 44 47 53 50 47 48 46 47 45 40 29 25 35 50 53 54 53 57 59 57 61
43 44 64 68 49 49 45 54 56 58 66 63 61 55 51 51 50 49 50 51 59 57 47 46 41 37 44 53 54 49 44 41 34 32 35 28 33 56 52 52 55 55 62 63 67
40 45 63 64 44 44 53 55 57 58 61 59 55 56 54 48 44 50 50 57 57 53 47 45 36 30 37 45 49 44 46 48 43 41 37 34 38 55 55 55 56 55 59 62 64
41 41 52 54 55 49 52 51 52 62 60 60 56 57 51 47 48 46 49 55 57 53 57 51 38 35 29 36 41 40 44 45 44 35 37 39 39 46 51 52 53 53 55 56 58
43 45 51 45 50 49 51 54 53 53 59 57 51 51 48 41 43 43 47 48 52 55 46 42 34 37 39 43 44 42 42 44 40 40 34 40 41 46 48 51 57 58 55 55 56
44 42 46 46 49 50 49 50 53 53 54 50 46 51 47 41 42 39 42 42 41 46 41 40 32 37 34 43 42 40 44 44 45 44 44 45 44 53 53 51 52 51 53 52 52
51 49 44 44 47 46 46 52 52 53 53 53 50 46 44 45 46 44 45 46 45 41 38 37 35 32 28 39 39 32 41 43 45 48 46 40 43 49 47 51 47 47 50 52 53

GFSSW_sfc_temp_111.txt.gz
Temp
60 60 60 60 60 61 60 60 60 60 60 60 60 59 60 60 59 52 47 59 63 69 71 73 73 73 69 67 71 68 52 49 56 61 62 70 68 74 77 75 78 80 78 82 82
60 60 60 60 60 60 60 60 59 59 60 59 59 60 60 60 50 46 59 67 69 71 67 67 68 69 63 65 65 59 48 56 65 69 65 65 65 69 73 73 74 76 80 83 82
59 60 60 60 60 59 59 59 60 59 59 59 60 59 59 57 47 57 71 69 69 71 70 70 69 66 55 62 62 57 54 63 67 71 66 65 69 72 71 67 70 71 74 78 77
59 59 59 59 59 59 59 59 59 60 59 59 59 59 59 50 49 67 74 70 70 69 68 67 64 59 55 56 62 57 64 67 69 72 64 65 69 69 67 72 76 76 76 75 74
58 59 59 59 59 59 58 58 58 59 58 58 58 58 53 45 51 70 73 71 69 68 67 65 60 58 56 59 58 54 63 67 69 69 65 68 67 68 68 76 77 76 77 74 74
58 58 58 58 58 58 58 58 57 57 58 58 58 58 48 43 68 70 68 68 68 67 67 65 63 64 60 60 58 62 63 66 66 65 64 65 68 67 72 78 77 74 74 74 74
58 58 58 58 58 58 58 57 57 57 58 59 59 58 49 51 69 67 68 64 68 71 66 68 69 66 64 58 63 62 57 61 63 66 65 67 62 64 74 76 74 73 73 73 74
58 58 58 58 58 58 58 57 57 58 58 59 60 56 45 66 65 65 65 66 69 70 70 71 71 63 61 62 62 56 54 48 61 65 68 68 57 68 73 70 69 71 72 72 72
58 58 58 58 57 58 57 56 57 59 59 59 53 48 47 68 66 70 70 69 69 69 69 79 69 62 62 56 50 51 46 50 57 65 65 61 56 67 69 69 67 68 69 70 70
58 58 57 57 57 57 56 56 56 58 59 60 58 47 55 63 70 71 70 72 69 66 64 63 58 54 50 49 40 47 47 51 53 60 60 56 57 63 69 66 67 67 68 68 68
58 57 57 57 56 56 54 47 48 47 52 50 55 55 65 73 77 70 73 69 67 62 53 56 50 46 52 53 55 54 50 50 55 62 57 56 56 61 64 59 62 64 65 65 66
57 57 56 56 56 56 53 44 54 56 50 56 59 61 67 71 64 69 73 62 59 52 54 51 46 55 57 56 54 53 48 48 55 60 57 55 55 60 61 60 62 65 64 64 64
56 56 56 56 56 52 50 48 59 60 49 60 61 61 63 67 61 63 70 63 57 53 51 47 54 60 57 54 52 50 48 49 51 57 56 53 50 55 62 62 63 63 63 64 64
56 56 56 55 50 47 47 57 57 56 43 53 58 64 67 68 61 72 70 65 56 53 53 51 58 58 54 53 54 46 56 57 54 50 42 52 38 48 56 58 60 63 62 63 64
55 55 55 55 51 46 58 55 55 54 33 59 58 72 67 64 65 66 73 65 55 55 54 50 53 53 52 54 58 53 58 55 55 47 42 44 39 46 50 53 58 61 63 63 63
55 55 55 54 50 51 55 54 55 43 33 55 62 59 58 62 63 65 66 69 66 57 53 54 59 57 56 60 60 60 53 49 44 41 35 43 43 40 48 54 56 60 63 62 62
55 55 53 56 46 52 52 53 43 34 59 54 56 58 56 55 59 60 57 54 50 46 47 54 54 59 62 52 54 52 43 33 32 32 33 44 41 43 53 58 60 61 59 57 56
54 53 51 54 53 54 52 49 34 50 54 63 61 58 52 56 55 58 54 49 53 52 45 45 44 57 62 58 52 47 45 35 29 29 35 44 38 45 56 58 60 61 58 58 58
53 45 46 51 55 53 50 38 40 51 59 56 60 53 50 56 56 54 51 50 54 54 45 42 45 59 62 63 61 51 44 48 37 35 31 37 44 54 55 55 57 58 58 58 57
48 44 47 57 57 54 46 43 49 56 61 62 52 55 49 52 49 49 49 55 53 55 54 48 40 53 57 60 59 56 57 42 36 29 26 33 37 41 49 51 55 54 55 56 58
43 42 57 61 59 51 41 45 54 63 60 58 55 53 50 51 51 48 49 53 56 53 54 46 43 45 50 47 45 46 43 44 41 35 27 24 34 49 51 49 50 53 54 56 56
44 40 57 64 47 46 45 52 54 55 59 60 59 54 49 49 48 47 49 53 58 57 47 44 40 36 41 47 51 46 41 40 34 33 31 28 31 51 49 50 52 53 57 57 63
41 41 56 58 44 44 49 55 57 53 54 56 54 54 53 48 43 48 48 56 58 54 48 47 37 30 35 41 45 42 43 42 38 37 36 33 34 51 51 51 52 52 54 58 59
42 40 49 52 48 46 49 51 51 56 57 59 54 55 50 45 47 46 47 51 54 52 55 50 36 35 29 34 38 37 41 43 39 30 35 36 37 46 49 52 53 51 51 51 51
42 44 48 41 45 48 48 52 51 51 57 55 50 51 48 41 43 41 45 47 50 53 45 42 33 35 37 40 41 40 40 40 37 41 33 37 39 43 46 49 54 49 51 51 52
43 44 47 45 48 46 46 48 49 50 51 49 46 47 47 40 41 38 41 41 41 44 38 38 31 33 33 41 39 37 40 40 40 40 40 41 40 48 47 45 47 48 49 49 50
48 50 45 44 46 44 44 46 51 50 52 53 49 45 43 44 45 45 42 44 42 40 36 36 33 29 27 36 37 31 37 40 42 43 42 35 41 45 44 47 44 44 47 49 50

GFSSW_sfc_temp_114.txt.gz
Temp
60 60 60 60 60 60 60 61 60 60 60 60 60 59 59 60 59 54 46 56 57 67 69 70 73 72 70 67 69 62 50 48 54 57 63 68 67 73 73 71 75 76 74 77 78
60 60 60 60 60 60 59 59 60 60 60 60 59 59 59 59 53 48 57 65 67 70 65 67 67 69 63 64 65 62 49 54 63 64 61 65 68 69 71 70 71 73 77 78 78
59 60 59 60 60 59 59 59 59 60 60 60 60 59 59 58 46 51 66 66 69 69 66 69 70 67 62 61 62 58 54 64 67 65 62 62 66 69 69 65 68 70 74 75 73
59 59 59 59 59 59 59 59 59 59 60 59 59 59 59 55 44 62 73 70 70 66 66 65 65 60 58 56 60 57 62 66 67 71 69 64 65 67 71 72 73 75 74 74 73
59 59 59 59 59 59 58 59 59 59 58 58 59 58 55 43 44 67 73 70 68 63 64 61 59 59 56 59 61 57 63 66 69 68 64 68 64 67 68 74 75 73 74 73 71
59 59 59 59 59 59 58 58 57 57 58 58 59 59 47 39 63 68 66 66 64 62 62 63 61 63 60 60 59 61 64 66 64 65 60 63 65 64 68 75 73 71 72 72 72
58 58 59 58 58 58 58 58 57 57 58 58 59 58 50 46 64 65 64 59 65 67 64 65 67 65 63 58 61 60 57 60 61 63 63 62 59 60 72 74 73 71 70 70 71
58 58 58 58 58 58 58 57 57 58 58 59 59 56 44 62 61 61 62 64 66 66 67 68 68 60 58 61 60 56 53 49 59 62 65 65 52 66 71 69 68 68 69 69 69
59 58 58 58 58 58 57 57 58 59 59 59 54 49 45 65 62 66 66 64 65 66 66 75 66 59 59 53 48 50 44 49 57 65 64 60 53 66 65 65 64 66 67 68 69
58 57 57 57 57 57 56 57 56 58 58 60 58 46 53 60 66 67 66 69 64 62 60 60 56 51 49 48 40 46 47 50 53 59 58 53 55 62 65 64 64 64 65 66 66
58 57 57 57 57 56 54 49 49 48 52 49 52 55 61 69 73 66 68 66 65 58 49 54 48 43 49 53 55 54 51 49 53 59 55 51 53 59 62 59 59 61 62 64 65
57 57 57 56 57 56 53 46 50 51 46 53 56 57 64 67 61 65 71 60 57 50 52 48 44 54 57 55 53 51 47 47 54 58 55 54 53 57 60 60 62 61 62 64 64
56 56 56 56 56 52 51 49 55 54 45 57 57 57 60 63 58 60 66 60 54 49 48 45 51 58 57 52 51 48 46 47 50 54 53 52 48 52 60 60 62 62 61 62 64
55 56 55 55 49 49 47 55 54 53 39 50 53 61 64 64 58 68 67 62 52 50 50 49 55 55 51 51 52 43 54 55 52 47 41 51 38 47 53 56 59 61 60 62 63
55 55 55 55 50 48 53 51 51 50 29 56 56 69 67 62 63 62 68 62 53 51 51 48 51 49 48 52 55 50 56 52 51 44 41 42 39 44 48 51 56 59 61 61 60
55 55 54 53 50 51 52 51 51 40 31 51 58 56 57 63 63 64 65 66 61 54 51 52 56 55 55 57 57 58 51 46 42 40 34 41 41 39 46 51 53 58 61 62 60
55 54 53 55 45 49 50 49 40 33 55 52 51 55 56 56 58 60 57 56 50 43 42 48 50 54 58 50 52 49 41 32 31 31 32 41 39 42 50 55 57 58 59 58 56
54 53 53 52 53 52 49 46 35 47 51 59 59 56 51 54 53 55 52 47 52 53 47 43 39 52 58 54 49 45 43 33 28 29 33 42 36 44 53 55 56 56 54 55 54
52 50 44 46 52 51 48 40 38 47 55 51 57 50 49 54 53 53 50 50 52 54 46 43 44 59 60 60 57 45 40 45 35 33 30 35 42 51 52 52 54 55 56 55 56
48 46 44 54 55 50 48 44 47 56 57 55 46 54 46 50 48 47 48 53 52 55 54 49 42 53 57 59 57 51 52 39 35 28 26 32 35 40 46 49 53 54 54 55 56
46 39 53 55 55 48 42 43 53 61 58 53 47 48 50 49 48 46 47 51 54 50 52 46 43 44 50 45 42 46 42 39 38 33 27 25 33 46 48 49 49 50 53 53 57
44 35 53 55 46 44 41 49 55 57 55 56 55 50 49 48 46 46 46 49 56 54 45 43 41 37 40 45 48 43 39 39 32 32 29 28 31 48 49 49 50 51 54 54 55
41 42 53 53 40 40 47 53 57 53 52 53 48 53 53 46 42 46 47 53 55 52 46 46 38 32 35 40 44 40 40 39 37 34 31 32 33 50 49 49 50 50 53 53 54
42 37 47 49 47 45 46 47 50 54 53 53 52 54 48 45 46 44 44 49 52 50 54 51 39 35 31 34 37 36 39 39 35 29 31 33 35 44 47 49 49 49 49 49 49
44 42 46 40 44 46 45 46 46 46 52 49 48 51 48 41 42 41 45 46 49 51 45 44 35 34 35 39 39 38 38 38 35 36 32 35 36 41 44 46 48 47 48 49 50
42 42 46 43 45 45 44 45 48 49 49 47 45 48 47 41 42 40 42 41 41 44 40 39 32 33 32 38 37 36 38 38 38 38 37 38 38 47 48 45 45 46 48 48 49
46 49 44 42 43 43 41 43 42 48 50 50 48 46 42 43 44 44 43 43 44 41 37 36 33 31 29 35 35 31 36 38 38 40 39 33 39 43 43 45 44 45 47 48 49

GFSSW_sfc_temp_117.txt.gz
Temp
60 60 60 60 60 60 60 60 60 61 60 60 60 60 60 59 59 57 51 60 63 65 69 73 75 76 77 71 76 73 65 62 66 65 72 78 78 81 85 82 85 86 86 86 84
60 60 60 60 60 60 59 59 60 60 60 59 60 59 60 59 56 52 62 63 65 68 70 72 71 73 71 70 70 71 62 64 72 74 73 76 77 78 81 81 81 82 82 84 84
60 60 60 60 60 59 59 59 59 60 60 60 59 59 59 59 51 57 67 64 66 69 75 76 77 77 70 71 69 66 62 68 71 74 76 77 77 80 79 78 82 81 80 82 84
60 60 60 60 60 59 59 59 59 59 59 59 59 59 58 56 54 71 73 68 68 72 74 74 73 70 68 65 68 64 69 68 73 76 76 75 77 77 78 82 84 85 85 84 82
60 61 59 59 59 59 59 59 59 59 59 58 58 58 55 47 53 71 71 72 69 69 71 71 70 71 64 66 64 60 68 69 72 76 77 77 74 76 78 83 87 86 84 86 85
59 59 59 59 58 59 58 58 58 58 58 58 58 58 51 47 70 72 71 69 70 70 71 72 72 74 70 66 65 67 66 69 72 73 74 71 73 73 79 83 83 82 85 86 86
59 58 59 59 58 58 58 57 57 58 59 59 59 57 51 55 71 70 70 68 70 73 69 75 76 74 71 63 72 68 62 67 68 69 70 71 67 68 77 83 81 81 83 84 84
58 58 58 58 58 58 58 57 58 58 59 59 59 55 47 67 69 67 70 67 70 75 76 77 77 75 71 72 68 63 64 57 69 68 71 71 61 74 79 74 79 81 82 82 84
58 57 57 58 57 58 57 56 58 59 59 59 55 51 48 69 63 70 72 67 69 74 76 77 75 70 68 64 61 61 56 57 61 69 70 69 65 72 76 75 77 79 81 83 84
58 57 57 57 57 57 56 56 58 58 59 60 58 47 56 64 69 69 73 72 68 70 68 68 67 63 62 60 51 55 56 59 59 65 66 66 66 71 75 75 76 79 80 79 80
58 57 56 56 57 56 55 55 51 48 51 52 53 55 64 71 74 69 73 71 69 66 58 63 58 54 59 62 64 63 59 58 62 66 65 64 67 71 74 73 75 77 77 76 77
57 57 57 56 56 56 54 47 54 56 50 55 57 56 63 68 64 66 74 66 62 56 61 57 54 62 64 63 62 61 58 57 62 65 64 64 64 71 72 73 75 75 75 74 77
56 56 56 55 55 54 51 52 61 59 51 58 58 56 60 66 62 63 70 66 62 58 58 55 60 64 62 59 58 59 57 56 57 61 64 62 60 64 72 71 74 75 75 75 76
55 55 55 55 52 54 51 59 61 58 46 53 55 61 64 66 60 72 74 69 63 58 59 60 63 61 61 59 61 54 62 61 58 56 53 61 52 59 66 69 70 74 74 76 76
55 55 55 54 50 49 57 59 58 56 34 58 56 72 67 63 65 63 74 70 60 59 60 57 59 59 57 60 63 59 63 61 59 55 54 55 54 59 60 64 69 72 73 75 75
55 55 54 53 53 56 61 58 57 43 34 52 60 57 58 63 64 65 65 72 69 61 62 61 65 64 64 65 65 65 60 57 56 55 49 55 55 57 61 65 68 71 73 73 73
55 55 54 54 48 60 57 52 42 35 57 53 54 58 58 57 56 62 59 58 57 51 52 57 60 65 66 61 63 62 57 48 46 46 46 52 52 58 62 65 67 68 71 70 70
54 53 54 54 57 57 53 47 35 49 52 59 59 58 54 59 57 55 57 54 60 60 54 50 46 60 65 63 59 59 59 50 39 42 48 50 49 59 62 64 66 67 67 69 70
52 54 52 54 56 55 48 37 44 50 57 54 56 52 53 58 56 53 51 55 59 61 51 50 51 62 64 67 66 55 53 61 49 46 48 53 54 60 62 62 65 66 67 68 70
49 49 50 57 55 50 43 44 49 58 58 55 46 55 49 54 54 54 51 59 57 63 64 54 46 58 61 66 62 61 62 50 53 39 38 46 48 55 57 59 62 64 64 66 69
48 43 55 55 56 48 41 48 53 61 59 49 47 49 54 54 56 54 54 56 61 57 61 59 53 50 56 53 55 55 55 53 55 51 43 42 49 59 59 60 60 63 65 66 68
44 39 54 53 45 48 46 51 54 59 57 49 50 48 48 56 53 52 52 55 61 61 56 53 53 47 50 53 55 54 53 54 47 43 45 45 49 60 61 61 62 63 65 68 68
40 42 56 51 40 43 50 52 56 55 52 47 47 46 49 48 46 50 51 55 59 59 55 54 47 41 42 50 53 51 50 51 50 49 44 42 49 59 60 60 61 62 64 65 64
41 37 46 48 48 44 47 48 50 59 52 49 47 49 43 45 50 47 48 52 55 56 56 56 47 47 44 46 48 45 47 50 50 42 48 47 53 55 58 60 63 59 61 61 62
43 42 45 39 43 39 46 47 48 47 50 48 47 47 42 38 42 41 48 51 52 52 51 54 43 44 45 47 47 47 47 47 46 48 45 50 48 55 58 60 62 61 59 59 60
40 40 44 43 45 42 43 41 44 47 47 43 41 45 45 43 46 40 43 48 50 51 49 48 40 45 41 44 45 43 47 47 48 48 47 48 48 59 61 61 58 58 58 58 59
48 49 44 44 43 37 39 39 44 49 49 50 48 45 46 46 49 50 51 52 52 51 46 46 43 43 38 41 43 40 46 47 48 49 50 45 54 57 56 55 56 56 58 57 58